[[{"header":{"parameterUnit":"m.s-1","parameterCategory":1,"la1":30.6,"la2":28.766,"lo1":-90.7593,"lo2":-88.6598,"dy":0.0162,"dx":0.0183,"nx":116,"ny":114,"refTime":"2024-06-15T12:00:00:Z","depth":0,"parameterNumber":2,"parameterNumberName":"U-component_of_WINDS"},"data":[0.0,0.0,0.0,0.0,0.0,0.0,0.0,0.0,0.0,0.0,0.0,0.0,0.0,0.0,0.0,0.0,0.0,0.0,0.0,0.0,0.0,0.0,0.0,0.0,0.0,0.0,0.0,0.0,0.0,0.0,0.0,0.0,0.0,0.0,0.0,0.0,0.0,0.0,0.0,0.0,0.0,0.0,0.0,0.0,0.0,0.0,0.0,0.0,0.0,0.0,0.0,0.0,0.0,0.0,0.0,0.0,0.0,0.0,0.0,0.0,0.0,0.0,0.0,0.0,0.0,0.0,0.0,0.0,0.0,0.0,0.0,0.0,0.0,0.0,0.0,0.0,0.0,0.0,0.0,0.0,0.0,0.0,0.0,0.0,0.0,0.0,0.0,0.0,0.0,0.0,0.0,0.0,0.0,0.0,0.0,0.0,0.0,0.0,0.0,0.0,0.0,0.0,0.0,0.0,0.0,0.0,0.0,0.0,0.0,0.0,0.0,0.0,0.0,0.0,0.0,0.0,0.0,0.0,0.0,0.0,0.0,0.0,0.0,0.0,0.0,0.0,0.0,0.0,0.0,0.0,0.0,0.0,0.0,0.0,0.0,0.0,0.0,0.0,0.0,0.0,0.0,0.0,0.0,0.0,0.0,0.0,0.0,0.0,0.0,0.0,0.0,0.0,0.0,0.0,0.0,0.0,0.0,0.0,0.0,0.0,0.0,0.0,0.0,0.0,0.0,0.0,0.0,0.0,0.0,0.0,0.0,0.0,0.0,0.0,0.0,0.0,0.0,0.0,0.0,0.0,0.0,0.0,0.0,0.0,0.0,0.0,0.0,0.0,0.0,0.0,0.0,0.0,0.0,0.0,0.0,0.0,0.0,0.0,0.0,0.0,0.0,0.0,0.0,0.0,0.0,0.0,0.0,0.0,0.0,0.0,0.0,0.0,0.0,0.0,0.0,0.0,0.0,0.0,0.0,0.0,0.0,0.0,0.0,0.0,0.0,0.0,0.0,0.0,0.0,0.0,0.0,0.0,0.0,0.0,0.0,0.0,0.0,0.0,0.0,0.0,0.0,0.0,0.0,0.0,0.0,0.0,0.0,0.0,0.0,0.0,0.0,0.0,0.0,0.0,0.0,0.0,0.0,0.0,0.0,0.0,0.0,0.0,0.0,0.0,0.0,0.0,0.0,0.0,0.0,0.0,0.0,0.0,0.0,0.0,0.0,0.0,0.0,0.0,0.0,0.0,0.0,0.0,0.0,0.0,0.0,0.0,0.0,0.0,0.0,0.0,0.0,0.0,0.0,0.0,0.0,0.0,0.0,0.0,0.0,0.0,0.0,0.0,0.0,0.0,0.0,0.0,0.0,0.0,0.0,0.0,0.0,0.0,0.0,0.0,0.0,0.0,0.0,0.0,0.0,0.0,0.0,0.0,0.0,0.0,0.0,0.0,0.0,0.0,0.0,0.0,0.0,0.0,0.0,0.0,0.0,0.0,0.0,0.0,0.0,0.0,0.0,0.0,0.0,0.0,0.0,0.0,0.0,0.0,0.0,0.0,0.0,0.0,0.0,0.0,0.0,0.0,0.0,0.0,0.0,0.0,0.0,0.0,0.0,0.0,0.0,0.0,0.0,0.0,0.0,0.0,0.0,0.0,0.0,0.0,0.0,0.0,0.0,0.0,0.0,0.0,0.0,0.0,0.0,0.0,0.0,0.0,0.0,0.0,0.0,0.0,0.0,0.0,0.0,0.0,0.0,0.0,0.0,0.0,0.0,0.0,0.0,0.0,0.0,0.0,0.0,0.0,0.0,0.0,0.0,0.0,0.0,0.0,0.0,0.0,0.0,0.0,0.0,0.0,0.0,0.0,0.0,0.0,0.0,0.0,0.0,0.0,0.0,0.0,0.0,0.0,0.0,0.0,0.0,0.0,0.0,0.0,0.0,0.0,0.0,0.0,0.0,0.0,0.0,0.0,0.0,0.0,0.0,0.0,0.0,0.0,0.0,0.0,0.0,0.0,0.0,0.0,0.0,0.0,0.0,0.0,0.0,0.0,0.0,0.0,0.0,0.0,0.0,0.0,0.0,0.0,0.0,0.0,0.0,0.0,0.0,0.0,0.0,0.0,0.0,0.0,0.0,0.0,0.0,0.0,0.0,0.0,0.0,0.0,0.0,0.0,0.0,0.0,0.0,0.0,0.0,0.0,0.0,0.0,0.0,0.0,0.0,0.0,0.0,0.0,0.0,0.0,0.0,0.0,0.0,0.0,0.0,0.0,0.0,0.0,0.0,0.0,0.0,0.0,0.0,0.0,0.0,0.0,0.0,0.0,0.0,0.0,0.0,0.0,0.0,0.0,0.0,0.0,0.0,0.0,0.0,0.0,0.0,0.0,0.0,0.0,0.0,0.0,0.0,0.0,0.0,0.0,0.0,0.0,0.0,0.0,0.0,0.0,0.0,0.0,0.0,0.0,0.0,0.0,0.0,0.0,0.0,0.0,0.0,0.0,0.0,0.0,0.0,0.0,0.0,0.0,0.0,0.0,0.0,0.0,0.0,0.0,0.0,0.0,0.0,0.0,0.0,0.0,0.0,0.0,0.0,0.0,0.0,0.0,0.0,0.0,0.0,0.0,0.0,0.0,0.0,0.0,0.0,0.0,0.0,0.0,0.0,0.0,0.0,0.0,0.0,0.0,0.0,0.0,0.0,0.0,0.0,0.0,0.0,0.0,0.0,0.0,0.0,0.0,0.0,0.0,0.0,0.0,0.0,0.0,0.0,0.0,0.0,0.0,0.0,0.0,0.0,0.0,0.0,0.0,0.0,0.0,0.0,0.0,0.0,0.0,0.0,0.0,0.0,0.0,0.0,0.0,0.0,0.0,0.0,0.0,0.0,0.0,0.0,0.0,0.0,0.0,0.0,0.0,0.0,0.0,0.0,0.0,0.0,0.0,0.0,0.0,0.0,0.0,0.0,0.0,0.0,0.0,0.0,0.0,0.0,0.0,0.0,0.0,0.0,0.0,0.0,0.0,0.0,0.0,0.0,0.0,0.0,0.0,0.0,0.0,0.0,0.0,0.0,0.0,0.0,0.0,0.0,0.0,0.0,0.0,0.0,0.0,0.0,0.0,0.0,0.0,0.0,0.0,0.0,0.0,0.0,0.0,0.0,0.0,0.0,0.0,0.0,0.0,0.0,0.0,0.0,0.0,0.0,0.0,0.0,0.0,0.0,0.0,0.0,0.0,0.0,0.0,0.0,0.0,0.0,0.0,0.0,0.0,0.0,0.0,0.0,0.0,0.0,0.0,0.0,0.0,0.0,0.0,0.0,0.0,0.0,0.0,0.0,0.0,0.0,0.0,0.0,0.0,0.0,0.0,0.0,0.0,0.0,0.0,0.0,0.0,0.0,0.0,0.0,0.0,0.0,0.0,0.0,0.0,0.0,0.0,0.0,0.0,0.0,0.0,0.0,0.0,0.0,0.0,0.0,0.0,0.0,0.0,0.0,0.0,0.0,0.0,0.0,0.0,0.0,0.0,0.0,0.0,0.0,0.0,0.0,0.0,0.0,0.0,0.0,0.0,0.0,0.0,0.0,0.0,0.0,0.0,0.0,0.0,0.0,0.0,0.0,0.0,0.0,0.0,0.0,0.0,0.0,0.0,0.0,0.0,0.0,0.0,0.0,0.0,0.0,0.0,0.0,0.0,0.0,0.0,0.0,0.0,0.0,0.0,0.0,0.0,0.0,0.0,0.0,0.0,0.0,0.0,0.0,0.0,0.0,0.0,0.0,0.0,0.0,0.0,0.0,0.0,0.0,0.0,0.0,0.0,0.0,0.0,0.0,0.0,0.0,0.0,0.0,0.0,0.0,0.0,0.0,0.0,0.0,0.0,0.0,0.0,0.0,0.0,0.0,0.0,0.0,0.0,0.0,0.0,0.0,0.0,0.0,0.0,0.0,0.0,0.0,0.0,0.0,0.0,0.0,0.0,0.0,0.0,0.0,0.0,0.0,0.0,0.0,0.0,0.0,0.0,0.0,0.0,0.0,0.0,0.0,0.0,0.0,0.0,0.0,0.0,0.0,0.0,0.0,0.0,0.0,0.0,0.0,0.0,0.0,0.0,0.0,0.0,0.0,0.0,0.0,0.0,0.0,0.0,0.0,0.0,0.0,0.0,0.0,0.0,0.0,0.0,0.0,0.0,0.0,0.0,0.0,0.0,0.0,0.0,0.0,0.0,0.0,0.0,0.0,0.0,0.0,0.0,0.0,0.0,0.0,0.0,0.0,0.0,0.0,0.0,0.0,0.0,0.0,0.0,0.0,0.0,0.0,0.0,0.0,0.0,0.0,0.0,0.0,0.0,0.0,0.0,0.0,0.0,0.0,0.0,0.0,0.0,0.0,0.0,0.0,0.0,0.0,0.0,0.0,0.0,0.0,0.0,0.0,0.0,0.0,0.0,0.0,0.0,0.0,0.0,0.0,0.0,0.0,0.0,0.0,0.0,0.0,0.0,0.0,0.0,0.0,0.0,0.0,0.0,0.0,0.0,0.0,0.0,0.0,0.0,0.0,0.0,0.0,0.0,0.0,0.0,0.0,0.0,0.0,0.0,0.0,0.0,0.0,0.0,0.0,0.0,0.0,0.0,0.0,0.0,0.0,0.0,0.0,0.0,0.0,0.0,0.0,0.0,0.0,0.0,0.0,0.0,0.0,0.0,0.0,0.0,0.0,0.0,0.0,0.0,0.0,0.0,0.0,0.0,0.0,0.0,0.0,0.0,0.0,0.0,0.0,0.0,0.0,0.0,0.0,0.0,0.0,0.0,0.0,0.0,0.0,0.0,0.0,0.0,0.0,0.0,0.0,0.0,0.0,0.0,0.0,0.0,0.0,0.0,0.0,0.0,0.0,0.0,0.0,0.0,0.0,0.0,0.0,0.0,0.0,0.0,0.0,0.0,0.0,0.0,0.0,0.0,0.0,0.0,0.0,0.0,0.0,0.0,0.0,0.0,0.0,0.0,0.0,0.0,0.0,0.0,0.0,0.0,0.0,0.0,0.0,0.0,0.0,0.0,0.0,0.0,0.0,0.0,0.0,0.0,0.0,0.0,0.0,0.0,0.0,0.0,0.0,0.0,0.0,0.0,0.0,0.0,0.0,0.0,0.0,0.0,0.0,0.0,0.0,0.0,0.0,0.0,0.0,0.0,0.0,0.0,0.0,0.0,0.0,0.0,0.0,0.0,0.0,0.0,0.0,0.0,0.0,0.0,0.0,0.0,0.0,0.0,0.0,0.0,0.0,0.0,0.0,0.0,0.0,0.0,0.0,0.0,0.0,0.0,0.0,0.0,0.0,0.0,0.0,0.0,0.0,0.0,0.0,0.0,0.0,0.0,0.0,0.0,0.0,0.0,0.0,0.0,0.0,0.0,0.0,0.0,0.0,0.0,0.0,0.0,0.0,0.0,0.0,0.0,0.0,0.0,0.0,0.0,0.0,0.0,0.0,0.0,0.0,0.0,0.0,0.0,0.0,0.0,0.0,0.0,0.0,0.0,0.0,0.0,0.0,0.0,0.0,0.0,0.0,0.0,0.0,0.0,0.0,0.0,0.0,0.0,0.0,0.0,0.0,0.0,0.0,0.0,0.0,0.0,0.0,0.0,0.0,0.0,0.0,0.0,0.0,0.0,0.0,0.0,0.0,0.0,0.0,0.0,0.0,0.0,0.0,0.0,0.0,0.0,0.0,0.0,0.0,0.0,0.0,0.0,0.0,0.0,0.0,0.0,0.0,0.0,0.0,0.0,0.0,0.0,0.0,0.0,0.0,0.0,0.0,0.0,0.0,0.0,0.0,0.0,0.0,0.0,0.0,0.0,0.0,0.0,0.0,0.0,0.0,0.0,0.0,0.0,0.0,0.0,0.0,0.0,0.0,0.0,0.0,0.0,0.0,0.0,0.0,0.0,0.0,0.0,0.0,0.0,0.0,0.0,0.0,0.0,0.0,0.0,0.0,0.0,0.0,0.0,0.0,0.0,0.0,0.0,0.0,0.0,0.0,0.0,0.0,0.0,0.0,0.0,0.0,0.0,0.0,0.0,0.0,0.0,0.0,0.0,0.0,0.0,0.0,0.0,-3.1621,0.0,0.0,0.0,0.0,0.0,0.0,0.0,0.0,0.0,0.0,0.0,0.0,0.0,0.0,0.0,0.0,0.0,0.0,0.0,0.0,0.0,0.0,0.0,0.0,-2.3445,-2.4092,-2.5064,-2.5118,-2.528,-2.5632,0.0,0.0,0.0,0.0,0.0,-2.3272,-2.2747,-2.2878,-2.3693,-2.3441,-2.3762,-2.4606,-2.527,-2.5089,-2.4279,0.0,0.0,0.0,0.0,0.0,0.0,0.0,0.0,0.0,0.0,0.0,0.0,0.0,0.0,0.0,0.0,0.0,0.0,0.0,0.0,0.0,0.0,0.0,0.0,0.0,0.0,0.0,0.0,0.0,0.0,0.0,0.0,0.0,0.0,0.0,0.0,0.0,0.0,0.0,0.0,0.0,0.0,0.0,0.0,0.0,0.0,0.0,0.0,0.0,0.0,0.0,0.0,0.0,0.0,0.0,0.0,0.0,0.0,0.0,0.0,0.0,0.0,0.0,0.0,0.0,0.0,0.0,0.0,0.0,0.0,0.0,-3.2562,0.0,0.0,0.0,0.0,0.0,0.0,0.0,0.0,0.0,0.0,0.0,0.0,0.0,0.0,0.0,0.0,0.0,0.0,0.0,0.0,0.0,-2.1572,-2.3661,-2.4021,-2.4498,-2.549,-2.5647,-2.5678,-2.5567,-2.5231,0.0,0.0,0.0,-2.292,-2.3396,-2.2623,-2.2785,-2.4002,-2.3167,-2.362,-2.522,-2.6928,-2.694,-2.5512,-2.5522,0.0,0.0,0.0,0.0,0.0,0.0,0.0,0.0,0.0,0.0,0.0,0.0,0.0,0.0,0.0,0.0,0.0,0.0,0.0,0.0,0.0,0.0,0.0,0.0,0.0,0.0,0.0,0.0,0.0,0.0,0.0,0.0,0.0,0.0,0.0,0.0,0.0,0.0,0.0,0.0,0.0,0.0,0.0,0.0,0.0,0.0,0.0,0.0,0.0,0.0,0.0,0.0,0.0,0.0,0.0,0.0,0.0,0.0,0.0,0.0,0.0,0.0,0.0,-4.0056,-4.0043,-3.926,-3.9378,-3.9334,-3.9083,-3.6275,-3.5689,-3.6514,-3.3575,0.0,0.0,0.0,0.0,0.0,0.0,0.0,0.0,0.0,0.0,0.0,0.0,0.0,0.0,0.0,0.0,0.0,0.0,0.0,-2.101,-2.1799,-2.3158,-2.4083,-2.4232,-2.4674,-2.4755,-2.4304,-2.4624,0.0,0.0,-2.4588,-2.4499,-2.455,-2.4908,-2.4731,-2.4017,-2.42,-2.487,-2.5994,-2.7278,-2.7738,-2.7478,-2.6836,-2.6524,-2.6442,0.0,0.0,0.0,0.0,0.0,0.0,0.0,0.0,0.0,0.0,0.0,0.0,0.0,0.0,0.0,0.0,0.0,0.0,0.0,0.0,0.0,0.0,0.0,0.0,0.0,0.0,0.0,0.0,0.0,0.0,0.0,0.0,0.0,0.0,0.0,0.0,0.0,0.0,0.0,0.0,0.0,-3.2255,-3.3036,0.0,0.0,0.0,0.0,0.0,0.0,0.0,0.0,0.0,0.0,0.0,0.0,0.0,-3.9264,-3.9884,-4.1731,-4.2393,-4.1866,-4.3668,-4.3877,-4.2698,-4.3287,-4.3198,-4.2623,-4.2203,0.0,-3.7258,-3.6647,0.0,0.0,0.0,0.0,0.0,0.0,0.0,0.0,0.0,0.0,0.0,0.0,0.0,0.0,0.0,0.0,0.0,0.0,0.0,0.0,0.0,-2.2854,-2.3828,-2.4374,-2.4686,-2.4596,-2.4127,-2.4025,-2.4115,-2.4463,-2.3623,-2.3423,-2.3944,-2.3888,-2.3866,-2.387,-2.5536,-2.6253,-2.613,-2.7247,-2.7797,-2.7771,-2.7426,-2.7573,-2.8013,-2.6668,0.0,0.0,0.0,0.0,0.0,0.0,0.0,0.0,0.0,0.0,0.0,0.0,0.0,0.0,0.0,0.0,0.0,0.0,0.0,0.0,0.0,0.0,0.0,0.0,0.0,0.0,0.0,0.0,0.0,0.0,0.0,0.0,0.0,0.0,0.0,0.0,0.0,0.0,0.0,-3.1898,-3.4023,-3.3544,-3.4233,-3.4053,0.0,0.0,0.0,0.0,0.0,0.0,0.0,0.0,0.0,-4.1205,-4.1863,-4.2851,-4.4257,-4.4766,-4.5065,-4.5155,-4.5633,-4.5574,-4.5005,-4.5293,-4.506,-4.4421,-4.4429,-4.3238,-4.1143,-3.9619,-3.7744,-3.5706,0.0,0.0,0.0,0.0,-3.4851,-3.4732,0.0,0.0,0.0,0.0,0.0,0.0,0.0,0.0,0.0,0.0,0.0,0.0,-2.1394,-2.2164,-2.2824,-2.3583,-2.4129,-2.4215,-2.3673,-2.3567,-2.3731,-2.4178,-2.2979,-2.2705,-2.3537,-2.3201,-2.3538,-2.4531,-2.6233,-2.6674,-2.6023,-2.7162,-2.7677,-2.7677,-2.7855,-2.8197,-2.8573,-2.713,-2.5274,-2.3245,0.0,0.0,0.0,0.0,0.0,0.0,0.0,0.0,0.0,0.0,0.0,0.0,0.0,0.0,0.0,0.0,0.0,0.0,0.0,0.0,0.0,0.0,0.0,0.0,0.0,0.0,0.0,0.0,0.0,0.0,0.0,0.0,0.0,0.0,0.0,0.0,0.0,-3.4292,-3.6058,-3.4891,-3.6656,-3.6956,0.0,0.0,0.0,0.0,0.0,0.0,-4.1534,-4.1654,-4.2791,-4.5244,-4.5334,-4.6112,-4.7788,-4.7309,-4.7309,-4.7788,-4.7309,-4.6983,-4.6794,-4.6794,-4.6463,-4.5813,-4.5813,-4.5447,-4.4629,-4.2186,-4.0338,-3.9036,-3.7892,-3.7021,-3.6567,-3.7779,-3.7903,-3.7677,0.0,0.0,0.0,0.0,0.0,0.0,0.0,0.0,0.0,0.0,0.0,-1.8792,-2.0571,-2.0583,-2.0464,-2.0515,-2.231,-2.3123,0.0,-2.3445,-2.4182,-2.4198,-2.3705,-2.366,-2.4153,-2.4397,-2.5159,-2.6556,-2.5685,-2.5397,-2.5761,-2.7016,-2.761,-2.7636,-2.8271,-2.8051,-2.7124,-2.5986,-2.4646,-2.3145,-2.1085,0.0,0.0,0.0,0.0,0.0,0.0,0.0,0.0,0.0,0.0,0.0,0.0,0.0,0.0,0.0,0.0,0.0,0.0,0.0,0.0,0.0,0.0,0.0,0.0,0.0,0.0,0.0,0.0,0.0,0.0,0.0,0.0,0.0,0.0,0.0,0.0,0.0,0.0,-3.8242,-4.0494,0.0,0.0,0.0,0.0,-4.1025,-4.1752,-4.301,-4.4945,-4.5035,-4.5992,-4.8027,-4.8087,-4.8446,-4.9209,-4.9179,-4.9179,-4.9209,-4.9179,-4.8789,-4.8196,-4.8196,-4.7826,-4.7189,-4.7189,-4.6821,-4.6027,-4.4016,-4.2406,-4.1175,-4.0479,-3.9781,-3.9273,-3.9986,-4.0223,-4.0324,0.0,0.0,0.0,0.0,0.0,-1.3772,-1.444,-1.4979,-1.5759,-1.7022,-1.7523,-1.8152,-1.9295,-1.9555,-1.9744,-2.0019,-2.0717,-2.0926,-2.034,-2.1053,-2.1788,-2.2411,-2.2183,-2.207,-2.2178,-2.2668,-2.3526,-2.4783,-2.5547,-2.6133,-2.6562,-2.6764,-2.6821,-2.685,-2.6751,-2.6387,-2.5842,-2.6216,-2.5507,-2.405,-2.2945,-2.179,0.0,0.0,0.0,0.0,0.0,0.0,0.0,0.0,0.0,0.0,0.0,0.0,0.0,0.0,0.0,0.0,0.0,0.0,0.0,0.0,0.0,0.0,0.0,0.0,0.0,0.0,0.0,0.0,0.0,0.0,0.0,0.0,0.0,0.0,0.0,0.0,0.0,-4.1003,-4.3299,0.0,-4.1773,-4.2761,-4.3838,-4.4496,-4.5574,-4.6723,-4.7832,-4.7892,-4.8386,-4.9494,-4.9553,-4.9853,-5.0511,-5.0092,-4.9883,-4.9883,-4.9464,-4.9194,-4.8953,-4.8503,-4.8143,-4.7929,-4.7516,-4.7176,-4.6851,-4.5693,-4.4434,-4.3208,-4.2524,-4.1888,-4.1317,-4.11,-4.1324,-4.1663,0.0,0.0,0.0,0.0,-1.2725,-1.3164,-1.3977,-1.4512,-1.5264,-1.6576,-1.6848,-1.7239,-1.8037,-1.8128,-1.821,-1.8472,-1.8973,-1.9129,-1.8796,-1.9272,-1.9908,-2.0552,-2.0563,-2.0706,-2.0986,-2.1543,-2.2289,-2.3319,-2.4521,-2.5205,-2.5515,-2.5716,-2.5781,-2.5629,-2.5827,-2.5703,-2.5349,-2.6148,-2.5678,-2.4258,-2.3625,-2.274,-2.1677,0.0,0.0,0.0,0.0,0.0,0.0,0.0,0.0,0.0,0.0,0.0,0.0,0.0,0.0,0.0,0.0,0.0,0.0,0.0,0.0,0.0,0.0,0.0,0.0,0.0,0.0,0.0,0.0,0.0,0.0,0.0,0.0,0.0,0.0,0.0,-4.2841,-4.3021,-4.5574,-4.6531,-4.4485,-4.5723,-4.692,-4.7565,-4.8446,-4.9224,-4.9883,-4.9912,-5.0122,-5.0495,-5.0524,-5.0734,-5.1229,-5.0734,-5.0524,-5.0524,-5.0122,-4.9823,-4.9583,-4.9134,-4.8685,-4.829,-4.7845,-4.7519,-4.7279,-4.6813,-4.5992,-4.4881,-4.4246,-4.3588,-4.2986,-4.253,-4.2518,-4.2634,0.0,0.0,0.0,-1.1765,-1.2369,-1.3114,-1.3898,-1.4429,-1.5226,-1.6564,-1.618,-1.6101,-1.6877,-1.6285,-1.5798,-1.5798,-1.7189,-1.7948,-1.7682,-1.8356,-1.8774,-1.8835,-1.9105,-1.976,-2.0752,-2.1226,-2.1764,-2.2445,-2.2499,-2.2499,-2.2568,-2.4035,-2.4519,-2.4143,-2.5597,-2.6004,-2.5616,-2.5596,-2.4858,-2.368,-2.2886,-2.2487,-2.2218,0.0,0.0,0.0,0.0,0.0,0.0,0.0,0.0,0.0,0.0,0.0,0.0,0.0,0.0,0.0,0.0,0.0,0.0,0.0,0.0,0.0,0.0,0.0,0.0,0.0,0.0,0.0,0.0,0.0,0.0,0.0,0.0,0.0,-3.772,-4.1089,-4.3675,-4.4311,-4.7252,-4.8521,-4.6565,-4.8207,-4.9583,-5.0166,-5.0226,-5.0495,-5.1199,-5.1229,-5.1229,-5.1229,-5.1229,-5.1229,-5.1229,-5.1229,-5.1229,-5.1229,-5.1229,-5.0853,-5.0226,-5.0196,-4.9553,-4.8327,-4.8297,-4.7908,-4.7309,-4.7309,-4.692,-4.6249,-4.5603,-4.4929,-4.4308,-4.4308,-4.3898,-4.329,0.0,0.0,-1.1065,-1.1065,-1.1241,-1.1644,-1.239,-1.3084,-1.3987,-1.5317,-1.5543,-1.5827,-1.6492,-1.6308,-1.6152,-1.6152,-1.6559,-1.6767,-1.6684,-1.7167,-1.799,-1.9105,-1.9113,-1.9319,-1.9785,-2.0223,-2.0833,-2.1493,-2.2493,-2.3168,-2.347,-2.3586,-2.358,-2.3446,-2.334,-2.3203,-2.3082,-2.2889,-2.2577,-2.2394,-2.3805,-2.3987,-2.335,0.0,0.0,0.0,0.0,0.0,0.0,0.0,0.0,0.0,0.0,0.0,0.0,0.0,0.0,0.0,0.0,0.0,0.0,0.0,0.0,0.0,0.0,0.0,0.0,0.0,0.0,0.0,0.0,0.0,0.0,0.0,0.0,-3.8103,-4.0101,-4.2453,-4.4394,-4.5504,-4.7741,-4.9,-4.8475,-4.9791,-5.075,-5.0883,-5.096,-5.102,-5.1199,-5.1229,-5.1229,-5.1229,-5.1229,-5.1229,-5.1229,-5.1229,-5.1229,-5.1229,-5.1229,-5.1109,-5.0883,-5.0405,-4.9793,-4.903,-4.8506,-4.7908,-4.7309,-4.7309,-4.7189,-4.6937,-4.6317,-4.5627,-4.4978,-4.4499,-4.3908,-4.329,0.0,-1.0397,-1.0397,-1.0397,-1.074,-1.1216,-1.1804,-1.2616,-1.3526,-1.4453,-1.5121,-1.563,-1.5927,-1.6074,-1.6086,-1.6086,-1.6086,-1.6032,-1.5912,-1.628,-1.7106,-1.8544,-1.8491,-1.867,-1.9184,-1.9436,-1.9873,-2.0373,-2.1204,-2.1744,-2.1983,-2.2345,-2.2435,-2.2237,-2.2473,-2.2425,-2.2261,-2.1987,-2.189,-2.1959,-2.3188,-2.357,-2.3477,-2.3711,-2.3309,-2.2616,-2.2258,-2.1803,-2.1308,-2.0948,0.0,0.0,0.0,0.0,0.0,0.0,0.0,0.0,0.0,0.0,0.0,0.0,0.0,0.0,0.0,0.0,0.0,0.0,0.0,0.0,0.0,0.0,0.0,0.0,-3.6985,-3.9702,-4.1468,-4.3168,-4.4769,-4.6307,-4.7612,-4.8339,-4.8339,-4.9063,-4.9727,-5.0335,-5.0335,-5.0603,-5.1182,-5.1229,-5.1229,-5.1229,-5.1229,-5.1229,-5.1229,-5.1229,-5.1229,-5.1229,-5.1229,-5.1229,-5.1199,-5.0794,-5.0301,-4.9643,-4.8985,-4.8327,-4.7654,-4.6845,-4.6506,0.0,0.0,0.0,0.0,0.0,-4.3269,-4.2304,0.0,-0.9909,-0.9884,-0.9806,-1.0577,-1.1301,-1.1587,-1.2464,-1.3257,-1.3807,-1.4681,-1.5276,-1.5335,-1.5578,-1.5704,-1.5731,-1.5731,-1.5604,0.0,-1.5697,-1.6361,-1.7318,-1.7622,-1.8103,-1.8905,-1.8958,-1.9105,-1.943,-1.943,-1.943,-1.943,-2.0759,-2.1154,-2.0762,-2.2104,-2.2461,-2.2103,-2.1803,-2.1679,-2.1615,-2.1534,-2.2029,-2.2822,-2.3306,-2.3185,-2.2681,-2.1939,-2.1505,-2.1144,-2.0313,0.0,0.0,0.0,0.0,0.0,0.0,0.0,0.0,0.0,0.0,0.0,0.0,0.0,0.0,0.0,0.0,0.0,0.0,0.0,0.0,0.0,0.0,0.0,0.0,-3.9295,-4.1078,-4.2162,-4.3323,-4.4731,-4.6419,-4.6785,-4.6837,-4.6837,-4.6991,-4.7605,-4.8837,-4.9112,-4.9679,-5.0698,0.0,0.0,0.0,0.0,-5.0964,-5.0964,-5.0822,-5.0917,-5.1229,-5.1058,-5.1058,-5.1229,-5.1229,-5.0823,-5.0166,-4.9613,-4.8955,-4.8148,-4.6263,-4.5355,-4.5298,-4.6447,-4.6458,-4.5664,-4.3938,-4.2318,-4.0966,0.0,-1.061,-1.0432,-0.9884,-1.0196,-1.0419,-1.0165,-1.0709,-1.1609,-1.2859,-1.3381,-1.4008,-1.4968,-1.5142,-1.5231,-1.5458,-1.5484,-1.5175,-1.4388,-1.5982,-1.6626,-1.5878,-1.766,-1.8744,-1.8918,-1.9158,-1.9363,-1.943,-1.943,-1.943,-1.943,-1.9707,-1.9781,-1.9713,-1.975,-1.9654,-1.9584,-1.9333,-1.9068,-1.887,-1.9955,-2.079,-2.1377,-2.1487,-2.1295,-2.0874,-2.0432,-2.0884,-2.1634,-2.1167,-2.1217,-2.1484,-2.1406,0.0,0.0,0.0,0.0,0.0,0.0,0.0,0.0,0.0,0.0,0.0,0.0,0.0,0.0,0.0,0.0,0.0,0.0,0.0,0.0,-3.8894,-4.0676,-4.2112,-4.2735,-4.3088,-4.3365,-4.3742,-4.4725,-4.5395,-4.5395,-4.6422,-4.7197,-4.7503,-4.8539,-4.8787,-4.7909,-4.9969,-5.0191,-4.7959,-4.9014,-4.9582,-4.9582,-4.8439,-4.9014,-5.1182,0.0,0.0,-5.1229,-5.1229,-5.0823,-5.0196,-5.0076,-4.9374,-4.8178,-4.6803,-4.5295,-4.3901,-4.4139,-4.3853,-4.3182,-4.2787,-4.1948,-4.0903,-1.1925,-1.1283,-1.0686,-1.0372,-1.0745,-1.0905,-1.0294,-1.0871,-1.1628,-1.228,-1.2744,-1.332,-1.4202,-1.4442,-1.4589,-1.4723,-1.4276,-1.4007,-1.4115,-1.4535,-1.4762,-1.4669,-1.5852,-1.699,-1.7955,-1.8093,-1.859,-1.943,-1.943,-1.943,-1.943,-1.943,-1.943,-1.9417,-1.9212,-1.9145,-1.9132,-1.8838,-1.8624,-1.8519,-1.8902,-1.9204,-1.9612,-2.0891,-2.1098,-2.0638,-2.0373,-2.052,-2.0922,-2.1203,-2.1445,-2.1712,-2.2287,-2.207,-2.1448,0.0,0.0,0.0,0.0,0.0,0.0,0.0,0.0,0.0,0.0,0.0,0.0,0.0,0.0,-3.4474,0.0,0.0,-3.8994,-4.0651,-4.1911,-4.266,-4.2936,-4.2986,-4.2986,-4.2986,-4.3602,-4.4016,-4.4016,-4.4643,-4.5608,-4.6991,-4.7094,-4.7402,-4.8139,-4.8787,-4.8539,-4.7146,-4.7757,-4.8139,-4.8139,-4.7453,-4.7757,-4.9161,-4.8489,-4.8489,-4.9161,-4.9161,-4.8989,-4.8623,-4.8307,-4.7616,-4.6649,-4.4769,-4.3058,-4.1591,-4.1599,-4.1767,-4.2019,-4.2018,-4.1132,-3.9828,-1.2915,-1.1999,-1.1166,-1.1015,-1.1594,-1.1847,-1.1048,-1.1601,-1.2113,-1.2054,-1.2398,-1.2837,-1.336,-1.3734,-1.3961,-1.4082,-1.325,-1.294,-1.361,-1.2976,-1.2826,-1.3448,-1.4011,-1.4993,-1.6492,-1.655,-1.7325,-1.8939,-1.8939,-1.9068,-1.943,-1.943,-1.943,-1.943,-1.943,-1.943,-1.9359,-1.9118,-1.8971,-1.8878,-1.8288,-1.8049,-1.8212,-2.0086,-2.061,-2.0224,-1.9924,-1.9718,-1.9694,-2.0616,-2.1123,-2.1525,-2.2731,-2.2867,-2.248,-2.1678,-2.1385,0.0,0.0,0.0,0.0,0.0,0.0,0.0,0.0,0.0,-3.2947,-3.5462,-3.631,-3.7213,-3.917,-3.9873,-4.0651,-4.2137,-4.274,-4.2986,-4.2986,-4.2986,-4.2986,-4.2986,-4.2986,-4.2986,-4.2986,-4.2986,-4.3907,-4.6135,-4.5502,-4.5872,-4.7859,-4.7402,-4.6837,-4.6317,-4.6526,-4.6682,-4.6682,-4.6422,-4.6578,-4.7094,-4.6837,-4.6837,-4.7094,-4.7094,-4.7094,-4.7067,-4.6298,-4.5541,-4.477,-4.2515,-4.0844,-3.9697,-3.9697,-4.0312,-4.1212,-4.1234,-4.0338,-3.8943,0.0,-1.2774,-1.2461,-1.1789,-1.2298,-1.2557,-1.1875,-1.1824,-1.2032,-1.2549,-1.2249,-1.2221,-1.2824,-1.312,-1.352,-1.4041,-1.3422,-1.2705,-1.2173,-1.2798,-1.2869,-1.2051,-1.3635,-1.4638,-1.4837,-1.4896,-1.5666,-1.7267,-1.7267,-1.7981,-1.943,-1.943,-1.943,-1.943,-1.943,-1.943,-1.9417,-1.939,-1.9158,-1.8891,-1.8571,-1.829,-1.7983,-1.7773,-1.7681,-1.7561,-1.7246,-1.7618,-1.8436,-1.9382,-2.0387,-2.1525,-2.2731,-2.3062,-2.2925,-2.25,0.0,-2.1838,-2.1802,-2.2327,-2.3301,-2.4938,-2.6343,-2.8614,0.0,0.0,-3.6293,-3.9863,-4.0598,-4.0902,-4.171,-4.1886,-4.2162,-4.2785,-4.2936,-4.2986,-4.2986,-4.2986,-4.2986,-4.2986,-4.2986,-4.2986,-4.2986,-4.2986,-4.3129,-4.3436,-4.4427,-4.4643,-4.3768,-4.5872,-4.5978,-4.3547,-4.4643,-4.5262,-4.5262,-4.4071,-4.4671,-4.7094,-4.582,-4.5872,-4.7094,-4.7094,-4.7094,-4.7039,-4.5907,-4.4706,-4.3535,-4.2166,-4.0844,-3.9697,-3.9697,-3.9775,-3.9904,-3.9902,-3.9775,-3.9447,0.0,-1.2915,-1.2798,-1.2486,-1.3091,-1.3442,-1.2965,-1.3075,-1.3174,-1.3122,-1.2487,-1.2281,-1.292,-1.2804,-1.2919,-1.352,-1.224,-1.145,-1.1639,-1.0993,-1.0563,-1.0394,-1.1224,-1.2167,-1.3168,-1.3228,-1.4004,-1.5607,-1.655,-1.7325,-1.804,-1.8939,-1.943,-1.943,-1.943,-1.943,-1.943,-1.943,-1.9199,-1.8905,-1.8611,-1.8196,-1.7782,-1.8114,-1.8024,-1.7598,-1.6783,-1.6709,0.0,0.0,-1.9861,-2.0584,-2.2492,-2.2925,-2.2734,-2.2559,-2.2559,0.0,-2.3848,-2.457,-2.5254,0.0,-2.7905,-3.0086,-3.276,-3.4911,-3.7111,-3.9867,-4.1181,-4.1982,-4.259,-4.269,-4.2766,0.0,-4.2986,-4.2986,-4.2986,-4.2986,-4.2861,-4.259,-4.2841,-4.2986,-4.2986,-4.2986,-4.3351,-4.4126,-4.3962,-4.3907,-4.418,-4.4535,-4.4155,-4.3042,-4.3547,-4.3852,-4.3852,-4.3295,-4.3602,-4.4725,-4.4126,-4.4126,-4.4725,-4.4725,-4.4725,-4.4699,-4.3887,-4.2969,-4.2107,-4.1285,-4.0465,-3.9697,-3.9697,-3.9697,-3.9697,-3.9697,-3.9697,-3.9521,0.0,-1.2915,-1.2935,-1.3052,-1.3627,-1.4022,-1.3756,-1.4005,-1.4063,-1.3667,-1.3108,-1.2846,-1.3214,-1.268,-1.2545,-1.316,-1.1664,-1.0915,-1.1414,-1.0079,-0.9256,-0.9245,-0.9442,-1.0139,-1.1423,-1.1491,-1.2286,-1.3944,-1.5133,-1.6138,-1.702,-1.8169,-1.8952,-1.943,-1.943,-1.943,-1.9359,-1.9279,-1.9118,-1.8891,-1.8517,-1.805,-1.7699,-1.8534,-1.8256,-1.7423,-1.6862,-1.6615,0.0,0.0,-1.8893,-1.9541,-2.1565,-2.2268,-2.2383,-2.2617,-2.3023,-2.3744,-2.5176,-2.6055,0.0,-2.7383,-2.9073,-3.0949,-3.2133,-3.4195,-3.6657,-3.9093,-4.0512,-4.1618,-4.2579,-4.2816,-4.2866,-4.2961,-4.2986,-4.2986,-4.2986,-4.2986,-4.2891,-4.2489,-4.2791,-4.2986,-4.2986,-4.2986,-4.3381,-4.4372,-4.3547,-4.3436,-4.4427,-4.3547,-4.2986,-4.2986,-4.2986,-4.2986,-4.2986,-4.2986,-4.2986,-4.2986,-4.2986,-4.2986,-4.2986,-4.2986,-4.2986,-4.2936,-4.2439,-4.1932,-4.1505,-4.0802,-4.0275,-3.9898,-3.9747,-3.9697,-3.9697,-3.9697,-3.9697,-3.9546,0.0,0.0,-1.3008,-1.3418,-1.3821,-1.4114,-1.4107,-1.4137,-1.4183,-1.4172,-1.4113,-1.3942,-1.3699,-1.2842,-1.2545,-1.316,-1.2468,-1.1827,-1.134,-1.0877,-1.0124,-0.8947,-0.9232,-0.9521,-0.9671,-0.9678,-1.0509,-1.2277,-1.2337,-1.3935,-1.702,-1.7032,-1.7923,-1.943,-1.943,-1.943,-1.9403,-1.9065,-1.8931,-1.8878,-1.8235,-1.7862,-1.766,-1.8255,-1.7414,-1.6035,-1.7232,0.0,0.0,-1.6573,-1.729,-1.8605,-1.959,-2.0828,0.0,-2.2847,-2.3666,-2.4473,-2.4961,-2.6016,-2.7305,-2.8555,-2.9512,-3.0866,-3.3267,-3.3938,-3.4983,-3.8427,-3.9157,-3.9792,-4.1838,-4.2238,-4.2414,-4.2942,-4.2986,-4.2986,-4.2986,-4.2986,-4.2961,-4.2961,-4.2961,-4.2986,0.0,-4.2986,-4.3042,-4.3073,-4.3042,-4.3042,-4.3073,-4.3042,-4.2986,-4.2986,-4.2986,-4.2986,-4.2986,-4.2986,-4.2986,-4.2986,-4.2986,-4.2986,-4.2986,-4.2986,-4.2986,-4.2936,-4.2439,-4.2213,-4.2112,-4.0953,-4.0501,-4.045,-3.9898,-3.9697,-3.9697,-3.9697,-3.9697,-3.9622,0.0,0.0,0.0,-1.3821,-1.4277,-1.457,-1.457,-1.4811,-1.487,-1.4574,-1.4439,0.0,0.0,0.0,0.0,0.0,-1.2634,-1.1986,-1.2275,-1.1697,-1.1331,-1.1389,-1.072,-1.0932,-1.2012,-1.0381,-1.023,-1.1728,-1.1845,-1.295,-1.4959,-1.6218,-1.7592,-1.9078,-1.9078,-1.9078,-1.9052,-1.8758,-1.8744,-1.8851,-1.8063,-1.7675,-1.7659,-1.8074,-1.76,-1.6762,0.0,0.0,0.0,-1.6989,-1.7751,-1.8499,-2.0555,0.0,0.0,-2.291,-2.3965,-2.5059,-2.6094,-2.75,-2.8945,-2.998,-3.0664,-3.1329,-3.2495,-3.3358,-3.428,-3.5772,-3.6432,-3.7081,-3.8114,-3.9194,-3.9989,-4.047,-4.1905,-4.2986,-4.2986,-4.2986,-4.2891,-4.2539,-4.276,0.0,0.0,0.0,0.0,-4.2986,-4.2986,-4.2986,-4.2986,-4.2986,-4.2986,-4.2986,-4.2986,-4.2986,-4.2986,-4.2986,-4.2986,-4.2986,-4.2986,-4.2986,-4.2986,-4.2986,-4.2986,-4.2961,-4.2841,-4.2539,-4.2162,-4.1354,-4.0852,-4.045,-3.9898,-3.9697,-3.9697,-3.9697,-3.9697,-3.9622,0.0,0.0,0.0,0.0,0.0,0.0,0.0,0.0,0.0,0.0,0.0,0.0,0.0,0.0,0.0,0.0,0.0,-1.2837,-1.3033,-1.2466,-1.2155,-1.225,-1.1524,-1.17,-1.3029,-1.1292,-1.0939,-1.1954,-1.2075,-1.2955,-1.4551,-1.5772,-1.7209,-1.8771,-1.8771,-1.8771,-1.8744,-1.8343,-1.8277,-1.837,-1.7582,-1.7208,-1.7214,-1.7851,-1.7472,0.0,0.0,0.0,-1.4636,-1.6433,-1.7457,-1.833,-2.0313,-2.1684,-2.2715,-2.3398,-2.4629,-2.6074,-2.7539,-2.8848,-3.0039,-3.1094,-3.1426,-3.1582,-3.1875,-3.2253,-3.2798,-3.3586,-3.3754,-3.4146,-3.5305,-3.6654,-3.7825,-3.8605,-4.0641,-4.2233,-4.269,-4.274,-4.269,-4.2514,-4.276,-4.2836,0.0,0.0,0.0,-4.2986,-4.2986,-4.2986,-4.2986,-4.2986,-4.2986,-4.2986,-4.2986,-4.2986,-4.2986,-4.2986,-4.2986,-4.2986,-4.2986,-4.2986,-4.2986,-4.2986,-4.2986,-4.2986,-4.2986,-4.2785,-4.2439,-4.1656,-4.1075,-4.0727,-3.9998,-3.9697,-3.9697,-3.9697,-3.9697,-3.9647,0.0,0.0,0.0,0.0,0.0,0.0,0.0,0.0,0.0,0.0,0.0,0.0,0.0,0.0,0.0,0.0,0.0,0.0,-1.3754,-1.3253,-1.2744,-1.2062,-1.1871,-1.2134,-1.2818,-1.2481,-1.2486,-1.2901,-1.2793,-1.3769,-1.5643,-1.5666,-1.663,-1.8424,-1.8424,-1.8424,-1.8384,-1.7782,-1.7555,-1.7528,-1.6927,-1.654,-1.6486,-1.7548,0.0,0.0,0.0,0.0,0.0,-1.5124,-1.6683,0.0,0.0,-2.1532,-2.3984,-2.4453,-2.5801,-2.75,-2.916,-2.9961,-3.0625,-3.1894,-3.1875,-3.1543,-3.1523,-3.082,-3.0534,-3.1892,-3.1188,-3.0995,0.0,0.0,-3.575,-3.7249,-3.9153,-4.0871,-4.1978,-4.2183,-4.2439,0.0,0.0,0.0,0.0,0.0,0.0,-4.2986,0.0,-4.2986,-4.2986,-4.2986,-4.2986,-4.2986,-4.2986,-4.2986,-4.2986,-4.2986,-4.2986,-4.2986,-4.2986,-4.2986,-4.2986,-4.2986,-4.2986,-4.2986,-4.2986,-4.2986,-4.2886,-4.1831,-4.13,-4.1175,-4.0149,-3.9722,-3.9697,-3.9697,-3.9697,-3.9697,0.0,0.0,0.0,0.0,0.0,0.0,0.0,0.0,0.0,0.0,0.0,0.0,0.0,0.0,0.0,0.0,0.0,0.0,-1.6302,-1.6122,-1.6176,-1.6536,-1.5966,-1.5852,-1.623,-1.4562,-1.3835,-1.4126,-1.3029,-1.3268,-1.4798,-1.5036,-1.602,-1.7541,-1.7541,-1.7541,-1.7527,-1.7088,-1.7181,-1.7515,0.0,-1.6656,-1.6911,0.0,0.0,0.0,0.0,0.0,0.0,0.0,0.0,0.0,0.0,-2.4346,-2.5449,-2.6523,-2.7832,-2.9082,-2.9824,-3.1055,-3.2207,-3.2559,-3.2324,-3.1914,-3.1601,-3.0586,-2.9662,-2.9376,-2.8309,-2.7623,0.0,0.0,0.0,-3.3319,-3.7231,0.0,-4.0901,-4.204,0.0,-4.2961,0.0,-4.2986,-4.2986,-4.2986,0.0,0.0,-4.2986,-4.2986,-4.2986,-4.2986,-4.2986,-4.2986,-4.2986,-4.2986,-4.2986,-4.2986,-4.2986,-4.2986,-4.2986,-4.2986,-4.2986,-4.2986,-4.2986,-4.2986,-4.2986,-4.2986,-4.2936,-4.2233,-4.1706,-4.1225,-4.0576,-4.0049,-3.9697,-3.9697,-3.9697,-3.9697,0.0,0.0,0.0,0.0,0.0,0.0,0.0,0.0,0.0,0.0,0.0,0.0,0.0,0.0,0.0,0.0,0.0,0.0,0.0,-1.7286,-1.7335,-1.7989,-1.7494,-1.7365,-1.7809,-1.6126,-1.536,-1.5638,-1.4445,-1.4377,-1.5295,-1.5507,-1.6049,-1.7005,-1.7005,-1.7005,-1.6941,-1.6633,0.0,0.0,0.0,0.0,0.0,0.0,0.0,0.0,0.0,0.0,0.0,0.0,0.0,-2.3881,-2.5234,-2.6074,-2.6836,-2.8125,0.0,-3.0566,-3.1172,-3.2187,-3.3027,-3.2832,-3.248,-3.1894,-3.0898,-2.9805,-2.8711,-2.7676,-2.6426,0.0,-2.5781,-2.7774,0.0,0.0,0.0,0.0,-3.9036,-3.9949,-4.064,0.0,-4.1533,0.0,-4.1955,-4.2625,-4.2986,0.0,-4.2986,-4.2986,-4.2986,-4.2986,-4.2986,-4.2986,-4.2986,-4.2986,-4.2986,-4.2986,-4.2986,-4.2986,-4.2986,-4.2986,-4.2986,-4.2986,-4.2986,-4.2986,0.0,-4.2986,-4.2936,-4.2439,-4.1831,-4.1225,-4.0727,-4.0174,-3.9697,-3.9697,-3.9697,-3.9697,0.0,0.0,0.0,0.0,0.0,0.0,0.0,0.0,0.0,0.0,0.0,0.0,0.0,0.0,0.0,0.0,0.0,0.0,0.0,0.0,-1.7706,-1.8153,-1.7917,-1.7986,-1.8324,-1.7352,-1.6861,-1.6966,-1.6123,-1.5845,-1.6147,-1.6147,0.0,0.0,0.0,0.0,0.0,0.0,0.0,0.0,0.0,0.0,0.0,0.0,0.0,0.0,0.0,0.0,0.0,0.0,-2.2636,-2.4902,-2.623,-2.7266,-2.8295,-2.9473,-3.0703,-3.1855,-3.2656,-3.3144,-3.332,-3.2891,-3.2441,-3.1621,-2.9883,-2.8769,-2.7734,-2.6406,0.0,-2.4434,-2.4746,-2.6209,-2.7986,-2.991,0.0,-3.4858,-3.6875,-3.7339,-3.7694,-3.8179,-3.9474,-4.0374,-4.0303,-4.1777,-4.2644,-4.2375,-4.2569,-4.2793,-4.2986,-4.2986,-4.2986,-4.2986,-4.2986,-4.2986,-4.2986,-4.2986,-4.2986,-4.2986,-4.2986,-4.2986,-4.2986,-4.2986,-4.2986,-4.2986,-4.2986,0.0,-4.2936,-4.2514,-4.1907,-4.1225,-4.0802,-4.0249,-3.9697,-3.9697,-3.9697,-3.9697,0.0,0.0,0.0,0.0,0.0,0.0,0.0,0.0,0.0,0.0,-1.8924,0.0,0.0,0.0,0.0,0.0,0.0,0.0,0.0,0.0,0.0,-2.0116,-2.0381,-2.0105,-1.9212,-1.8472,-1.7616,-1.6669,-1.5656,-1.5182,-1.5236,-1.5236,0.0,0.0,0.0,0.0,0.0,0.0,0.0,0.0,0.0,0.0,0.0,0.0,0.0,0.0,0.0,0.0,0.0,-2.0719,-2.343,-2.6269,-2.7559,-2.8789,-2.9941,-3.0898,-3.1836,-3.2676,-3.3184,-3.3359,-3.332,-3.2891,-3.2207,-3.1172,-2.9434,-2.8105,0.0,0.0,-2.4297,-2.3809,-2.3471,-2.4579,-2.6229,-2.8351,-3.1071,-3.3649,-3.5788,-3.7194,-3.8134,0.0,-3.8762,-3.9032,-3.8684,-4.0388,0.0,0.0,0.0,-4.1615,-4.2905,-4.2986,-4.2986,-4.2986,-4.2986,-4.2986,-4.2986,-4.2986,-4.2986,-4.2986,-4.2986,-4.2986,-4.2986,-4.2986,-4.2986,-4.2986,-4.2986,0.0,-4.2961,-4.2861,-4.2233,-4.1275,-4.1175,-4.0576,-3.9697,-3.9697,-3.9697,-3.9697,0.0,0.0,0.0,0.0,0.0,0.0,0.0,0.0,0.0,0.0,-2.2382,-2.1445,0.0,0.0,0.0,0.0,0.0,0.0,0.0,0.0,0.0,0.0,-2.0762,-2.0345,-1.9227,-1.8464,0.0,0.0,0.0,0.0,0.0,0.0,0.0,0.0,0.0,0.0,0.0,0.0,0.0,0.0,0.0,0.0,0.0,0.0,0.0,0.0,0.0,0.0,0.0,0.0,-2.225,-2.5149,-2.7324,-2.8691,-2.9746,-3.0859,-3.1797,-3.2598,-3.3242,-3.3418,-3.3262,-3.2637,-3.1992,-3.0879,-2.8476,0.0,0.0,0.0,-2.3594,-2.3379,-2.314,-2.4004,0.0,-2.6719,-2.8713,-3.0811,-3.293,-3.4095,0.0,-3.562,-3.6865,-3.7551,0.0,0.0,0.0,0.0,0.0,-3.9698,-4.0476,-4.0476,-4.0476,-4.0476,-4.1305,-4.1728,-4.1728,-4.2569,-4.2986,-4.2986,-4.2986,-4.2986,-4.2986,-4.2986,-4.2986,-4.2986,-4.2986,0.0,-4.2986,-4.2986,-4.2484,-4.1731,-4.1401,-4.0852,-4.0099,-3.9798,-3.9521,-3.9295,0.0,0.0,0.0,0.0,0.0,0.0,0.0,-2.2211,-2.3272,-2.5804,-2.5604,-2.5127,-2.4696,-2.3957,-2.3595,0.0,0.0,0.0,0.0,0.0,0.0,0.0,0.0,-2.0079,-1.9036,0.0,0.0,0.0,0.0,0.0,0.0,0.0,0.0,0.0,0.0,0.0,0.0,0.0,0.0,0.0,0.0,0.0,0.0,0.0,0.0,0.0,0.0,0.0,0.0,0.0,-2.0523,-2.3087,-2.5781,-2.7524,-2.8887,-3.0117,-3.1211,-3.2207,-3.3066,-3.3359,-3.3223,-3.2383,-3.1699,-3.0488,-2.7656,-2.6543,0.0,0.0,-2.3101,-2.3101,-2.3101,-2.3647,-2.4446,0.0,-2.666,-2.8256,-3.0566,-3.125,-3.1992,0.0,-3.4992,0.0,-3.5996,0.0,0.0,0.0,0.0,0.0,-3.8164,-3.8223,-3.8223,-3.8223,-3.9405,-4.0129,-4.0129,-4.1362,-4.1955,-4.1955,-4.1955,-4.1955,-4.1955,-4.2319,-4.2488,-4.2513,-4.2849,0.0,0.0,-4.2986,-4.2715,-4.2162,-4.1555,-4.0949,-4.0425,-3.9772,-3.9245,-3.8969,0.0,0.0,0.0,0.0,0.0,0.0,0.0,-2.316,-2.4611,-2.6862,-2.7515,-2.7741,-2.7691,-2.642,-2.5372,0.0,0.0,0.0,0.0,0.0,0.0,0.0,0.0,0.0,0.0,0.0,0.0,0.0,0.0,0.0,0.0,0.0,0.0,0.0,0.0,0.0,0.0,0.0,0.0,0.0,0.0,0.0,0.0,0.0,0.0,0.0,0.0,0.0,0.0,0.0,0.0,-2.0725,-2.2524,-2.5251,-2.7949,-2.8848,0.0,0.0,-3.2617,-3.3125,-3.3223,-3.2383,-3.123,-2.9746,-2.7519,0.0,0.0,-2.3374,-2.3101,-2.3101,-2.3101,-2.3159,-2.3764,-2.5421,0.0,-2.7539,-3.0469,-3.125,-3.1992,-3.3262,0.0,0.0,0.0,0.0,0.0,0.0,0.0,0.0,-3.8045,-3.8223,-3.8223,-3.8223,-3.8342,-3.8402,-3.8402,-3.858,-3.8639,-3.8639,-3.8639,-3.8639,-3.8698,-4.0187,-4.0822,-4.0904,-4.2375,0.0,0.0,-4.2986,-4.2715,-4.2162,-4.1555,-4.0949,-4.04,-3.932,-3.8969,-3.8844,0.0,0.0,0.0,0.0,0.0,0.0,0.0,-2.317,-2.4506,-2.7394,-2.7971,-2.8222,-2.8574,-2.7742,-2.6856,0.0,0.0,0.0,0.0,0.0,0.0,0.0,0.0,0.0,0.0,0.0,0.0,0.0,0.0,0.0,0.0,0.0,0.0,0.0,0.0,0.0,0.0,0.0,0.0,0.0,0.0,0.0,0.0,0.0,0.0,0.0,0.0,0.0,0.0,0.0,0.0,0.0,-1.9995,-2.2171,0.0,0.0,-2.8768,-3.0161,-3.1307,-3.2148,-3.2519,-3.1934,-3.0586,-2.9004,-2.7383,0.0,-2.4394,-2.3315,-2.3101,-2.3101,-2.3101,-2.3101,-2.3315,-2.4017,-2.4531,-2.5527,-2.7519,-2.8828,-3.0156,-3.1719,-3.334,0.0,0.0,0.0,0.0,0.0,0.0,0.0,-3.5232,-3.5294,-3.5294,-3.5294,-3.6234,-3.676,-3.676,-3.7746,-3.8223,-3.8223,-3.8223,-3.8223,-3.8223,-3.8876,-3.9698,-4.065,-4.1305,0.0,0.0,-4.2986,-4.2836,-4.2665,-4.2032,-4.1505,-4.0874,-4.0149,-3.922,-3.8366,0.0,0.0,0.0,0.0,0.0,0.0,-2.2543,-2.2815,-2.3825,-2.6766,-2.7103,-2.7212,-2.7673,-2.7557,-2.7162,-2.6569,0.0,0.0,0.0,0.0,0.0,0.0,0.0,0.0,0.0,0.0,0.0,0.0,0.0,0.0,0.0,0.0,0.0,0.0,0.0,0.0,0.0,0.0,0.0,0.0,0.0,0.0,0.0,0.0,0.0,0.0,0.0,0.0,0.0,0.0,0.0,0.0,0.0,0.0,0.0,0.0,-2.7207,-2.8663,-3.0101,-3.1035,-3.1504,-3.1211,-2.9824,-2.8223,0.0,-2.5391,-2.4023,-2.3257,-2.3101,-2.3101,-2.3101,-2.3101,-2.3101,-2.3101,-2.3496,-2.4336,-2.5849,-2.7266,-2.8809,0.0,0.0,-3.3418,0.0,0.0,0.0,0.0,0.0,0.0,-3.3418,-3.3418,-3.3418,-3.3418,-3.4487,-3.5088,-3.5088,-3.6234,-3.6781,-3.6781,-3.6781,-3.6781,-3.6781,-3.7265,-3.8082,-3.9206,-3.9698,0.0,0.0,-4.1785,-4.1842,-4.227,-4.1725,-4.0924,-4.0074,-3.9558,-3.8445,-3.713,0.0,0.0,0.0,0.0,0.0,0.0,0.0,-2.2061,-2.267,-2.4755,-2.4728,-2.465,-2.4976,-2.5503,-2.6004,-2.6477,0.0,0.0,0.0,0.0,0.0,0.0,0.0,0.0,0.0,0.0,0.0,0.0,0.0,0.0,0.0,0.0,0.0,0.0,0.0,0.0,0.0,0.0,0.0,0.0,0.0,0.0,0.0,0.0,0.0,0.0,0.0,0.0,0.0,0.0,0.0,0.0,0.0,0.0,0.0,0.0,-2.5684,-2.7422,-2.9121,-2.9902,-3.0215,-3.0215,-2.8945,-2.7344,-2.6005,-2.4727,-2.3672,-2.3179,-2.3101,-2.3101,-2.3101,-2.3101,-2.3101,-2.3101,-2.3496,-2.4551,-2.6699,-2.7383,0.0,0.0,0.0,-3.1875,0.0,0.0,0.0,0.0,0.0,0.0,-3.3418,-3.3418,-3.3418,-3.3418,-3.3418,-3.3418,-3.3418,-3.3418,-3.3418,-3.3418,-3.3418,-3.3418,-3.3481,-3.5088,-3.5806,0.0,0.0,0.0,0.0,-3.8935,-3.917,-4.0544,-4.0021,-3.8815,-3.7411,-3.6972,-3.6101,-3.4866,0.0,0.0,0.0,0.0,0.0,0.0,0.0,-2.0188,-2.0633,-2.2441,-2.3094,-2.3717,-2.4566,-2.5672,-2.6423,-2.6552,0.0,0.0,0.0,0.0,0.0,0.0,0.0,0.0,0.0,0.0,0.0,0.0,0.0,0.0,0.0,0.0,0.0,0.0,0.0,0.0,0.0,0.0,0.0,0.0,0.0,0.0,0.0,0.0,0.0,0.0,0.0,0.0,0.0,0.0,0.0,0.0,0.0,0.0,0.0,-2.2629,-2.4326,0.0,-2.6676,-2.748,-2.8027,-2.8027,-2.6953,-2.583,-2.5371,-2.4277,-2.3257,-2.312,-2.3101,-2.3101,-2.3101,-2.3101,-2.3296,-2.3881,-2.4121,0.0,0.0,0.0,0.0,-2.9863,-3.166,-3.3047,0.0,0.0,0.0,0.0,0.0,0.0,-3.3418,-3.3418,-3.3418,-3.3418,-3.3418,-3.3418,-3.3418,-3.3418,-3.3418,-3.3418,-3.3418,-3.3418,-3.3418,-3.3902,-3.4736,0.0,0.0,0.0,0.0,-3.8402,-3.8521,-3.8912,-3.8752,-3.7982,-3.6901,-3.6781,-3.5821,-3.4531,0.0,0.0,0.0,0.0,0.0,0.0,0.0,-1.8857,-1.91,-2.0533,-2.1224,-2.1925,-2.2924,-2.4285,-2.5463,-2.624,0.0,0.0,0.0,0.0,0.0,0.0,0.0,0.0,0.0,0.0,0.0,-2.1987,-2.1525,0.0,0.0,0.0,0.0,0.0,0.0,0.0,0.0,0.0,0.0,0.0,0.0,0.0,0.0,0.0,0.0,0.0,0.0,0.0,0.0,0.0,0.0,0.0,0.0,0.0,0.0,0.0,-2.2796,-2.4311,-2.5245,-2.5879,-2.6328,-2.6484,-2.5664,-2.4785,-2.4629,-2.3828,-2.3101,-2.3101,-2.3101,-2.3101,-2.3101,-2.3101,-2.3276,-2.3803,-2.4062,0.0,0.0,0.0,0.0,-2.9941,0.0,0.0,0.0,0.0,0.0,0.0,0.0,0.0,-3.3418,-3.3418,-3.3418,-3.3418,-3.3418,-3.3418,-3.3418,-3.3418,-3.3418,-3.3418,-3.3418,-3.3418,-3.3418,-3.3418,-3.3965,0.0,0.0,0.0,0.0,-3.666,-3.6721,-3.7303,-3.7128,-3.6335,-3.5243,-3.5519,-3.4653,-3.3253,0.0,0.0,0.0,0.0,0.0,0.0,0.0,0.0,0.0,0.0,-1.9198,-1.9551,-2.0429,-2.1839,-2.3502,0.0,0.0,0.0,0.0,0.0,0.0,0.0,0.0,0.0,0.0,-2.2672,-2.3101,-2.3101,-2.1917,-2.0709,-1.9484,0.0,0.0,0.0,0.0,0.0,0.0,0.0,0.0,0.0,0.0,0.0,0.0,0.0,0.0,0.0,0.0,0.0,0.0,0.0,0.0,0.0,0.0,0.0,0.0,0.0,0.0,0.0,0.0,-2.4891,-2.5008,-2.5382,-2.4855,-2.418,-2.3828,-2.3437,0.0,-2.3101,-2.3101,-2.3101,-2.314,-2.312,-2.312,-2.3218,-2.3652,0.0,0.0,-2.7376,0.0,0.0,-3.1758,0.0,0.0,0.0,0.0,0.0,0.0,0.0,-3.3418,-3.3418,-3.3418,-3.3418,-3.3418,-3.3418,-3.3418,-3.3418,-3.3418,-3.3418,-3.3418,-3.3418,-3.3418,-3.3418,-3.3418,0.0,0.0,0.0,0.0,-3.4007,-3.4258,-3.558,-3.5202,-3.4126,-3.2821,-3.3461,-3.2802,-3.1348,0.0,0.0,0.0,0.0,0.0,0.0,0.0,0.0,0.0,0.0,0.0,-1.9004,-1.9531,-2.1814,0.0,0.0,0.0,0.0,0.0,0.0,0.0,0.0,0.0,0.0,0.0,-2.2828,-2.3101,-2.3101,-2.2142,-2.1037,-1.9769,-1.8778,0.0,0.0,0.0,0.0,0.0,0.0,0.0,0.0,0.0,0.0,0.0,0.0,0.0,0.0,0.0,-1.515,0.0,0.0,0.0,0.0,0.0,0.0,0.0,0.0,-2.0825,-2.1367,-2.2384,0.0,-2.2812,-2.351,-2.3315,-2.3027,0.0,-2.3159,-2.3101,-2.3101,-2.3101,-2.3198,-2.3574,-2.3315,-2.3457,-2.4453,0.0,0.0,-2.7168,0.0,0.0,-3.2207,-3.2812,0.0,0.0,0.0,0.0,0.0,0.0,-3.3418,-3.3418,-3.3418,-3.3418,-3.3418,-3.3418,-3.3418,-3.3418,-3.3418,-3.3418,-3.3418,-3.3418,-3.3418,-3.3418,-3.3418,-3.3418,0.0,0.0,0.0,-3.3965,-3.3544,-3.3587,-3.3905,-3.355,-3.2947,-3.2307,-3.2117,-3.1643,-3.0957,0.0,0.0,0.0,0.0,0.0,0.0,0.0,0.0,0.0,0.0,0.0,0.0,0.0,0.0,0.0,0.0,0.0,0.0,0.0,0.0,0.0,0.0,0.0,0.0,0.0,-2.2886,-2.3198,0.0,0.0,-2.1264,0.0,0.0,0.0,0.0,0.0,0.0,0.0,0.0,0.0,0.0,0.0,0.0,0.0,0.0,0.0,0.0,-1.4603,-1.475,0.0,-1.5022,-1.5257,-1.5698,0.0,0.0,0.0,0.0,-1.8999,-1.9664,-2.0615,-2.1659,-2.2578,-2.2984,-2.3125,-2.3164,-2.3379,-2.3237,-2.295,-2.2403,-2.2731,-2.3027,-2.2706,-2.3082,-2.3506,0.0,-2.4365,0.0,0.0,0.0,-3.1836,-3.2695,0.0,0.0,0.0,0.0,0.0,0.0,0.0,-3.3418,-3.3418,-3.3418,-3.3418,-3.3418,-3.3418,-3.3418,-3.3418,-3.3418,-3.3418,-3.3418,-3.3418,-3.3418,-3.3418,-3.3418,-3.3418,0.0,0.0,0.0,-3.3418,-3.3418,-3.3418,-3.3379,-3.2969,-3.2656,-3.2402,-3.1973,-3.1543,-3.1172,0.0,0.0,0.0,0.0,0.0,0.0,0.0,0.0,0.0,0.0,0.0,0.0,0.0,0.0,0.0,0.0,0.0,0.0,0.0,0.0,0.0,0.0,0.0,0.0,-2.2598,0.0,0.0,0.0,0.0,0.0,0.0,0.0,-1.7363,0.0,0.0,0.0,0.0,0.0,0.0,0.0,0.0,0.0,0.0,0.0,0.0,0.0,0.0,0.0,0.0,-1.4763,-1.5084,-1.5378,-1.5284,0.0,0.0,0.0,0.0,0.0,-1.9041,-2.0948,-2.2643,-2.2698,-2.3094,-2.3358,-2.3178,-2.2847,-2.2271,-2.1257,-2.1854,0.0,0.0,-2.2316,0.0,0.0,0.0,0.0,-2.7369,-2.9968,-3.1852,0.0,0.0,0.0,0.0,0.0,0.0,0.0,0.0,-3.3418,-3.3418,-3.3418,-3.3418,-3.3418,-3.3418,-3.3418,-3.3418,-3.3418,-3.3418,-3.3418,-3.3418,-3.3418,-3.3418,-3.3418,-3.3418,-3.3418,0.0,0.0,-3.3418,-3.3418,-3.3418,-3.3379,-3.2969,-3.2793,-3.2734,-3.2324,-3.1934,-3.168,0.0,0.0,0.0,0.0,0.0,0.0,0.0,0.0,0.0,0.0,0.0,0.0,0.0,0.0,0.0,0.0,0.0,0.0,0.0,0.0,0.0,0.0,0.0,-2.2804,-2.2984,0.0,0.0,0.0,0.0,0.0,-1.8803,-1.7809,-1.6941,-1.6308,0.0,0.0,0.0,0.0,0.0,0.0,0.0,0.0,0.0,0.0,0.0,0.0,0.0,0.0,0.0,-1.4295,-1.475,-1.5311,-1.4816,0.0,0.0,0.0,0.0,0.0,-1.7753,-1.9063,-2.0245,-2.0887,-2.1368,-2.1437,-2.04,-2.0076,-1.9997,0.0,0.0,0.0,0.0,-2.0836,-2.1593,0.0,0.0,-2.8313,0.0,0.0,0.0,0.0,0.0,0.0,0.0,0.0,0.0,0.0,0.0,-3.3418,-3.3418,-3.3418,-3.3418,-3.3418,-3.3418,-3.3418,-3.3418,-3.3418,-3.3418,-3.3418,-3.3418,-3.3418,-3.3418,-3.3418,-3.3418,-3.3418,0.0,-3.3418,-3.3418,-3.3418,-3.3418,-3.3379,-3.2969,-3.2793,-3.2734,-3.2324,-3.2129,-3.207,0.0,0.0,0.0,0.0,0.0,0.0,0.0,0.0,0.0,0.0,0.0,0.0,0.0,0.0,0.0,0.0,0.0,0.0,0.0,0.0,0.0,0.0,-2.2906,-2.2906,-2.3081,0.0,0.0,0.0,0.0,-2.0178,-1.9078,-1.759,-1.6593,-1.6032,0.0,0.0,0.0,0.0,0.0,0.0,0.0,0.0,0.0,0.0,0.0,0.0,0.0,0.0,0.0,0.0,-1.4696,-1.5084,-1.4656,0.0,0.0,0.0,0.0,0.0,-1.6396,-1.751,-1.8401,-1.8629,-1.992,-2.0972,-2.045,-2.0112,-1.9792,-1.9099,0.0,0.0,0.0,0.0,-2.1696,-2.319,0.0,-2.6327,-2.5643,-2.7858,0.0,0.0,0.0,0.0,0.0,0.0,0.0,0.0,0.0,0.0,-3.3355,-3.3418,-3.3418,-3.3418,-3.3418,-3.3418,-3.3418,-3.3418,-3.3418,-3.3418,-3.3418,-3.3418,-3.3418,-3.3418,-3.3418,-3.3418,0.0,-3.3418,-3.3418,-3.3418,-3.3418,-3.3398,-3.3203,-3.3125,-3.3066,-3.2402,-3.2305,-3.248,0.0,0.0,0.0,0.0,0.0,0.0,0.0,0.0,0.0,0.0,0.0,0.0,0.0,0.0,0.0,0.0,0.0,0.0,0.0,0.0,-2.2984,-2.3081,-2.3101,-2.3101,-2.3101,0.0,-2.2814,-2.1802,-2.0949,-1.9965,-1.8877,-1.7337,-1.6326,0.0,0.0,0.0,0.0,0.0,0.0,0.0,0.0,0.0,0.0,0.0,0.0,0.0,0.0,0.0,0.0,0.0,0.0,0.0,0.0,0.0,0.0,-1.4242,-1.4082,-1.4306,-1.5189,-1.614,-1.6888,-1.6764,-1.8563,-2.0327,-2.0235,-1.993,-1.9382,-1.8569,0.0,0.0,0.0,-2.0327,0.0,-2.2311,-2.375,-2.4653,-2.4152,0.0,0.0,0.0,0.0,0.0,0.0,0.0,0.0,0.0,0.0,0.0,-3.211,-3.2174,-3.2174,-3.2174,-3.2174,-3.2174,-3.2174,-3.2174,-3.2575,-3.3418,-3.3418,-3.3418,-3.3418,-3.3418,-3.3418,-3.3418,-3.3418,-3.3418,-3.3418,-3.3418,-3.3418,-3.3418,-3.3418,-3.3418,-3.334,-3.2695,-3.2598,-3.2754,0.0,0.0,0.0,0.0,0.0,0.0,0.0,0.0,0.0,0.0,0.0,0.0,0.0,0.0,0.0,0.0,0.0,0.0,0.0,0.0,-2.2734,-2.3081,-2.3101,-2.3101,-2.3101,-2.2324,-2.1333,-2.0058,-1.9463,-1.8362,-1.6904,-1.6496,-1.6139,-1.5784,0.0,0.0,0.0,0.0,0.0,0.0,0.0,0.0,0.0,0.0,0.0,0.0,0.0,0.0,0.0,0.0,0.0,0.0,0.0,0.0,-1.4496,-1.4175,-1.4082,-1.4191,-1.4502,-1.5057,-1.5597,-1.5819,-1.7194,-1.8379,-1.7926,-1.7626,-1.7533,-1.7943,0.0,0.0,0.0,-2.0152,-2.1994,-2.1347,-2.4592,-2.6236,0.0,0.0,0.0,0.0,0.0,0.0,0.0,0.0,0.0,0.0,0.0,0.0,-2.8558,-2.8558,-2.8558,-2.8558,-2.8558,-2.8558,-2.8558,-2.8558,-3.0207,-3.3418,-3.3418,-3.3418,-3.3418,-3.3418,-3.3418,-3.3418,-3.3418,-3.3418,-3.3418,-3.3418,-3.3418,-3.3418,-3.3418,-3.3418,-3.3418,-3.3359,-3.3105,-3.2793,0.0,0.0,0.0,0.0,0.0,0.0,0.0,0.0,0.0,0.0,0.0,0.0,0.0,0.0,0.0,0.0,0.0,0.0,0.0,0.0,-2.2187,-2.2363,-2.2363,-2.2048,-2.131,-2.1689,-2.127,-1.9884,-1.8316,-1.7213,-1.6433,-1.6375,0.0,0.0,0.0,0.0,0.0,0.0,0.0,0.0,0.0,0.0,0.0,0.0,0.0,0.0,0.0,0.0,0.0,0.0,-1.388,-1.4229,-1.4122,-1.4282,-1.4469,-1.4175,-1.4082,-1.4108,-1.4215,-1.4816,-1.5418,-1.5538,-1.643,-1.7405,-1.7754,-1.7769,-1.7929,-1.8704,-1.9011,0.0,0.0,0.0,-2.1064,-2.1356,-2.3051,-2.3961,0.0,0.0,0.0,0.0,0.0,0.0,0.0,0.0,0.0,0.0,0.0,0.0,-2.818,-2.8163,-2.8163,-2.8163,-2.8163,-2.8163,-2.8163,-2.8163,-2.8886,-3.0207,-3.124,-3.2365,-3.3418,-3.3418,-3.3418,-3.3418,-3.3418,-3.3418,-3.3418,-3.3418,-3.3418,-3.3418,-3.3418,-3.3418,-3.3379,-3.3125,-3.293,-3.2793,0.0,0.0,0.0,0.0,0.0,0.0,0.0,0.0,0.0,0.0,0.0,0.0,0.0,0.0,0.0,0.0,0.0,0.0,0.0,0.0,-2.1543,-2.168,-2.1816,-2.1524,-2.0736,-2.0873,-2.0405,-1.9223,-1.742,-1.6473,-1.6321,0.0,0.0,0.0,0.0,0.0,0.0,0.0,0.0,0.0,0.0,0.0,0.0,0.0,0.0,0.0,0.0,0.0,0.0,0.0,-1.3561,-1.3828,-1.3921,-1.4082,-1.4215,-1.4122,-1.4148,-1.4229,-1.4229,-1.4803,-1.5418,-1.5511,-1.6126,-1.6981,-1.8063,-1.8262,-1.8542,-1.9586,-1.9786,-1.9947,-2.0428,0.0,0.0,0.0,-2.2178,0.0,0.0,0.0,0.0,0.0,0.0,0.0,0.0,0.0,0.0,0.0,0.0,0.0,0.0,-2.6522,-2.6522,-2.6522,-2.6522,-2.6522,-2.6522,-2.6522,-2.6773,-2.737,-2.8541,-3.006,-3.1771,-3.1771,-3.2046,-3.2556,-3.2556,-3.2892,-3.3418,-3.3418,-3.3418,-3.3418,-3.3418,-3.3418,-3.3379,-3.3105,-3.291,-3.2793,0.0,0.0,0.0,0.0,0.0,0.0,0.0,0.0,0.0,0.0,0.0,0.0,0.0,0.0,0.0,0.0,0.0,0.0,0.0,0.0,-2.0762,-2.1171,-2.1641,-2.1875,-2.1875,-1.9861,-1.8414,-1.7684,-1.6738,-1.6308,-1.6308,-1.5965,0.0,0.0,0.0,0.0,0.0,0.0,0.0,0.0,0.0,0.0,0.0,0.0,0.0,0.0,0.0,0.0,0.0,0.0,-1.2946,-1.3253,-1.3507,-1.36,-1.3666,-1.4001,-1.4295,-1.4522,-1.4522,-1.495,-1.5471,-1.5765,-1.6273,-1.7101,-1.8584,-1.8931,-1.9265,-2.0441,-2.0214,-2.008,-2.0962,-2.0882,0.0,0.0,0.0,0.0,0.0,0.0,0.0,0.0,0.0,0.0,0.0,0.0,0.0,0.0,0.0,0.0,0.0,-2.2928,-2.2928,-2.2928,-2.2928,-2.2928,-2.2928,-2.2928,-2.3788,-2.545,-2.545,-2.6439,-2.8163,-2.8163,-2.9148,-3.0771,-3.0771,-3.1771,-3.3355,-3.3355,-3.3355,-3.3355,-3.3418,-3.3418,-3.3418,-3.3418,-3.3164,-3.2793,0.0,0.0,0.0,0.0,0.0,0.0,0.0,0.0,0.0,0.0,0.0,0.0,0.0,0.0,0.0,0.0,0.0,0.0,0.0,0.0,0.0,0.0,0.0,0.0,0.0,0.0,-1.6743,-1.6339,-1.59,-1.5765,0.0,0.0,0.0,-1.4331,0.0,0.0,0.0,0.0,0.0,0.0,0.0,0.0,0.0,0.0,0.0,0.0,0.0,0.0,0.0,0.0,0.0,0.0,-1.2603,-1.3195,-1.3975,-1.4055,-1.4295,-1.4522,-1.4522,-1.495,-1.5511,-1.6019,-1.6901,-1.7822,-1.8675,-1.9092,-1.9679,0.0,-2.1122,-2.0922,-2.1603,0.0,0.0,0.0,0.0,0.0,0.0,0.0,0.0,0.0,0.0,0.0,0.0,0.0,0.0,0.0,0.0,0.0,0.0,-2.2928,-2.2928,-2.2928,-2.2928,-2.2928,-2.2928,-2.2928,-2.3133,-2.3652,-2.3652,-2.5248,-2.8163,-2.8163,-2.8492,-2.8952,-2.8952,-2.9279,-2.9817,-3.1047,-3.1561,-3.1689,-3.2892,-3.3418,-3.3418,-3.3418,-3.3164,-3.2832,0.0,0.0,0.0,0.0,0.0,0.0,0.0,0.0,0.0,0.0,0.0,0.0,0.0,0.0,0.0,0.0,0.0,0.0,0.0,0.0,0.0,0.0,0.0,0.0,0.0,-1.7265,-1.6463,0.0,0.0,0.0,0.0,0.0,-1.4731,-1.3602,0.0,-1.2645,0.0,0.0,0.0,0.0,-0.9669,-0.9607,-0.9509,0.0,0.0,0.0,0.0,0.0,0.0,0.0,0.0,0.0,-1.1797,-1.2343,-1.3082,-1.3849,-1.4295,-1.4603,-1.4905,-1.5391,-1.5912,-1.662,-1.7515,-1.8504,-1.9559,0.0,0.0,0.0,-2.1617,-2.1496,-2.2205,-2.2004,0.0,0.0,0.0,0.0,0.0,0.0,0.0,0.0,0.0,0.0,0.0,0.0,0.0,0.0,0.0,0.0,0.0,-2.2928,-2.2928,-2.2928,-2.2928,-2.2928,-2.2928,-2.2928,-2.2928,-2.2928,-2.2928,-2.3992,-2.6121,-2.6121,-2.6455,-2.7172,-2.79,-2.8163,-2.8295,-2.9344,-2.98,-2.9865,-3.0918,-3.1322,-3.1451,-3.2091,-3.2213,-3.2024,0.0,0.0,0.0,0.0,0.0,0.0,0.0,0.0,0.0,0.0,-1.8008,0.0,0.0,0.0,0.0,0.0,0.0,0.0,0.0,0.0,0.0,0.0,0.0,0.0,0.0,0.0,0.0,0.0,0.0,0.0,0.0,0.0,-1.4646,-1.3368,0.0,-1.2172,0.0,0.0,0.0,-0.7065,-0.7251,-0.7224,-0.719,-0.8277,0.0,0.0,0.0,0.0,0.0,0.0,0.0,0.0,-1.085,-1.118,-1.1485,-1.3387,-1.414,-1.4564,-1.5505,-1.6032,-1.6536,-1.7395,-1.8116,-1.9038,-2.0695,-2.1069,-2.1256,-2.1897,0.0,-2.1949,-2.278,-2.2418,0.0,0.0,0.0,0.0,0.0,0.0,0.0,0.0,0.0,0.0,0.0,0.0,0.0,0.0,0.0,0.0,0.0,-2.2928,-2.2928,-2.2928,-2.2928,-2.2928,-2.2928,-2.2928,-2.2928,-2.2928,-2.2928,-2.2928,-2.2928,-2.2928,-2.3788,-2.5383,-2.6972,-2.7701,-2.7701,-2.79,-2.7966,-2.7966,-2.818,-2.8163,-2.8361,-2.9995,-3.0578,-3.0578,0.0,0.0,0.0,0.0,0.0,0.0,0.0,0.0,0.0,0.0,0.0,0.0,0.0,0.0,0.0,0.0,0.0,0.0,0.0,0.0,0.0,0.0,0.0,0.0,0.0,0.0,0.0,0.0,0.0,0.0,0.0,0.0,0.0,-1.3237,0.0,-1.1581,0.0,0.0,-0.7816,-0.6797,-0.6831,-0.6824,-0.6797,-0.7084,-0.7046,0.0,0.0,0.0,0.0,0.0,0.0,0.0,-0.9199,-0.9743,-1.0821,-1.2117,-1.2894,-1.3616,-1.5081,-1.5872,-1.654,-1.7609,-1.8744,-1.9733,-2.0575,-2.0775,-2.1069,-2.2111,-2.2271,-2.2365,-2.2847,0.0,0.0,0.0,0.0,0.0,0.0,0.0,0.0,0.0,0.0,0.0,0.0,0.0,0.0,0.0,0.0,0.0,-2.2928,-2.2928,-2.2928,-2.2928,-2.2928,-2.2928,-2.2928,-2.2928,-2.2928,0.0,-2.2928,-2.2928,-2.2928,-2.2928,-2.3133,-2.3461,-2.3856,-2.406,-2.4128,-2.5517,-2.6105,-2.6239,-2.7635,-2.8163,-2.8246,-2.8624,-2.8755,-2.8755,0.0,0.0,0.0,0.0,0.0,0.0,0.0,0.0,0.0,0.0,0.0,0.0,0.0,0.0,0.0,0.0,0.0,0.0,0.0,0.0,-1.3889,-1.4009,0.0,0.0,0.0,0.0,0.0,0.0,0.0,0.0,-1.475,-1.4941,-1.4385,-1.3285,0.0,-1.1761,0.0,0.0,-0.869,-0.7999,-0.7607,-0.7432,-0.7342,-0.6818,-0.6539,-0.6511,-0.6511,0.0,0.0,0.0,0.0,0.0,0.0,0.0,-0.9406,-1.0806,-1.1843,-1.288,-1.4318,-1.5486,-1.662,-1.8049,-1.9145,-1.996,-2.0548,-2.0788,-2.1096,-2.1844,-2.2111,-2.2338,-2.2779,0.0,0.0,0.0,0.0,0.0,0.0,0.0,0.0,0.0,0.0,0.0,0.0,0.0,0.0,0.0,0.0,-2.2928,-2.2928,-2.2928,-2.2928,-2.2928,-2.2928,-2.2928,-2.2928,-2.2928,-2.2928,-2.2928,-2.2928,-2.2928,-2.2928,-2.2928,-2.2928,-2.2928,-2.2928,-2.2928,-2.2996,-2.3856,-2.4249,-2.4317,-2.5315,-2.5651,-2.5786,-2.6573,-2.6906,-2.6906,0.0,0.0,0.0,0.0,0.0,0.0,0.0,0.0,0.0,0.0,0.0,0.0,0.0,0.0,0.0,0.0,0.0,0.0,0.0,-1.2118,-1.2572,-1.3186,0.0,0.0,0.0,0.0,0.0,0.0,0.0,-1.455,-1.4603,-1.4803,-1.4501,-1.3718,0.0,0.0,0.0,-1.0387,-0.9837,-0.932,-0.8559,-0.8133,-0.7925,-0.695,-0.6527,-0.6396,-0.6396,-0.647,-0.6532,-0.662,0.0,0.0,0.0,0.0,-0.7888,-0.9397,-1.0632,-1.1763,-1.3038,-1.4719,-1.6489,-1.8092,-1.9079,0.0,-2.0388,-2.0748,-2.1056,-2.1467,-2.179,-2.2205,0.0,0.0,0.0,0.0,0.0,0.0,0.0,0.0,0.0,0.0,0.0,0.0,0.0,0.0,0.0,0.0,0.0,-2.2779,-2.2779,-2.2779,-2.2779,-2.2779,-2.2739,-2.2807,-2.2779,-2.2779,-2.2806,-2.2928,-2.2928,-2.2928,-2.2928,-2.2928,-2.2928,-2.2928,-2.2928,-2.2928,-2.2928,-2.2928,-2.2928,-2.2928,-2.2928,-2.2928,-2.3065,-2.452,-2.5046,-2.5046,0.0,0.0,0.0,0.0,0.0,0.0,0.0,0.0,0.0,0.0,-1.8008,-1.7852,-1.7422,-1.65,0.0,0.0,0.0,0.0,-1.1524,0.0,0.0,0.0,0.0,0.0,0.0,0.0,0.0,0.0,-1.3345,-1.3953,-1.4941,-1.4683,-1.4781,-1.5134,-1.455,-1.3554,0.0,-1.1139,-0.9975,-0.8871,-0.8532,-0.7933,-0.7219,-0.7094,-0.6633,-0.6054,-0.6054,-0.6254,-0.6518,-0.6538,-0.658,0.0,0.0,0.0,0.0,-0.8114,-0.8743,-0.9409,-1.095,-1.3333,-1.5589,-1.6594,-1.7925,-1.9199,0.0,0.0,-2.0508,0.0,-2.1804,0.0,0.0,0.0,0.0,0.0,0.0,0.0,0.0,0.0,0.0,0.0,0.0,0.0,0.0,0.0,0.0,0.0,-2.2338,-2.2472,-2.2472,-2.2472,-2.2472,-2.2472,-2.2231,-2.2231,-2.2472,-2.2472,-2.2605,-2.2928,-2.2928,-2.2928,-2.2928,-2.2928,-2.2928,-2.2928,-2.2928,-2.2928,-2.2928,-2.2928,-2.2928,-2.2928,-2.2928,-2.2928,-2.2928,-2.3133,-2.3256,-2.3256,0.0,0.0,0.0,0.0,0.0,0.0,0.0,0.0,0.0,0.0,0.0,-1.6843,-1.5867,-1.5251,0.0,0.0,0.0,0.0,-1.1444,-1.1971,0.0,0.0,0.0,0.0,0.0,0.0,0.0,0.0,-1.2371,-1.3066,-1.471,-1.4416,-1.4856,-1.5858,-1.5097,-1.4291,0.0,-1.2349,-1.1378,-1.0467,-0.9815,-0.9467,-0.9224,-0.7699,-0.7208,-0.7234,-0.6249,-0.6044,-0.6227,-0.6227,-0.6329,-0.6484,-0.6416,0.0,0.0,0.0,-0.7724,-0.881,-1.0757,-1.2433,-1.3808,-1.4633,-1.618,-1.7629,-1.8018,-1.9166,-2.0307,-2.0561,0.0,0.0,0.0,0.0,0.0,0.0,0.0,0.0,0.0,0.0,0.0,0.0,0.0,0.0,0.0,0.0,0.0,0.0,-2.2258,-2.2418,-2.2418,-2.2418,-2.2418,-2.2418,-2.2138,-2.2044,-2.2178,-2.2178,-2.2245,-2.2378,-2.2539,-2.2619,-2.2619,-2.2779,-2.2928,-2.2928,-2.2928,-2.2928,-2.2928,-2.2928,-2.2928,-2.2928,-2.2928,-2.2928,-2.2928,-2.2928,-2.2928,-2.2928,0.0,0.0,0.0,0.0,0.0,0.0,0.0,0.0,0.0,0.0,0.0,0.0,-1.4561,0.0,0.0,0.0,0.0,0.0,-1.1323,0.0,0.0,0.0,0.0,0.0,0.0,0.0,0.0,-1.2078,-1.1748,-1.2599,-1.4402,-1.4335,-1.5017,-1.6295,-1.5511,-1.4776,-1.4028,-1.3253,-1.2596,-1.2041,-1.1227,-1.0996,-1.0889,-0.8663,-0.8122,-0.8316,-0.6602,-0.6071,0.0,0.0,0.0,0.0,0.0,0.0,0.0,0.0,0.0,-0.8078,-0.9814,-1.0981,-1.1831,-1.2563,-1.4213,-1.5802,0.0,0.0,-1.9003,0.0,0.0,0.0,0.0,0.0,0.0,0.0,0.0,0.0,0.0,0.0,0.0,0.0,0.0,0.0,0.0,0.0,0.0,0.0,-2.2031,-2.2205,-2.2205,-2.2205,-2.2205,-2.2205,-2.1911,-2.1804,-2.1871,-2.1951,-2.1991,-2.1991,-2.2205,-2.2311,-2.2311,-2.2539,-2.2645,-2.2713,-2.2712,-2.2712,-2.2645,-2.2645,-2.2686,-2.2752,-2.2752,-2.2792,-2.2928,-2.2928,-2.2928,-2.2928,0.0,0.0,0.0,0.0,0.0,0.0,0.0,0.0,0.0,0.0,0.0,0.0,0.0,0.0,0.0,0.0,0.0,0.0,0.0,0.0,0.0,0.0,0.0,0.0,0.0,0.0,-1.1757,-1.1442,-1.1997,-1.2893,-1.4122,-1.4713,-1.545,-1.6259,-1.5925,-1.515,-1.4041,-1.344,-1.2999,-1.2717,-1.2348,-1.1737,-1.0903,-1.0082,-0.9374,-0.8639,-0.7024,0.0,0.0,0.0,0.0,0.0,0.0,-0.6006,-0.6006,0.0,0.0,0.0,-0.686,-0.8265,-0.9793,-1.0396,-1.2142,-1.3788,0.0,0.0,0.0,0.0,0.0,0.0,0.0,0.0,0.0,0.0,0.0,0.0,0.0,0.0,0.0,0.0,0.0,0.0,0.0,0.0,0.0,0.0,-2.143,-2.1655,-2.1655,-2.1655,-2.1655,-2.1655,-2.1309,-2.1296,-2.1641,-2.1844,-2.1991,-2.1991,-2.2004,-2.2004,-2.2004,-2.2031,-2.2031,-2.2044,-2.2325,-2.2285,-2.2031,-2.2031,-2.2191,-2.2445,-2.2445,-2.2619,-2.2928,-2.2928,-2.2928,-2.2928,0.0,0.0,0.0,0.0,0.0,0.0,0.0,0.0,0.0,0.0,0.0,0.0,0.0,-1.2511,-1.2088,-1.1349,0.0,0.0,0.0,0.0,0.0,0.0,0.0,0.0,0.0,-1.1677,-1.153,-1.1389,-1.145,-1.2064,-1.328,-1.3841,-1.4389,-1.4883,-1.5351,-1.5217,-1.4646,-1.3814,-1.332,0.0,-1.2933,-1.291,-1.2849,-1.1629,-1.1385,-1.1445,0.0,0.0,0.0,0.0,0.0,0.0,-0.6227,-0.6112,-0.5993,-0.5993,-0.6071,-0.62,-0.6593,0.0,0.0,-0.8457,-1.0068,-1.1616,-1.1975,-1.3315,-1.4777,0.0,0.0,0.0,0.0,0.0,0.0,0.0,0.0,0.0,0.0,0.0,0.0,0.0,0.0,0.0,0.0,0.0,0.0,0.0,0.0,-2.1614,-2.1614,-2.1614,-2.1614,-2.1614,-2.1269,-2.1162,-2.1269,-2.1376,-2.1416,-2.143,-2.1617,-2.171,-2.1775,-2.1897,-2.1884,-2.1775,-2.1817,-2.1911,-2.1991,-2.1991,-2.2151,-2.2418,-2.2418,-2.2605,-2.2928,-2.2928,-2.2928,-2.2928,0.0,0.0,0.0,0.0,0.0,0.0,0.0,0.0,0.0,-1.5223,0.0,0.0,0.0,0.0,-1.1557,-1.1169,-1.0955,0.0,0.0,0.0,0.0,0.0,0.0,0.0,0.0,-1.1677,-1.1476,-1.1276,-1.1289,-1.1779,-1.265,-1.3213,-1.3707,-1.4108,-1.4589,-1.487,-1.4968,0.0,0.0,-1.4392,0.0,0.0,-1.4864,-1.3286,-1.2997,-1.3219,0.0,0.0,0.0,0.0,0.0,0.0,0.0,-0.6159,-0.5919,-0.5919,-0.5952,-0.6067,-0.6458,0.0,0.0,0.0,-0.8462,-0.9559,-0.9979,0.0,-1.2702,0.0,0.0,0.0,0.0,0.0,0.0,0.0,0.0,0.0,0.0,0.0,0.0,0.0,0.0,0.0,0.0,0.0,0.0,0.0,0.0,0.0,-2.1403,-2.1403,-2.1403,-2.1403,-2.1216,-2.1109,-2.1109,-2.1109,-2.1109,-2.1109,-2.1309,-2.1403,-2.1416,-2.1603,-2.159,-2.1403,-2.1403,-2.151,-2.1697,-2.1697,-2.1924,-2.2271,-2.2271,-2.2512,-2.2928,-2.2928,-2.2928,-2.2928,0.0,0.0,0.0,0.0,0.0,0.0,0.0,0.0,0.0,-1.6084,0.0,0.0,0.0,0.0,0.0,-1.1455,-1.1402,-1.1402,0.0,0.0,0.0,0.0,0.0,0.0,0.0,-1.1913,-1.1618,-1.1022,-1.1618,-1.2011,-1.2305,-1.2919,-1.3507,-1.4055,-1.3733,-1.4122,-1.5071,-1.6199,-1.6725,-1.6755,0.0,-1.677,-1.6595,0.0,0.0,0.0,-1.2883,-1.2289,0.0,-1.0168,0.0,0.0,0.0,-0.6166,-0.5806,-0.5806,-0.5915,-0.6071,0.0,0.0,0.0,0.0,0.0,0.0,-0.8309,0.0,-0.9287,0.0,0.0,0.0,0.0,0.0,0.0,0.0,0.0,0.0,0.0,0.0,0.0,0.0,0.0,0.0,0.0,0.0,0.0,0.0,-2.1109,-2.1109,-2.1109,-2.1109,-2.1109,-2.1109,-2.1109,-2.1109,-2.1109,-2.1109,-2.1109,-2.1109,-2.1109,-2.1109,-2.1109,-2.1109,-2.1109,-2.1109,-2.1109,-2.1109,-2.1109,-2.1122,-2.1456,-2.1991,-2.1991,-2.2352,-2.2928,-2.2928,-2.2928,-2.2928,0.0,0.0,0.0,0.0,0.0,0.0,-2.1159,-1.9763,-1.843,0.0,0.0,0.0,-1.4017,-1.2699,-1.1917,-1.1792,-1.1744,0.0,0.0,0.0,0.0,0.0,-1.1899,-1.2007,-1.2184,-1.202,-1.1819,-1.1658,-1.1819,-1.194,-1.1997,-1.2636,-1.3119,-1.3454,-1.3547,-1.3895,-1.4338,-1.4227,0.0,-1.5445,-1.5002,-1.5486,0.0,0.0,0.0,0.0,0.0,-1.4898,-1.4036,0.0,-1.1593,-0.9274,0.0,0.0,-0.5932,-0.5932,-0.6078,-0.6245,-0.6286,0.0,0.0,0.0,0.0,0.0,0.0,0.0,0.0,0.0,0.0,0.0,0.0,0.0,0.0,0.0,0.0,0.0,0.0,0.0,0.0,0.0,0.0,0.0,0.0,0.0,0.0,0.0,-2.1109,-2.1109,-2.1109,-2.1109,-2.1109,-2.1109,-2.1109,-2.1109,-2.1109,-2.1109,-2.1109,-2.1109,-2.1109,-2.1109,-2.1109,-2.1109,-2.1109,-2.1109,-2.1109,-2.1109,-2.1122,-2.1336,-2.1643,-2.2004,-2.2218,-2.2525,-2.2928,-2.2928,-2.2928,-2.2928,0.0,0.0,0.0,0.0,0.0,-2.2095,-2.1428,-2.0456,-1.9674,0.0,0.0,0.0,-1.5057,-1.3445,-1.2559,-1.2438,-1.2342,0.0,0.0,0.0,-1.1864,-1.2037,-1.2087,-1.2221,-1.2516,-1.2234,-1.2087,-1.2087,-1.1966,-1.1899,-1.1913,-1.2261,-1.2583,-1.2839,-1.3013,-1.3253,-1.3534,-1.3026,0.0,0.0,-1.6404,0.0,0.0,-1.6968,-1.7101,0.0,0.0,0.0,-1.5933,-1.5089,-1.2628,0.0,0.0,-0.6593,-0.6337,-0.6254,-0.6322,0.0,-0.6484,0.0,0.0,0.0,0.0,0.0,0.0,-0.7556,0.0,0.0,0.0,0.0,0.0,0.0,0.0,0.0,0.0,0.0,0.0,0.0,0.0,0.0,0.0,0.0,0.0,-2.0652,-2.1109,-2.1109,-2.1109,-2.1109,-2.1109,-2.1109,-2.1109,-2.1109,-2.1109,-2.1109,-2.1109,-2.1109,-2.1109,-2.1109,-2.1109,-2.1109,-2.1109,-2.1109,-2.1109,-2.1109,-2.1109,-2.1109,-2.1136,-2.1563,-2.183,-2.2017,-2.2311,-2.2605,-2.2928,-2.2928,-2.2928,-2.2928,0.0,0.0,-2.454,-2.2344,-2.2352,-2.2386,-2.1429,-2.0977,-2.0742,0.0,-1.9959,-1.8607,-1.65,-1.471,-1.356,-1.3373,0.0,0.0,0.0,0.0,-1.2331,-1.2305,-1.2305,-1.2425,-1.273,-1.2502,-1.2331,-1.2305,-1.2114,-1.198,-1.1953,-1.1953,-1.2051,-1.2305,-1.2265,-1.2449,-1.2717,-1.2628,0.0,-1.7802,-1.872,-1.9318,0.0,0.0,-1.7876,-1.7809,-1.7969,-1.7916,-1.7463,-1.5793,-1.2999,0.0,0.0,-0.7204,-0.6946,-0.6634,-0.6654,0.0,-0.6756,-0.6858,0.0,0.0,0.0,0.0,-0.7631,-0.774,-0.7848,0.0,0.0,0.0,0.0,0.0,0.0,0.0,0.0,0.0,0.0,0.0,0.0,0.0,0.0,0.0,-1.8372,-1.961,-2.0526,-2.0526,-2.0716,-2.0906,-2.1109,-2.1109,-2.1109,-2.1109,-2.1109,-2.1109,-2.1109,-2.1109,-2.1109,-2.1109,-2.1109,-2.1109,-2.1109,-2.1109,-2.1109,-2.1109,-2.1109,-2.1109,-2.1149,-2.175,-2.1991,-2.2017,-2.2338,-2.2632,-2.2928,-2.2928,-2.2928,-2.2928,0.0,0.0,-2.2968,-2.2487,-2.2473,-2.2338,-2.1838,-2.168,-2.1662,-2.1662,-1.9714,-1.8372,-1.8458,-1.5804,-1.4068,-1.4242,0.0,0.0,0.0,0.0,-1.2596,-1.2318,-1.2305,-1.2331,-1.2385,-1.2596,-1.2583,-1.2305,-1.2529,-1.2489,-1.2225,-1.2225,-1.2251,-1.2291,-1.2051,-1.2118,-1.2486,-1.3767,0.0,-1.6107,-1.5461,0.0,-1.9292,-1.7884,-1.809,-1.8971,-1.8557,-1.837,-1.802,-1.5927,-1.3894,-1.1943,0.0,0.0,-0.7407,-0.7058,-0.7122,-0.7217,-0.7088,-0.717,-0.7238,-0.6977,0.0,0.0,-0.7136,-0.7285,-0.7509,0.0,0.0,0.0,0.0,0.0,0.0,0.0,0.0,0.0,0.0,0.0,0.0,0.0,0.0,0.0,-1.6431,-1.6689,-1.6883,-1.6883,-1.818,-1.961,-2.1046,-2.1109,-2.1109,-2.1109,-2.1109,-2.1109,-2.1109,-2.1109,-2.1109,-2.1109,-2.1109,-2.1109,-2.1109,-2.1109,-2.1109,-2.1109,-2.1109,-2.1109,-2.1149,-2.175,-2.1991,-2.2031,-2.2565,-2.2806,-2.2928,-2.2928,-2.2928,-2.2928,0.0,-2.2633,-2.2789,-2.2789,-2.2789,-2.2711,-2.2539,-2.2519,-2.2598,-2.2812,-2.1174,-1.9763,-1.919,-1.7035,-1.5413,0.0,0.0,0.0,0.0,0.0,-1.2717,-1.2569,-1.2385,-1.2438,-1.2746,-1.2784,-1.2784,-1.2759,-1.2784,-1.2636,-1.2305,-1.2305,-1.2465,-1.2732,-1.2291,-1.2412,-1.2973,0.0,-1.4656,-1.6025,-1.6321,0.0,-1.9234,-1.8563,-1.8774,-1.9363,-1.8865,-1.8517,-1.7939,-1.5798,-1.4499,0.0,0.0,-0.9535,-0.8728,0.0,-0.7584,-0.7658,-0.7428,-0.7475,-0.7556,-0.7407,0.0,0.0,0.0,-0.7482,-0.755,-0.7773,0.0,0.0,0.0,0.0,0.0,0.0,0.0,0.0,0.0,0.0,0.0,0.0,0.0,0.0,-1.4585,-1.5302,-1.6177,-1.7141,-1.7988,-1.9291,-2.0982,-2.1109,-2.1109,-2.1109,-2.1109,-2.1109,-2.1109,-2.1109,-2.1109,-2.1109,-2.0195,-2.0259,-2.1046,-2.0195,-2.0259,-2.1046,-2.0195,-2.0322,-2.1086,-2.081,-2.1238,-2.2044,-2.2632,-2.2928,-2.2928,-2.2928,-2.2928,-2.2928,0.0,-2.275,-2.3003,-2.3081,-2.3101,-2.3101,-2.3101,-2.3101,-2.3257,-2.373,-2.2906,-2.1657,-2.0184,-1.864,0.0,0.0,0.0,0.0,0.0,0.0,-1.3038,-1.3038,-1.2665,-1.2705,-1.32,-1.2998,-1.2945,-1.3039,-1.2878,-1.2636,-1.2305,-1.2305,-1.2599,-1.3093,-1.2612,0.0,0.0,0.0,0.0,-1.6448,0.0,-1.8724,-1.908,-1.9111,-1.9145,-1.9172,-1.8985,-1.8528,-1.782,-1.6098,-1.52,-1.4355,-1.1488,-1.0441,0.0,0.0,0.0,0.0,0.0,0.0,0.0,0.0,0.0,-0.7943,0.0,0.0,0.0,-0.7867,0.0,0.0,0.0,0.0,0.0,0.0,0.0,0.0,0.0,0.0,0.0,0.0,0.0,0.0,0.0,-1.3753,-1.5373,-1.7307,-1.7412,-1.8134,-1.9979,-2.0106,-2.0132,-2.0132,-2.0132,-2.0132,-2.0132,-2.0132,-2.0132,-2.0068,-1.8704,-1.8896,-2.0526,-1.9152,-1.9483,-2.0982,-1.9291,-1.9291,-2.0565,-1.9735,-2.0219,-2.1568,-2.2564,-2.2928,-2.2928,-2.2928,-2.2928,-2.2928,-2.2363,-2.2559,-2.2695,-2.3042,-2.3101,-2.3101,-2.3101,-2.3101,-2.3257,-2.373,-2.3392,-2.3214,-2.3322,0.0,0.0,0.0,0.0,0.0,-1.6005,0.0,0.0,-1.3935,-1.34,-1.3146,-1.3213,-1.3173,-1.2906,-1.2398,-1.2677,-1.2636,-1.2305,-1.2305,-1.2516,-1.2837,-1.277,-1.3053,0.0,0.0,-1.4851,0.0,-1.7113,-1.7857,0.0,-1.8263,-1.8357,-1.8624,-1.8838,-1.8718,-1.8343,0.0,-1.6273,-1.4648,0.0,-1.1341,-1.0082,0.0,0.0,0.0,0.0,0.0,0.0,0.0,-0.8214,0.0,0.0,0.0,-0.7874,-0.7699,0.0,0.0,0.0,0.0,0.0,0.0,0.0,0.0,0.0,0.0,0.0,0.0,0.0,0.0,0.0,-1.0379,-1.1295,-1.3375,-1.3359,-1.4151,-1.6223,-1.6444,-1.6496,-1.6496,-1.6496,-1.6496,-1.6496,-1.6496,-1.6496,-1.6496,-1.6302,-1.7076,-1.8768,-1.8576,-1.9483,-2.0982,-1.9291,-1.864,-1.8804,-1.9262,-1.9542,-1.9935,-2.2076,-2.2928,-2.2928,-2.2928,-2.2928,-2.2928,-2.1194,-2.2012,0.0,-2.2108,-2.2624,-2.3101,-2.3101,-2.3958,-2.4485,-2.4199,-2.4689,-2.4876,0.0,0.0,0.0,0.0,0.0,-1.7725,0.0,0.0,0.0,-1.4349,-1.3733,-1.3507,-1.3721,-1.3387,-1.316,-1.304,-1.2891,-1.2717,-1.2596,-1.2385,-1.2746,-1.3548,-1.3213,-1.3721,-1.4839,0.0,-1.4897,0.0,0.0,0.0,0.0,-1.8428,-1.8891,-1.8998,-1.8945,-1.8958,-1.8905,0.0,-1.7409,0.0,0.0,0.0,0.0,0.0,0.0,0.0,0.0,0.0,0.0,0.0,0.0,0.0,-0.8065,0.0,-0.7896,0.0,0.0,0.0,0.0,0.0,0.0,0.0,0.0,0.0,0.0,0.0,0.0,0.0,0.0,0.0,0.0,0.0,0.0,0.0,-1.2492,-1.3398,-1.5492,-1.5727,-1.5846,-1.5913,-1.5913,-1.5913,-1.5913,-1.5913,-1.5913,-1.5913,-1.4884,-1.5848,-1.8448,-1.7474,-1.7923,-1.9483,-1.7731,-1.7012,-1.6926,-1.6465,-1.685,-1.7981,-2.0343,-2.1941,-2.2928,-2.2928,-2.2928,-2.2928,-1.9485,0.0,0.0,-2.1337,-2.2031,-2.2769,-2.3213,-2.4394,-2.5098,-2.4777,-2.582,0.0,-2.5792,-2.5289,0.0,0.0,-2.1729,-2.0134,0.0,0.0,-1.5725,-1.5378,-1.4496,-1.4108,-1.4322,-1.3748,-1.348,-1.348,-1.3093,-1.2918,-1.2904,-1.2596,-1.2933,-1.3841,-1.3574,-1.4295,-1.5685,0.0,-1.5484,-1.6273,-1.662,-1.6901,-1.7313,-1.8611,-1.9283,-1.9403,-1.9212,-1.9252,-1.9305,-1.8878,-1.8384,0.0,-1.6399,0.0,0.0,0.0,0.0,0.0,-0.9641,0.0,0.0,0.0,0.0,0.0,0.0,0.0,0.0,0.0,0.0,0.0,0.0,0.0,0.0,0.0,0.0,0.0,0.0,0.0,0.0,0.0,0.0,0.0,0.0,0.0,0.0,0.0,0.0,-1.2099,-1.3802,-1.4073,-1.4198,-1.4392,-1.4465,-1.4493,-1.4493,-1.4493,-1.4493,-1.4493,-1.3193,-1.4166,-1.7023,-1.5784,-1.6108,-1.7667,-1.5913,-1.52,-1.5108,-1.4329,-1.476,-1.6089,-1.8393,-2.012,-2.1459,-2.2503,-2.2928,-2.2859,-1.7281,-1.8464,0.0,0.0,-2.1346,-2.1894,-2.3512,-2.3828,-2.4297,-2.5479,0.0,0.0,0.0,0.0,0.0,0.0,0.0,-2.2778,-2.2704,0.0,-1.7259,-1.7475,-1.5879,-1.4968,0.0,-1.4362,-1.3788,-1.3227,-1.32,-1.32,-1.3186,-1.2918,-1.2958,-1.3267,-1.3814,-1.4563,-1.5444,-1.5992,-1.7061,-1.837,-1.8049,-1.8504,-1.9212,0.0,-1.8865,-1.9399,-1.9679,0.0,0.0,-1.9403,-1.9132,0.0,0.0,0.0,0.0,0.0,0.0,0.0,0.0,0.0,0.0,-1.0732,0.0,0.0,0.0,0.0,-0.8384,0.0,0.0,0.0,0.0,0.0,0.0,0.0,0.0,0.0,0.0,0.0,0.0,0.0,0.0,0.0,0.0,0.0,0.0,0.0,0.0,0.0,-0.9776,-1.0026,-1.0321,-1.0681,-1.0774,-1.085,-1.085,-1.085,-1.085,-1.085,-1.0784,-1.1762,-1.3456,-1.339,-1.4362,-1.5913,-1.4166,-1.339,-1.3416,-1.3865,-1.4019,-1.4327,-1.6449,-1.7318,-1.7809,-2.1527,-2.2928,-2.2654,0.0,0.0,0.0,0.0,0.0,-2.1923,-2.39,-2.4941,-2.5977,0.0,-2.793,0.0,0.0,-3.0238,-2.9365,0.0,0.0,-2.4223,-2.1624,-1.9475,0.0,0.0,0.0,-1.5925,0.0,-1.5209,-1.462,-1.4376,-1.3788,-1.3653,-1.4055,-1.3199,-1.3266,-1.4082,-1.4082,-1.4897,0.0,0.0,0.0,0.0,0.0,-1.8571,-1.943,0.0,0.0,-1.9693,-1.9987,-2.0147,0.0,-2.0227,-1.9907,-1.9447,-1.8953,-1.7603,-1.6093,-1.556,-1.4647,0.0,0.0,0.0,-1.3106,-1.1513,0.0,0.0,0.0,0.0,0.0,0.0,0.0,0.0,0.0,0.0,0.0,0.0,0.0,0.0,0.0,0.0,0.0,0.0,0.0,0.0,0.0,0.0,0.0,0.0,-0.8723,0.0,0.0,-0.993,-1.029,-1.0487,-1.0643,-1.0717,-1.0717,-1.0717,-1.0717,-1.0717,-1.0717,-1.163,-1.3325,-1.3325,-1.3643,-1.4166,-1.3578,-1.2674,-1.1747,-1.2027,-1.2182,-1.251,-1.4551,-1.5345,-1.5628,-1.8159,-1.9147,-1.9066,-1.7716,0.0,0.0,0.0,0.0,-2.2272,-2.3767,-2.5518,-2.707,0.0,-2.8887,0.0,-3.1348,0.0,-3.0743,0.0,-2.795,-2.588,-2.2936,-2.0815,0.0,-1.9252,-1.7943,0.0,0.0,0.0,-1.5584,-1.5124,-1.4549,-1.4306,-1.4496,-1.3627,-1.3574,-1.4173,0.0,-1.5097,-1.6567,-1.6887,-1.7542,0.0,0.0,-1.9158,0.0,0.0,-1.9987,-1.9853,0.0,-2.0508,-2.0695,-2.0802,-2.0575,-2.0281,-2.0361,-1.9127,-1.7747,-1.7665,-1.6839,-1.5848,-1.5873,-1.5669,0.0,-1.3684,-1.3114,0.0,-1.0487,0.0,0.0,0.0,0.0,0.0,0.0,0.0,0.0,0.0,0.0,0.0,0.0,0.0,0.0,0.0,0.0,0.0,0.0,0.0,-0.8024,-0.8174,-0.8404,0.0,0.0,0.0,-1.0046,-1.0405,-1.0561,-1.0663,-1.0717,-1.0717,-1.0717,-1.0717,-1.0717,-1.1306,-1.2347,-1.2347,-1.2347,-1.2347,-1.2347,-1.1792,-1.0894,-1.1104,-1.1253,-1.1543,-1.2892,-1.3381,-1.3729,-1.6263,-1.6756,-1.6192,-1.7774,-1.6711,0.0,0.0,-2.0329,0.0,0.0,0.0,-2.7396,0.0,-2.9339,-3.0099,-3.1465,-3.1973,-3.2383,-3.2669,-2.993,-2.7698,-2.6411,-2.3043,0.0,0.0,-1.9319,-1.8731,-1.8115,0.0,0.0,0.0,-1.5431,-1.511,-1.4563,-1.4242,-1.3948,-1.3666,-1.4226,0.0,-1.6402,-1.7221,-1.8437,-1.9826,-2.012,-2.0167,-2.0267,-2.0561,-2.0334,-1.992,-2.0494,-2.0695,-2.0735,-2.1015,-2.1109,-2.1069,-2.0788,-2.0681,-2.0561,-2.0013,-1.9826,-1.976,-1.9492,-1.8407,-1.7325,-1.7107,0.0,0.0,0.0,0.0,-1.1757,0.0,0.0,0.0,0.0,0.0,0.0,0.0,0.0,0.0,0.0,0.0,0.0,0.0,0.0,0.0,0.0,0.0,-0.7868,-0.7968,-0.7916,0.0,0.0,0.0,-0.9569,-1.0236,-1.0412,-1.0568,-1.0717,-1.0717,-1.0717,-1.0717,-1.0717,-1.0717,-1.0717,-1.0717,-1.0717,-1.0717,-1.0731,-1.0819,-1.09,-1.1118,-1.1267,-1.1416,-1.1565,-1.1619,-1.2043,-1.5637,-1.5769,-1.429,-1.801,-1.7387,-1.6958,0.0,-1.9421,-2.1844,0.0,0.0,0.0,0.0,-2.9594,-3.0069,-3.2649,-3.3027,-3.2623,-3.1413,-2.9422,0.0,0.0,0.0,0.0,-2.1737,-2.0561,-1.9767,-1.962,-1.845,0.0,-1.675,0.0,-1.5324,-1.515,-1.4429,-1.4162,0.0,0.0,0.0,-1.6633,-1.7301,-1.8437,-1.9826,-2.012,-2.0167,0.0,0.0,-2.0588,-2.0508,-2.0869,-2.1002,-2.1002,-2.1082,-2.1109,-2.1096,-2.1029,-2.0855,-2.0641,-2.0494,-2.0294,-2.0107,-2.0027,-1.9919,-1.9411,-1.7816,-1.7221,-1.6573,0.0,0.0,0.0,0.0,0.0,0.0,0.0,0.0,0.0,0.0,0.0,0.0,0.0,0.0,0.0,0.0,0.0,0.0,0.0,0.0,-0.7828,-0.7868,-0.814,0.0,0.0,0.0,0.0,-0.993,-1.0297,-1.0568,-1.0717,-1.0717,-1.0717,-1.0717,-1.0717,-1.0717,-1.0717,-1.0717,-1.0717,-1.0724,-1.0839,-1.0975,-1.1118,-1.1267,-1.1423,-1.1565,-1.1606,-1.1619,-1.1691,-1.2681,-1.2745,-1.2323,-1.8596,-1.8096,0.0,-1.7903,0.0,0.0,-2.4277,-2.504,0.0,-3.0451,-2.9826,0.0,-3.2587,-3.3203,-3.2683,-3.0964,-2.9213,0.0,-2.5101,0.0,0.0,-2.2044,-2.1496,-2.1002,-2.0628,-1.9501,0.0,-1.7393,0.0,0.0,-1.5204,-1.471,0.0,0.0,0.0,-1.5311,-1.642,-1.7782,-1.8918,-1.9853,-2.0401,0.0,0.0,-2.0802,-2.0869,-2.0882,-2.1056,-2.1109,-2.1109,-2.1109,-2.1109,-2.1109,-2.1109,-2.1002,-2.0869,-2.0869,-2.0655,-2.0454,-2.0575,-2.0641,-2.0442,-1.942,-1.9172,-1.8874,-1.7303,-1.6608,-1.6146,0.0,0.0,0.0,0.0,0.0,0.0,0.0,0.0,0.0,0.0,0.0,0.0,0.0,0.0,0.0,0.0,0.0,0.0,0.0,0.0,0.0,0.0,0.0,0.0,-0.972,-1.0168,-1.0473,-1.0616,-1.0683,-1.0717,-1.0717,-1.0717,-1.0717,-1.0717,-1.0717,-1.0717,-1.0731,-1.0813,-1.1029,-1.1241,-1.1328,-1.1484,-1.1619,-1.1619,-1.1619,-1.1619,-1.1619,-1.1619,-1.1619,-1.9481,0.0,0.0,0.0,0.0,0.0,0.0,-2.5757,0.0,-3.0704,0.0,-3.0259,-3.2163,-3.2988,-3.2683,-3.0964,0.0,-2.7116,-2.4547,-2.3423,-2.2593,-2.1815,-2.2205,-2.2098,-2.1296,-2.0628,0.0,0.0,0.0,0.0,-1.5008,0.0,0.0,0.0,0.0,0.0,0.0,-1.8424,-1.9559,-1.9933,-2.0775,-2.1109,-2.1109,-2.1109,-2.1109,-2.1109,-2.1109,-2.1109,-2.1109,-2.1109,-2.1109,-2.1109,-2.1109,-2.1109,-2.1109,-2.1109,-2.0922,-2.0788,-2.1042,-2.0922,-2.0802,-2.1042,-2.1109,-2.0909,-2.0147,-1.9047,-1.8119,-1.7756,-1.495,-1.2575,0.0,0.0,0.0,0.0,0.0,0.0,0.0,0.0,0.0,0.0,0.0,0.0,0.0,0.0,0.0,0.0,0.0,0.0,0.0,0.0,0.0,-0.9537,-1.0005,-1.0331,-1.0487,0.0,-1.0717,-1.0717,-1.0717,-1.0717,-1.0717,-1.0717,-1.0731,-1.0758,-1.0907,-1.1056,-1.1275,-1.1355,-1.1497,-1.1619,-1.1619,-1.1619,-1.1619,-1.1619,-1.1619,-1.1619,-2.0613,0.0,0.0,0.0,0.0,-2.5258,-2.4609,-2.6476,-2.892,-3.1636,-3.1115,-3.122,-3.2995,-3.334,-3.2683,-3.0964,-2.9213,0.0,0.0,0.0,0.0,-2.2713,-2.2726,-2.2592,-2.2191,-2.1149,-1.9973,0.0,0.0,0.0,-1.5008,0.0,0.0,0.0,0.0,0.0,-1.7368,-1.8771,0.0,-2.0214,-2.0855,-2.1109,-2.1109,-2.1109,-2.1109,-2.1109,-2.1109,-2.1109,-2.1109,-2.1109,-2.1109,-2.1109,-2.1109,-2.1109,-2.1109,-2.1109,-2.1069,-2.1042,-2.1096,-2.1069,-2.1042,-2.1096,-2.1109,-2.1069,-2.0922,-2.0681,-2.0493,-2.043,-1.8398,-1.6168,-1.4777,0.0,0.0,0.0,0.0,0.0,0.0,0.0,0.0,0.0,0.0,0.0,0.0,0.0,0.0,0.0,0.0,0.0,0.0,0.0,0.0,0.0,-0.9788,0.0,0.0,0.0,-1.0717,-1.0717,-1.0717,-1.0717,-1.0717,-1.0717,-1.0785,-1.0847,-1.1063,-1.1212,-1.1362,-1.1518,-1.1592,-1.1619,-1.1619,-1.1619,-1.1619,-1.1619,-1.1619,-1.1619,-2.0702,0.0,0.0,0.0,0.0,0.0,0.0,-2.7068,-2.8892,-2.9786,-2.8779,-2.8673,-3.0254,-3.071,-3.0228,-2.8428,-2.74,-2.6054,-2.4263,-2.3393,-2.2928,-2.2928,-2.2928,0.0,-2.2432,-2.1577,-2.0401,-1.8918,0.0,0.0,0.0,0.0,0.0,-1.4776,0.0,-1.6415,0.0,0.0,0.0,-2.022,-2.0869,-2.1203,-2.1336,-2.1336,-2.143,-2.1563,-2.1563,-2.1563,-2.1523,-2.1216,-2.1109,-2.1109,-2.1109,-2.1109,-2.1109,-2.1109,-2.1109,-2.1109,-2.1109,-2.1109,-2.1109,-2.1109,-2.1109,-2.1109,-2.1109,-2.1109,-2.1069,-2.0909,-1.9222,-1.6823,-1.3732,-1.1419,0.0,0.0,0.0,0.0,0.0,0.0,0.0,0.0,0.0,0.0,0.0,0.0,0.0,0.0,0.0,0.0,0.0,0.0,0.0,0.0,0.0,0.0,0.0,0.0,0.0,-1.0717,-1.0717,-1.0717,-1.0717,-1.0717,-1.0739,-1.0887,-1.1097,-1.1246,-1.1402,-1.1558,-1.1619,-1.1619,-1.1619,-1.1619,-1.1619,-1.1619,-1.1619,-1.1619,0.0,-2.104,0.0,0.0,-2.3557,0.0,-2.5125,-2.6832,-2.8037,-2.7943,-2.6992,-2.6724,-2.7862,-2.8374,-2.798,-2.6147,-2.5771,-2.4863,-2.2996,-2.2928,-2.2928,-2.2928,-2.2928,-2.2752,-2.2512,-2.2004,-2.0935,0.0,0.0,0.0,0.0,0.0,0.0,0.0,0.0,0.0,0.0,0.0,-1.9826,-2.0468,-2.0989,-2.1376,-2.1708,-2.1708,-2.179,-2.1991,-2.1991,-2.1991,-2.1911,-2.1456,-2.1296,-2.1283,-2.1229,-2.1203,-2.1189,-2.1122,-2.1109,-2.1109,-2.1109,-2.1109,-2.1109,-2.1109,-2.1109,-2.1109,-2.1109,-2.1109,-2.1029,-2.0735,-1.9123,-1.674,-1.323,-1.189,0.0,0.0,0.0,0.0,0.0,0.0,0.0,0.0,0.0,0.0,0.0,0.0,0.0,0.0,0.0,0.0,-0.7982,-0.8296,-0.856,0.0,0.0,-0.991,-1.0181,0.0,-1.0717,-1.0717,-1.0717,-1.0717,-1.0717,-1.0717,-1.0819,-1.1002,-1.1111,-1.1267,-1.145,-1.1572,-1.1619,-1.1619,-1.1619,-1.1619,-1.1619,-1.1619,-1.1619,-1.1619,0.0,0.0,0.0,0.0,0.0,0.0,-2.4156,-2.453,-2.5955,-2.8551,-2.8796,-2.8728,-2.8865,-2.8966,-2.8168,-2.6162,-2.5981,-2.5095,-2.301,-2.2928,-2.2928,-2.2928,-2.2928,-2.2914,-2.2819,-2.2498,-2.1737,0.0,0.0,-1.8063,0.0,0.0,0.0,0.0,0.0,0.0,0.0,-1.9492,-2.0254,-2.1056,-2.1376,-2.1748,-2.1951,-2.1951,-2.1964,-2.1991,-2.1991,-2.1991,-2.1977,-2.1924,-2.1911,-2.1857,-2.1655,-2.1574,-2.1521,-2.1189,-2.1109,-2.1109,-2.1109,-2.1109,-2.1109,-2.1109,-2.1109,-2.1109,-2.1109,-2.1109,-2.1029,-2.0735,-1.8972,-1.7138,-1.6203,-1.3794,-1.1657,0.0,0.0,0.0,0.0,0.0,0.0,0.0,0.0,0.0,0.0,0.0,0.0,0.0,0.0,0.0,-0.7988,-0.8201,-0.8364,-0.852,0.0,-0.9707,-0.9863,-1.0432,-1.0717,-1.0717,-1.0717,-1.0717,-1.0717,-1.0717,-1.0873,-1.1145,-1.1158,-1.1328,-1.1599,-1.1613,-1.1619,-1.1619,-1.1619,-1.1619,-1.1619,-1.1619,-1.1619,-1.1619,0.0,0.0,0.0,0.0,0.0,0.0,0.0,-2.4489,-2.5043,-2.6214,-2.6386,-2.6386,-2.6386,-2.6226,-2.5783,-2.496,-2.4792,-2.4205,-2.3222,-2.314,-2.306,-2.2941,-2.2928,-2.2928,-2.2928,-2.2565,-2.1937,0.0,0.0,-1.8611,-1.7449,-1.6967,0.0,0.0,0.0,-1.9105,-1.97,-2.0521,-2.1162,-2.1643,-2.1764,-2.1991,-2.2245,-2.2245,-2.2352,-2.2512,-2.2512,-2.2512,-2.2512,-2.2512,-2.2271,-2.1964,-2.1844,-2.1817,-2.179,-2.167,-2.151,-2.1376,-2.1376,-2.1243,-2.1109,-2.1109,-2.1109,-2.1109,-2.1109,-2.1109,-2.1029,-2.0735,-1.9702,-1.837,-1.6882,-1.477,-1.2861,0.0,0.0,0.0,0.0,0.0,0.0,0.0,0.0,0.0,0.0,0.0,0.0,0.0,0.0,0.0,0.0,-0.8099,0.0,-0.8472,0.0,-0.9585,-0.9822,-1.0419,-1.0717,-1.0717,-1.0717,-1.0717,-1.0717,-1.0717,-1.088,-1.1241,-1.1355,-1.1504,-1.1619,-1.1619,-1.1619,-1.1619,-1.1619,-1.1619,-1.1619,-1.1619,-1.1619,-1.1619,-2.3432,0.0,-2.3073,0.0,-2.3848,-2.3915,-2.4543,-2.4636,-2.4636,-2.4636,-2.4636,-2.4636,-2.4636,-2.4449,-2.4302,-2.4209,-2.4022,-2.3768,-2.3474,-2.346,-2.3354,-2.314,-2.3046,0.0,-2.2993,-2.2699,-2.2205,-2.1496,-2.0414,0.0,-1.8755,0.0,0.0,0.0,-1.9746,-2.0267,-2.0668,-2.1376,-2.1844,-2.2111,-2.2111,-2.2285,-2.2552,-2.2552,-2.2686,-2.2928,-2.2928,-2.2928,-2.2928,-2.2928,-2.2592,-2.2231,-2.2138,-2.2111,-2.2098,-2.2004,-2.1844,-2.1748,-2.1748,-2.147,-2.1243,-2.1243,-2.1176,-2.1109,-2.1109,-2.1109,-2.1029,-2.0735,-2.0281,-1.949,-1.7994,-1.6287,-1.452,-1.2906,0.0,0.0,0.0,0.0,0.0,0.0,-0.818,-0.7941,-0.7988,0.0,0.0,0.0,0.0,0.0,0.0,0.0,0.0,0.0,0.0,0.0,0.0,-1.0419,-1.0717,-1.0717,-1.0717,-1.0717,-1.0724,-1.0812,-1.0989,-1.1246,-1.1504,-1.1619,-1.1619,-1.1619,-1.1619,-1.1619,-1.1619,-1.1619,-1.1619,-1.1619,-1.1619,-1.1619,-2.3988,-2.3754,-2.3941,-2.4529,-2.4623,-2.4623,-2.4636,-2.4636,-2.4636,-2.4636,-2.4636,-2.4636,-2.4636,-2.4636,-2.4516,-2.4222,-2.4195,-2.4075,-2.3781,-2.3768,-2.3768,0.0,0.0,-2.3327,-2.3327,-2.302,-2.2712,-2.2405,0.0,0.0,-2.0628,0.0,-1.9653,-2.0167,-2.0535,-2.0989,-2.1614,-2.1857,-2.2151,-2.2418,-2.2418,-2.2592,-2.2859,-2.2859,-2.2928,-2.2928,-2.2928,-2.2928,-2.2928,-2.2928,-2.2928,-2.2806,-2.2512,-2.2418,-2.2352,-2.2071,-2.1977,-2.1977,-2.1977,-2.1764,-2.1614,-2.1614,-2.1323,-2.1109,-2.1109,-2.1109,-2.1029,-2.0735,-2.0441,-2.0167,-2.0153,-1.8613,-1.6745,-1.485,0.0,0.0,0.0,0.0,0.0,0.0,-0.8085,-0.7875,-0.7975,0.0,0.0,0.0,0.0,0.0,0.0,0.0,0.0,-0.8479,-0.9347,0.0,-0.9822,-1.0419,-1.0717,-1.0717,-1.0717,-1.0717,-1.0731,-1.1023,-1.124,-1.1396,-1.1552,-1.1619,-1.1619,-1.1619,-1.1619,-1.1619,-1.1619,-1.1619,-1.1619,-1.1619,-1.1619,-1.1619,-2.5026,-2.4796,-2.473,-2.4903,-2.477,-2.4636,-2.4636,-2.4636,-2.4636,-2.4636,-2.4636,-2.4636,-2.4636,-2.4636,-2.4596,0.0,-2.4502,-2.4382,0.0,-2.4062,-2.3981,-2.3781,-2.3674,-2.3634,-2.3634,-2.334,-2.3126,-2.3033,0.0,0.0,0.0,-2.0681,-2.0869,-2.1443,-2.1737,-2.1964,-2.2164,-2.2458,-2.2632,-2.2726,-2.2726,-2.2779,-2.2928,-2.2928,-2.2928,-2.2928,-2.2928,-2.2928,-2.2928,-2.2928,-2.2928,-2.2846,-2.2752,-2.2726,-2.2699,-2.2605,-2.2445,-2.2285,-2.2285,-2.2071,-2.1844,-2.1844,-2.163,-2.1416,-2.1416,-2.1256,-2.1029,-2.0735,-2.0601,-2.0468,-2.0267,-1.785,-1.5727,-1.5001,-1.2345,0.0,0.0,0.0,0.0,0.0,-0.818,-0.7934,0.0,-0.8092,0.0,0.0,0.0,0.0,0.0,0.0,0.0,0.0,-0.9408,0.0,-0.9916,-1.0473,-1.0717,-1.0717,-1.0717,-1.0772,-1.082,-1.1185,-1.1348,-1.1402,-1.1552,-1.1619,-1.1619,-1.1619,-1.1619,-1.1619,-1.1619,-1.1619,-1.1619,-1.1619,-1.1619,-1.1619,-2.5478,-2.5371,-2.5237,-2.5237,-2.4997,-2.4836,-2.4943,-2.4783,-2.4676,-2.4783,-2.4703,-2.4636,-2.4636,-2.4636,0.0,-2.4636,-2.4636,-2.4556,-2.4382,-2.4369,-2.4289,-2.4102,-2.3995,-2.3928,-2.3928,-2.3647,0.0,-2.3327,-2.2472,-2.1951,-2.1764,-2.1764,-2.1964,-2.2325,-2.2498,-2.2579,-2.2592,-2.2779,-2.2928,-2.2928,-2.2928,-2.2928,-2.2928,-2.2928,-2.2928,-2.2928,-2.2928,-2.2928,-2.2928,-2.2928,-2.2928,-2.2928,-2.2928,-2.2928,-2.2928,-2.2928,-2.2726,-2.2579,-2.2579,-2.2365,-2.2151,-2.2151,-2.1937,-2.1748,-2.1641,-2.1403,-2.1189,-2.0895,-2.0842,-2.0588,-1.9709,-1.7824,-1.5835,-1.4363,-1.2063,-1.0208,-0.9309,0.0,0.0,0.0,0.0,0.0,0.0,-0.8343,-0.8397,0.0,0.0,0.0,0.0,0.0,0.0,-0.896,-0.9632,0.0,-1.0215,-1.0548,-1.0717,-1.0717,-1.0778,-1.0914,-1.1118,-1.1307,-1.1423,-1.1484,-1.1579,-1.1619,-1.1619,-1.1619,-1.1619,-1.1619,-1.1619,-1.1619,-1.1619,-1.1619,-1.1619,-1.1619,-2.5571,-2.5558,-2.5545,0.0,-2.5304,0.0,-2.5478,-2.505,-2.4796,-2.5077,-2.4863,-2.4629,-2.4629,-2.4676,-2.4663,-2.4663,0.0,0.0,0.0,-2.4636,-2.4636,-2.4636,-2.4382,-2.4235,-2.4235,-2.3955,-2.3661,-2.3354,-2.3046,-2.2968,-2.2968,-2.2941,-2.2928,-2.2928,-2.2928,-2.2928,-2.2928,-2.2928,-2.2928,-2.2928,-2.2928,-2.2928,-2.2928,-2.2928,-2.2928,-2.2928,-2.2928,-2.2928,-2.2928,-2.2928,-2.2928,-2.2928,-2.2928,-2.2928,-2.2928,-2.2928,-2.2928,-2.2928,-2.2928,-2.2659,-2.2445,-2.2445,-2.2231,-2.1937,-2.1722,-2.1499,-2.1341,-2.0999,-2.0856,-2.0259,-1.864,-1.8036,-1.664,-1.3163,-1.2175,-1.1173,-0.9175,0.0,0.0,0.0,0.0,0.0,0.0,-0.8655,-0.8743,0.0,0.0,0.0,0.0,0.0,-0.9123,-0.9401,-0.9985,-1.0365,-1.0507,-1.0649,-1.0724,-1.0738,-1.0826,-1.1111,-1.1389,-1.1402,-1.1484,-1.1619,-1.1619,-1.1619,-1.1619,-1.1619,-1.1619,-1.1619,-1.1619,-1.1619,-1.1619,-1.1619,-1.1619,-1.1619,0.0,0.0,-2.5852,-2.5852,-2.5611,-2.5438,-2.5504,-2.5398,-2.5331,-2.5398,-2.5344,-2.5304,-2.5304,-2.5104,-2.497,-2.497,-2.477,-2.4636,-2.4636,-2.4636,-2.4636,-2.4636,-2.4569,-2.4529,-2.4529,-2.4249,-2.3955,-2.3661,-2.3367,-2.322,-2.3207,-2.2979,-2.2928,-2.2928,-2.2928,-2.2928,-2.2928,-2.2928,-2.2928,-2.2928,-2.2928,-2.2928,-2.2928,-2.2928,-2.2928,-2.2928,-2.2928,-2.2928,-2.2928,-2.2928,-2.2928,-2.2928,-2.2928,-2.2928,-2.2928,-2.2928,-2.2928,-2.2928,-2.2928,-2.2806,-2.2752,-2.2752,-2.2539,-2.2245,-2.1951,-2.0706,-1.9605,-1.9545,-1.8254,-1.7012,-1.656,-1.5283,-1.3925,-1.2794,-1.123,-0.9952,-0.9207,-0.8845,0.0,0.0,-0.8804,-0.8838,-0.9036,-0.9084,-0.9152,0.0,0.0,0.0,0.0,-0.9551,-0.9646,-0.9713,-1.0188,-1.0514,-1.0663,-1.0704,-1.0778,-1.0826,-1.1043,-1.1212,-1.1396,-1.1511,-1.1586,-1.1619,-1.1619,-1.1619,-1.1619,-1.1619,-1.1619,-1.1619,-1.1619,-1.1619,-1.1619,-1.1619,-1.1619,-1.1619,-2.636,-2.6266,-2.6159,-2.6159,-2.5905,-2.5758,-2.5892,-2.5678,-2.5558,-2.5692,-2.5598,-2.5518,-2.5518,-2.5371,-2.5277,-2.5277,-2.489,-2.4636,-2.4636,-2.4636,-2.4636,-2.4636,-2.4636,-2.4636,-2.4636,-2.4476,-2.4262,-2.3968,-2.3674,-2.3527,-2.3527,-2.322,-2.3073,-2.3073,-2.2926,-2.2928,-2.2928,-2.2928,-2.2928,-2.2928,-2.2928,-2.2928,-2.2928,-2.2928,-2.2928,-2.2928,-2.2928,-2.2928,-2.2928,-2.2928,-2.2928,-2.2928,-2.2928,-2.2928,-2.2928,-2.2928,-2.2928,-2.2928,-2.2928,-2.2928,-2.2928,-2.2928,-2.2739,-2.2336,-2.1162,-2.0093,-1.9017,-1.8028,-1.682,-1.5748,-1.496,-1.3873,-1.2703,-1.1525,-1.035,-0.9456,-0.9015,-0.8811,0.0,-0.9008,-0.9035,-0.915,-0.9429,-0.9523,-0.9564,-0.9585,-0.9693,0.0,-0.9808,-1.008,-1.0168,-1.0032,-1.0331,-1.0568,-1.0717,-1.0792,-1.09,-1.105,-1.1199,-1.1348,-1.1497,-1.1579,-1.1619,-1.1619,-1.1619,-1.1619,-1.1619,-1.1619,-1.1619,-1.1619,-1.1619,-1.1619,-1.1619,-1.1619,-1.1619,-1.1619,-2.6386,-2.6386,-2.6386,-2.6386,-2.6186,-2.6106,-2.636,-2.5972,-2.5732,-2.5985,-2.5798,-2.5638,-2.5638,-2.5598,-2.5585,-2.5585,-2.5077,-2.4743,-2.4703,-2.4663,-2.4636,-2.4636,-2.4636,-2.4636,-2.4636,-2.4636,-2.4516,-2.4262,-2.3981,-2.3834,-2.3834,-2.3527,-2.3394,-2.338,-2.3113,-2.3075,-2.3075,-2.3075,-2.3075,-2.3075,-2.3075,-2.3075,-2.3075,-2.3075,-2.3075,-2.3075,-2.3075,-2.3075,-2.3075,-2.3075,-2.3075,-2.3075,-2.3075,-2.2966,-2.2939,-2.2939,-2.2899,-2.2928,-2.2928,-2.2928,-2.2928,-2.2928,-2.2722,-2.1958,-2.0123,-1.9209,-1.8301,-1.6458,-1.5711,-1.49,-1.3411,-1.2906,-1.2044,-1.0134,-0.97,-0.9408,-0.8825,0.0,-0.894,-0.9248,-0.9337,-0.9483,-0.9883,-1.0019,-0.9984,-0.9964,-1.027,-1.0371,-1.0098,-1.0514,-1.0616,-1.0385,-1.0473,-1.0602,-1.0751,-1.084,-1.1056,-1.1199,-1.1328,-1.147,-1.1619,-1.1619,-1.1619,-1.1619,-1.1619,-1.1619,-1.1619,-1.1619,-1.1619,-1.1619,-1.1619,-1.1619,-1.1619,-1.1619,-1.1619,-1.1619,-2.6386,-2.6386,-2.6386,-2.6386,-2.636,-2.6333,-2.6386,-2.6306,-2.6266,-2.6319,-2.6279,-2.6253,-2.6253,-2.6039,-2.5892,-2.5892,-2.5571,-2.5277,-2.5024,-2.4783,-2.4636,-2.4636,-2.4636,-2.4636,-2.4636,-2.4636,-2.4609,-2.4569,-2.4275,-2.4142,-2.4128,-2.3834,-2.3701,-2.3701,-2.3647,-2.3634,-2.3634,-2.3634,-2.3634,-2.3634,-2.3634,-2.3634,-2.3634,-2.3634,-2.3634,-2.3634,-2.3634,-2.3634,-2.3634,-2.3634,-2.3634,-2.3634,-2.3634,-2.346,-2.326,-2.326,-2.3073,-2.2928,-2.2928,-2.2928,-2.2928,-2.2928,-2.1734,-2.0467,-2.0073,-1.7462,-1.497,-1.4596,-1.3141,-1.1837,-1.1368,-1.1087,-1.0657,-0.989,-0.97,-0.9442,-0.8912,0.0,-0.9483,-0.9537,-0.9876,-1.0181,-1.0371,-1.0304,-1.0337,-1.0561,-1.0412,-1.0399,-1.0602,-1.0683,-1.0758,-1.0772,-1.0744,-1.0758,-1.0847,-1.1056,-1.1206,-1.1355,-1.1382,-1.147,-1.1619,-1.1619,-1.1619,-1.1619,-1.1619,-1.1619,-1.1619,-1.1619,-1.1619,-1.1619,-1.1619,-1.1619,-1.1619,-1.1619,-1.1619,-1.1619,-2.6386,-2.6386,-2.6386,-2.6386,-2.6386,-2.6386,-2.6386,-2.6386,-2.6386,-2.6386,-2.6386,-2.6386,-2.6386,-2.6266,-2.6186,-2.6186,-2.5919,-2.5692,-2.5558,-2.5277,-2.5104,-2.5104,-2.5104,-2.5037,-2.4877,-2.4877,-2.4796,-2.4636,-2.4502,-2.4436,-2.4436,-2.4142,-2.4008,-2.3995,-2.3834,-2.3768,-2.3768,-2.3768,-2.3768,-2.3768,-2.3768,-2.3768,-2.3768,-2.3768,-2.3768,-2.3768,-2.3768,-2.3768,-2.3768,-2.3768,-2.3028,-2.2144,-2.2144,-2.1258,-2.0292,-2.0292,-2.0802,-2.139,-2.139,-2.0617,-1.9843,-1.9843,-1.9217,-1.8299,-1.7248,-1.5625,-1.4024,-1.298,-1.2015,-1.1267,-1.1199,-1.0873,-1.0548,-1.0337,-0.9978,0.0,0.0,-0.9578,-0.97,-0.9944,-1.0154,-1.0371,-1.0595,-1.0555,-1.0575,-1.0711,-1.0595,-1.0616,-1.0833,-1.0846,-1.0907,-1.1056,-1.0995,-1.0995,-1.1063,-1.1212,-1.1321,-1.1396,-1.1477,-1.1552,-1.1619,-1.1619,-1.1619,-1.1619,-1.1619,-1.1619,-1.1619,-1.1619,-1.1619,-1.1619,-1.1619,-1.1619,-1.1619,-1.1619,-1.1619,-1.1619,-2.6386,-2.6386,-2.6386,-2.6386,-2.6386,-2.6386,-2.6386,-2.6386,-2.6386,-2.6386,-2.6386,-2.6386,-2.6386,-2.6386,-2.6386,-2.6386,-2.6186,-2.6052,-2.6052,-2.5838,-2.5651,-2.5518,-2.5518,-2.5411,-2.5184,-2.5184,-2.5037,-2.4743,-2.4743,-2.4703,-2.4636,-2.4409,-2.4302,-2.4289,-2.4075,-2.3968,-2.3968,-2.3968,-2.3968,-2.3968,-2.3968,-2.3968,-2.3968,-2.3968,-2.3968,-2.3968,-2.3968,-2.3968,-2.3968,-2.3968,-2.2633,-2.093,-2.093,-1.9501,-1.7766,-1.7766,-1.8279,-1.9012,-1.9388,-1.8342,-1.7178,-1.7178,-1.6896,-1.6192,-1.4716,-1.4077,-1.3309,-1.19,-1.1525,-1.1436,-1.1396,-1.1084,-1.0799,-1.0731,0.0,0.0,0.0,-0.9998,-1.0039,-1.0344,-1.0446,-1.0575,-1.0799,-1.0826,-1.0826,-1.0826,-1.0826,-1.0873,-1.0989,-1.0995,-1.1063,-1.1212,-1.1212,-1.1212,-1.1212,-1.1369,-1.1443,-1.1443,-1.1565,-1.1619,-1.1619,-1.1619,-1.1619,-1.1619,-1.1619,-1.1619,-1.1619,-1.1619,-1.1619,-1.1619,-1.1619,-1.1619,-1.1619,-1.1619,-1.1619,-1.1619,-2.6386,-2.6386,-2.6386,-2.6386,-2.6386,-2.6386,-2.6386,-2.6386,-2.6386,-2.6386,-2.6386,-2.6386,-2.6386,-2.6386,-2.6386,-2.6386,-2.6373,-2.636,-2.636,-2.6333,-2.6079,-2.5531,-2.5518,-2.5504,-2.5478,-2.5478,-2.5344,-2.505,-2.505,-2.4903,-2.4636,-2.4609,-2.4609,-2.4609,-2.4583,-2.4569,-2.4569,-2.4569,-2.4569,-2.4569,-2.4569,-2.4569,-2.4569,-2.4569,-2.4569,-2.4569,-2.4569,-2.4569,-2.4569,-2.4569,-2.3201,-2.1543,-2.1543,-1.9958,-1.806,-1.806,-1.6721,-1.5629,-1.7243,-1.747,-1.7178,-1.7178,-1.591,-1.4574,-1.4432,-1.3024,-1.1756,-1.1619,-1.1613,-1.1558,-1.1416,-1.1246,-1.1043,-1.0765,0.0,0.0,-1.0297,-1.0602,-1.0745,-1.0704,-1.0928,-1.1104,-1.1124,-1.1131,-1.1131,-1.1131,-1.1131,-1.12,-1.1145,-1.1145,-1.1219,-1.1369,-1.1375,-1.1375,-1.1375,-1.1525,-1.1599,-1.1599,-1.1613,-1.1619,-1.1619,-1.1619,-1.1619,-1.1619,-1.1619,-1.1619,-1.1619,-1.1619,-1.1619,-1.1619,-1.1619,-1.1619,-1.1619,-1.1619,-1.1619,-1.1619,-2.6386,-2.6386,-2.6386,-2.6386,-2.6386,-2.6386,-2.6386,-2.6386,-2.6386,-2.6386,-2.6386,-2.6386,-2.6386,-2.6386,-2.6386,-2.6386,-2.6386,-2.6386,-2.6386,-2.6386,-2.6293,-2.6066,-2.6052,-2.5972,-2.5798,-2.5785,-2.5638,-2.5344,-2.517,-2.5024,-2.4903,-2.4716,-2.4636,-2.4636,-2.4636,-2.4636,-2.4636,-2.4636,-2.4636,-2.4636,-2.4636,-2.4636,-2.4636,-2.4636,-2.3796,-2.2893,-2.4179,-2.2967,-2.1066,-2.236,-2.053,-1.7815,-1.7815,-1.6326,-1.461,-1.461,-1.396,-1.3447,-1.4125,-1.4042,-1.3818,-1.3818,-1.3244,-1.2674,-1.2674,-1.2115,-1.1619,-1.1619,-1.1619,-1.1599,-1.1545,-1.1409,-1.1301,-1.128,0.0,-1.0887,-1.0962,-1.0955,-1.0962,-1.0989,-1.109,-1.1234,-1.1234,-1.1234,-1.1234,-1.1234,-1.1234,-1.1275,-1.1301,-1.1396,-1.147,-1.1531,-1.1531,-1.1531,-1.1531,-1.1592,-1.1619,-1.1619,-1.1619,-1.1619,-1.1619,-1.1619,-1.1619,-1.1619,-1.1619,-1.1619,-1.1619,-1.1619,-1.1619,-1.1619,-1.1619,-1.1619,-1.1619,-1.1619,-1.1619,-1.1619,-2.6386,-2.6386,-2.6386,-2.6386,-2.6386,-2.6386,-2.6386,-2.6386,-2.6386,-2.6386,-2.6386,-2.6386,-2.6386,-2.6386,-2.6386,-2.6386,-2.6386,-2.6386,-2.6386,-2.6386,-2.6386,-2.6386,-2.6386,-2.6293,-2.6092,-2.6092,-2.5945,-2.5651,-2.5451,-2.5304,-2.5211,-2.4917,-2.4783,-2.477,-2.4676,-2.4636,-2.4636,-2.4636,-2.4636,-2.4562,-2.387,-2.3648,-2.3574,-2.2967,-2.1826,-2.0841,-2.2198,-2.0916,-1.8799,-2.0166,-1.8345,-1.5463,-1.5463,-1.4099,-1.2501,-1.2501,-1.2433,-1.2359,-1.2359,-1.2169,-1.1965,-1.1918,-1.1796,-1.1687,-1.1687,-1.1653,-1.1619,-1.1619,-1.1619,-1.1619,-1.1619,-1.1531,-1.1497,-1.1599,-1.1362,-1.1226,-1.1436,-1.1287,-1.1199,-1.1294,-1.1307,-1.1307,-1.1307,-1.1307,-1.1307,-1.1307,-1.1307,-1.1355,-1.1457,-1.1565,-1.1619,-1.1619,-1.1619,-1.1619,-1.1619,-1.1619,-1.1619,-1.1619,-1.1619,-1.1619,-1.1619,-1.1619,-1.1619,-1.1619,-1.1619,-1.1619,-1.1619,-1.1619,-1.1619,-1.1619,-1.1619,-1.1619,-1.1619,-1.1619,-1.1619,-1.1619,-2.6386,-2.6386,-2.6386,-2.6386,-2.6386,-2.6386,-2.6386,-2.64,-2.64,-2.64,-2.6386,-2.6386,-2.6386,-2.6386,-2.6386,-2.6386,-2.6386,-2.6386,-2.6386,-2.6386,-2.6386,-2.6386,-2.6386,-2.6386,-2.6386,-2.6386,-2.6253,-2.6037,-2.6037,-2.5798,-2.5504,-2.5224,-2.5077,-2.5064,-2.4783,-2.4649,-2.4649,-2.4562,-2.4576,-2.4414,-2.236,-2.1601,-2.1377,-1.9338,-1.8572,-1.8572,-1.8572,-1.8572,-1.8572,-1.8572,-1.7208,-1.5472,-1.5472,-1.4099,-1.2508,-1.2508,-1.2508,-1.2501,-1.2501,-1.24,-1.2257,-1.2176,-1.1945,-1.183,-1.183,-1.1721,-1.1619,-1.1619,-1.1619,-1.1619,-1.1619,-1.1619,-1.1619,-1.1619,-1.1619,-1.1619,-1.1619,-1.1619,-1.1619,-1.1619,-1.1619,-1.1619,-1.1619,-1.1619,-1.1619,-1.1619,-1.1619,-1.1619,-1.1619,-1.1619,-1.1619,-1.1619,-1.1619,-1.1619,-1.1619,-1.1619,-1.1619,-1.1619,-1.1619,-1.1619,-1.1619,-1.1619,-1.1619,-1.1619,-1.1619,-1.1619,-1.1619,-1.1619,-1.1619,-1.1619,-1.1619,-1.1619,-1.1619,-1.1619,-1.1619,-1.1619,-2.6386,-2.6386,-2.6386,-2.6386,-2.656,-2.6694,-2.6694,-2.6867,-2.7001,-2.7001,-2.6827,-2.6694,-2.6694,-2.6507,-2.6386,-2.6386,-2.6386,-2.6386,-2.6386,-2.6386,-2.6386,-2.6386,-2.6386,-2.6386,-2.6386,-2.6386,-2.6346,-2.6266,-2.6052,-2.5919,-2.5812,-2.5518,-2.5384,-2.5384,-2.5291,-2.5251,-2.5099,-2.3617,-2.3007,-2.2766,-2.066,-1.9801,-1.9723,-1.9105,-1.8018,-1.6937,-1.8407,-1.7102,-1.4853,-1.632,-1.5466,-1.3763,-1.3763,-1.3296,-1.282,-1.282,-1.2745,-1.2664,-1.2664,-1.2556,-1.2406,-1.2257,-1.2108,-1.1965,-1.1857,-1.1796,-1.1742,-1.164,-1.1619,-1.1619,-1.1619,-1.1619,-1.1619,-1.1619,-1.1619,-1.1619,-1.1619,-1.1619,-1.1619,-1.1619,-1.1619,-1.1619,-1.1619,-1.1619,-1.1619,-1.1619,-1.1619,-1.1619,-1.1619,-1.1619,-1.1619,-1.1619,-1.1619,-1.1619,-1.1619,-1.1619,-1.1619,-1.1619,-1.1619,-1.1619,-1.1619,-1.1619,-1.1619,-1.1619,-1.1619,-1.1619,-1.1619,-1.1619,-1.1619,-1.1619,-1.1619,-1.1619,-1.1619,-1.1619,-1.1619,-1.1619,-2.6533,-2.6466,-2.6466,-2.6694,-2.6787,-2.6867,-2.6987,-2.7148,-2.7268,-2.7268,-2.7108,-2.7001,-2.7001,-2.6734,-2.656,-2.656,-2.6453,-2.6386,-2.6386,-2.6386,-2.6386,-2.6386,-2.6386,-2.6386,-2.6386,-2.6386,-2.6386,-2.6386,-2.6213,-2.6132,-2.6119,-2.5825,-2.5216,-2.4418,-2.4303,-2.3778,-2.2829,-2.1579,-2.0957,-2.0801,-1.8681,-1.7817,-1.7738,-1.6959,-1.586,-1.4995,-1.6177,-1.5082,-1.3196,-1.4373,-1.3982,-1.2963,-1.2963,-1.2963,-1.2963,-1.2963,-1.2895,-1.2807,-1.2745,-1.2664,-1.2556,-1.2413,-1.2264,-1.2128,-1.2033,-1.1965,-1.1877,-1.1735,-1.1701,-1.1687,-1.1633,-1.1619,-1.1619,-1.1619,-1.1619,-1.1619,-1.1619,-1.1619,-1.1619,-1.1619,-1.1619,-1.1619,-1.1619,-1.1619,-1.1619,-1.1619,-1.1619,-1.1619,-1.1619,-1.1619,-1.1619,-1.1619,-1.1619,-1.1619,-1.1619,-1.1619,-1.1619,-1.1619,-1.1619,-1.1619,-1.1619,-1.1619,-1.1619,-1.1619,-1.1619,-1.1619,-1.1619,-1.1619,-1.1619,-1.1619,-1.1619,-1.1619,-1.1619,-1.1619,-1.1619,-1.1619,-2.6814,-2.6653,-2.664,-2.7175,-2.7068,-2.6987,-2.7268,-2.7321,-2.7348,-2.7348,-2.7321,-2.7308,-2.7308,-2.7041,-2.6867,-2.6867,-2.6627,-2.644,-2.6386,-2.6413,-2.6413,-2.6386,-2.6228,-2.6149,-2.6149,-2.6307,-2.6386,-2.6386,-2.6228,-2.6149,-2.6136,-2.5636,-2.4397,-2.2461,-2.2151,-2.0945,-1.9044,-1.8887,-1.8809,-1.8573,-1.6616,-1.5743,-1.5592,-1.3705,-1.3003,-1.3003,-1.3003,-1.3003,-1.3003,-1.3003,-1.3003,-1.3003,-1.3003,-1.3003,-1.3003,-1.3003,-1.299,-1.2949,-1.2807,-1.2752,-1.2698,-1.2556,-1.2413,-1.2305,-1.2291,-1.2182,-1.204,-1.1884,-1.185,-1.1809,-1.1667,-1.1489,-1.1417,-1.1548,-1.1476,-1.1397,-1.1548,-1.1619,-1.1619,-1.1619,-1.1619,-1.1619,-1.1619,-1.1619,-1.1619,-1.1619,-1.1619,-1.1619,-1.1619,-1.1619,-1.1619,-1.1619,-1.1619,-1.1619,-1.1619,-1.1619,-1.1619,-1.1619,-1.1619,-1.1619,-1.1619,-1.1619,-1.1619,-1.1619,-1.1619,-1.1619,-1.1619,-1.1619,-1.1619,-1.1619,-1.1619,-1.1619,-1.1619,-1.1619,-1.1619,-1.1619,-2.7161,-2.7121,-2.7121,-2.7241,-2.7402,-2.7535,-2.7589,-2.7802,-2.8033,-2.8033,-2.7749,-2.7602,-2.7602,-2.7348,-2.7175,-2.7175,-2.7108,-2.6881,-2.6413,-2.66,-2.6627,-2.64,-2.4761,-2.3792,-2.3792,-2.5489,-2.6386,-2.6386,-2.4681,-2.3792,-2.3792,-2.2041,-2.0964,-2.0481,-2.0429,-2.0167,-1.9594,-1.7899,-1.7089,-1.6927,-1.4839,-1.3952,-1.3952,-1.3466,-1.3308,-1.3308,-1.3308,-1.3308,-1.3308,-1.3308,-1.3308,-1.3308,-1.3308,-1.3308,-1.3308,-1.3308,-1.322,-1.3119,-1.3085,-1.2908,-1.2718,-1.2691,-1.2569,-1.2427,-1.2318,-1.2264,-1.2196,-1.2047,-1.2013,-1.1965,-1.1816,-1.0529,-0.991,-1.1345,-1.0305,-0.9867,-1.1397,-1.1619,-1.1619,-1.1619,-1.1619,-1.1619,-1.1619,-1.1619,-1.1619,-1.1619,-1.1619,-1.1619,-1.1619,-1.1619,-1.1619,-1.1619,-1.1619,-1.1619,-1.1619,-1.1619,-1.1619,-1.1619,-1.1619,-1.1619,-1.1619,-1.1619,-1.1619,-1.1619,-1.1619,-1.1619,-1.1619,-1.1619,-1.1619,-1.1619,-1.1619,-1.1619,-1.1619,-1.1619,-1.1619,-1.1619,-2.7442,-2.7362,-2.7348,-2.7712,-2.7696,-2.7749,-2.7883,-2.8127,-2.8221,-2.8221,-2.8087,-2.7909,-2.7909,-2.7642,-2.7415,-2.7281,-2.7268,-2.7134,-2.6827,-2.6947,-2.6491,-2.5135,-2.3973,-2.2774,-2.1603,-2.274,-2.33,-2.33,-2.2166,-2.1603,-2.1523,-2.0393,-1.9339,-1.8363,-1.8363,-1.7792,-1.6738,-1.5597,-1.511,-1.4946,-1.3887,-1.3403,-1.3403,-1.3403,-1.3403,-1.3403,-1.3403,-1.3403,-1.3403,-1.3403,-1.3403,-1.3403,-1.3403,-1.3403,-1.3403,-1.3403,-1.3342,-1.3268,-1.3193,-1.3057,-1.2922,-1.2861,-1.2779,-1.2664,-1.244,-1.2393,-1.2345,-1.2203,-1.1403,-1.0676,-1.047,-0.88,-0.7725,-0.8659,-0.7984,-0.7674,-0.8719,-0.9651,-1.0233,-1.0233,-1.0233,-0.9867,-0.8925,-0.9651,-1.0233,-1.0233,-1.1109,-1.1619,-1.1619,-1.0743,-1.0233,-1.0233,-0.9291,-0.8853,-0.8853,-0.8853,-0.8853,-0.8853,-1.0743,-1.1619,-1.1548,-1.0671,-1.0233,-1.0161,-0.9219,-0.8853,-0.8853,-0.8853,-0.8853,-0.8853,-0.8853,-0.9435,-1.0233,-1.0233,-1.0815,-1.1626,-2.7722,-2.7575,-2.7575,-2.814,-2.7936,-2.7856,-2.8194,-2.8221,-2.8221,-2.8221,-2.8221,-2.8221,-2.8221,-2.7923,-2.7655,-2.7362,-2.7388,-2.7375,-2.7268,-2.7308,-2.629,-2.3773,-2.326,-2.1932,-1.9457,-1.9038,-1.9163,-1.9907,-1.9501,-1.9339,-1.9339,-1.8933,-1.7792,-1.6082,-1.6082,-1.511,-1.3403,-1.3403,-1.3403,-1.3403,-1.3403,-1.3403,-1.3403,-1.3403,-1.3403,-1.3403,-1.3431,-1.3437,-1.3437,-1.3437,-1.3424,-1.3403,-1.3403,-1.3403,-1.3403,-1.3403,-1.3403,-1.337,-1.3247,-1.3193,-1.3146,-1.3024,-1.3056,-1.2815,-1.2161,-1.2245,-1.2501,-1.2352,-1.0697,-0.9198,-0.9016,-0.6954,-0.5422,-0.5728,-0.5496,-0.54,-0.5783,-0.7216,-0.8222,-0.8222,-0.8208,-0.7544,-0.5953,-0.7255,-0.8194,-0.8194,-0.9723,-1.0599,-1.0599,-0.9069,-0.8194,-0.8194,-0.6677,-0.5808,-0.5808,-0.5808,-0.5808,-0.5808,-0.9074,-1.0599,-1.0527,-0.8925,-0.8194,-0.8121,-0.6532,-0.5808,-0.5808,-0.5808,-0.5808,-0.5808,-0.5808,-0.6749,-0.8271,-0.8559,-0.9951,-1.1674,-2.8167,-2.814,-2.8127,-2.8207,-2.8194,-2.8181,-2.8221,-2.8221,-2.8221,-2.8221,-2.8221,-2.8221,-2.8221,-2.8194,-2.7963,-2.7669,-2.7869,-2.7886,-2.7295,-2.7495,-2.6491,-2.388,-2.2023,-1.9918,-1.7559,-1.5632,-1.64,-1.9907,-1.7946,-1.7057,-1.6975,-1.511,-1.4135,-1.3811,-1.3811,-1.3645,-1.3403,-1.3403,-1.3403,-1.3403,-1.3403,-1.3403,-1.3403,-1.3403,-1.3403,-1.3417,-1.3553,-1.36,-1.36,-1.36,-1.3512,-1.3403,-1.3403,-1.3403,-1.3403,-1.3403,-1.3403,-1.3397,-1.3376,-1.3275,-1.3166,-1.3146,-1.3051,-1.2462,-1.0479,-1.1354,-1.2657,-1.2508,-1.0833,-0.9315,-0.9203,-0.6052,-0.3971,-0.5575,-0.4364,-0.3913,-0.555,-0.6018,-0.6201,-0.6201,-0.6213,-0.6098,-0.5808,-0.6025,-0.617,-0.617,-0.646,-0.6604,-0.6604,-0.6315,-0.617,-0.617,-0.5953,-0.5808,-0.5808,-0.5808,-0.5808,-0.5808,-0.6315,-0.6604,-0.6604,-0.6315,-0.617,-0.617,-0.5881,-0.5808,-0.5808,-0.5808,-0.5808,-0.5808,-0.5808,-0.5953,-0.6387,-0.8049,-1.0009,-1.1803,-2.8221,-2.8221,-2.8221,-2.8221,-2.8221,-2.8221,-2.8221,-2.8221,-2.8221,-2.8221,-2.8221,-2.8221,-2.8221,-2.8221,-2.8181,-2.7963,-2.8154,-2.7512,-2.5983,-2.5986,-2.4313,-2.0428,-1.9392,-1.7741,-1.5275,-1.4265,-1.4699,-1.6467,-1.5461,-1.4878,-1.4781,-1.3811,-1.3403,-1.3403,-1.3403,-1.3451,-1.3532,-1.3532,-1.3573,-1.3648,-1.3648,-1.3648,-1.3648,-1.3648,-1.3648,-1.3654,-1.3722,-1.3749,-1.3749,-1.3749,-1.3702,-1.3648,-1.3648,-1.3593,-1.3532,-1.3532,-1.3464,-1.3403,-1.3403,-1.3349,-1.3048,-1.1717,-1.2339,-1.2275,-0.8675,-0.9521,-1.105,-1.0774,-1.0101,-0.9433,-0.932,-0.5894,-0.3326,-0.4126,-0.2594,-0.1601,-0.242,-0.3531,-0.418,-0.4152,-0.4175,-0.378,-0.2692,-0.3562,-0.4213,-0.4213,-0.5156,-0.5808,-0.5808,-0.4794,-0.4155,-0.4185,-0.3161,-0.2582,-0.2526,-0.2526,-0.2526,-0.2526,-0.2528,-0.3686,-0.5736,-0.4649,-0.4213,-0.4141,-0.3054,-0.2547,-0.2547,-0.2547,-0.2547,-0.2694,-0.3809,-0.5676,-0.7929,-0.9855,-1.1154,-1.1972]},{"header":{"parameterUnit":"m.s-1","parameterCategory":1,"la1":30.6,"la2":28.766,"lo1":-90.7593,"lo2":-88.6598,"dy":0.0162,"dx":0.0183,"nx":116,"ny":114,"refTime":"2024-06-15T12:00:00:Z","depth":0,"parameterNumber":3,"parameterNumberName":"V-component_of_WINDS"},"data":[0.0,0.0,0.0,0.0,0.0,0.0,0.0,0.0,0.0,0.0,0.0,0.0,0.0,0.0,0.0,0.0,0.0,0.0,0.0,0.0,0.0,0.0,0.0,0.0,0.0,0.0,0.0,0.0,0.0,0.0,0.0,0.0,0.0,0.0,0.0,0.0,0.0,0.0,0.0,0.0,0.0,0.0,0.0,0.0,0.0,0.0,0.0,0.0,0.0,0.0,0.0,0.0,0.0,0.0,0.0,0.0,0.0,0.0,0.0,0.0,0.0,0.0,0.0,0.0,0.0,0.0,0.0,0.0,0.0,0.0,0.0,0.0,0.0,0.0,0.0,0.0,0.0,0.0,0.0,0.0,0.0,0.0,0.0,0.0,0.0,0.0,0.0,0.0,0.0,0.0,0.0,0.0,0.0,0.0,0.0,0.0,0.0,0.0,0.0,0.0,0.0,0.0,0.0,0.0,0.0,0.0,0.0,0.0,0.0,0.0,0.0,0.0,0.0,0.0,0.0,0.0,0.0,0.0,0.0,0.0,0.0,0.0,0.0,0.0,0.0,0.0,0.0,0.0,0.0,0.0,0.0,0.0,0.0,0.0,0.0,0.0,0.0,0.0,0.0,0.0,0.0,0.0,0.0,0.0,0.0,0.0,0.0,0.0,0.0,0.0,0.0,0.0,0.0,0.0,0.0,0.0,0.0,0.0,0.0,0.0,0.0,0.0,0.0,0.0,0.0,0.0,0.0,0.0,0.0,0.0,0.0,0.0,0.0,0.0,0.0,0.0,0.0,0.0,0.0,0.0,0.0,0.0,0.0,0.0,0.0,0.0,0.0,0.0,0.0,0.0,0.0,0.0,0.0,0.0,0.0,0.0,0.0,0.0,0.0,0.0,0.0,0.0,0.0,0.0,0.0,0.0,0.0,0.0,0.0,0.0,0.0,0.0,0.0,0.0,0.0,0.0,0.0,0.0,0.0,0.0,0.0,0.0,0.0,0.0,0.0,0.0,0.0,0.0,0.0,0.0,0.0,0.0,0.0,0.0,0.0,0.0,0.0,0.0,0.0,0.0,0.0,0.0,0.0,0.0,0.0,0.0,0.0,0.0,0.0,0.0,0.0,0.0,0.0,0.0,0.0,0.0,0.0,0.0,0.0,0.0,0.0,0.0,0.0,0.0,0.0,0.0,0.0,0.0,0.0,0.0,0.0,0.0,0.0,0.0,0.0,0.0,0.0,0.0,0.0,0.0,0.0,0.0,0.0,0.0,0.0,0.0,0.0,0.0,0.0,0.0,0.0,0.0,0.0,0.0,0.0,0.0,0.0,0.0,0.0,0.0,0.0,0.0,0.0,0.0,0.0,0.0,0.0,0.0,0.0,0.0,0.0,0.0,0.0,0.0,0.0,0.0,0.0,0.0,0.0,0.0,0.0,0.0,0.0,0.0,0.0,0.0,0.0,0.0,0.0,0.0,0.0,0.0,0.0,0.0,0.0,0.0,0.0,0.0,0.0,0.0,0.0,0.0,0.0,0.0,0.0,0.0,0.0,0.0,0.0,0.0,0.0,0.0,0.0,0.0,0.0,0.0,0.0,0.0,0.0,0.0,0.0,0.0,0.0,0.0,0.0,0.0,0.0,0.0,0.0,0.0,0.0,0.0,0.0,0.0,0.0,0.0,0.0,0.0,0.0,0.0,0.0,0.0,0.0,0.0,0.0,0.0,0.0,0.0,0.0,0.0,0.0,0.0,0.0,0.0,0.0,0.0,0.0,0.0,0.0,0.0,0.0,0.0,0.0,0.0,0.0,0.0,0.0,0.0,0.0,0.0,0.0,0.0,0.0,0.0,0.0,0.0,0.0,0.0,0.0,0.0,0.0,0.0,0.0,0.0,0.0,0.0,0.0,0.0,0.0,0.0,0.0,0.0,0.0,0.0,0.0,0.0,0.0,0.0,0.0,0.0,0.0,0.0,0.0,0.0,0.0,0.0,0.0,0.0,0.0,0.0,0.0,0.0,0.0,0.0,0.0,0.0,0.0,0.0,0.0,0.0,0.0,0.0,0.0,0.0,0.0,0.0,0.0,0.0,0.0,0.0,0.0,0.0,0.0,0.0,0.0,0.0,0.0,0.0,0.0,0.0,0.0,0.0,0.0,0.0,0.0,0.0,0.0,0.0,0.0,0.0,0.0,0.0,0.0,0.0,0.0,0.0,0.0,0.0,0.0,0.0,0.0,0.0,0.0,0.0,0.0,0.0,0.0,0.0,0.0,0.0,0.0,0.0,0.0,0.0,0.0,0.0,0.0,0.0,0.0,0.0,0.0,0.0,0.0,0.0,0.0,0.0,0.0,0.0,0.0,0.0,0.0,0.0,0.0,0.0,0.0,0.0,0.0,0.0,0.0,0.0,0.0,0.0,0.0,0.0,0.0,0.0,0.0,0.0,0.0,0.0,0.0,0.0,0.0,0.0,0.0,0.0,0.0,0.0,0.0,0.0,0.0,0.0,0.0,0.0,0.0,0.0,0.0,0.0,0.0,0.0,0.0,0.0,0.0,0.0,0.0,0.0,0.0,0.0,0.0,0.0,0.0,0.0,0.0,0.0,0.0,0.0,0.0,0.0,0.0,0.0,0.0,0.0,0.0,0.0,0.0,0.0,0.0,0.0,0.0,0.0,0.0,0.0,0.0,0.0,0.0,0.0,0.0,0.0,0.0,0.0,0.0,0.0,0.0,0.0,0.0,0.0,0.0,0.0,0.0,0.0,0.0,0.0,0.0,0.0,0.0,0.0,0.0,0.0,0.0,0.0,0.0,0.0,0.0,0.0,0.0,0.0,0.0,0.0,0.0,0.0,0.0,0.0,0.0,0.0,0.0,0.0,0.0,0.0,0.0,0.0,0.0,0.0,0.0,0.0,0.0,0.0,0.0,0.0,0.0,0.0,0.0,0.0,0.0,0.0,0.0,0.0,0.0,0.0,0.0,0.0,0.0,0.0,0.0,0.0,0.0,0.0,0.0,0.0,0.0,0.0,0.0,0.0,0.0,0.0,0.0,0.0,0.0,0.0,0.0,0.0,0.0,0.0,0.0,0.0,0.0,0.0,0.0,0.0,0.0,0.0,0.0,0.0,0.0,0.0,0.0,0.0,0.0,0.0,0.0,0.0,0.0,0.0,0.0,0.0,0.0,0.0,0.0,0.0,0.0,0.0,0.0,0.0,0.0,0.0,0.0,0.0,0.0,0.0,0.0,0.0,0.0,0.0,0.0,0.0,0.0,0.0,0.0,0.0,0.0,0.0,0.0,0.0,0.0,0.0,0.0,0.0,0.0,0.0,0.0,0.0,0.0,0.0,0.0,0.0,0.0,0.0,0.0,0.0,0.0,0.0,0.0,0.0,0.0,0.0,0.0,0.0,0.0,0.0,0.0,0.0,0.0,0.0,0.0,0.0,0.0,0.0,0.0,0.0,0.0,0.0,0.0,0.0,0.0,0.0,0.0,0.0,0.0,0.0,0.0,0.0,0.0,0.0,0.0,0.0,0.0,0.0,0.0,0.0,0.0,0.0,0.0,0.0,0.0,0.0,0.0,0.0,0.0,0.0,0.0,0.0,0.0,0.0,0.0,0.0,0.0,0.0,0.0,0.0,0.0,0.0,0.0,0.0,0.0,0.0,0.0,0.0,0.0,0.0,0.0,0.0,0.0,0.0,0.0,0.0,0.0,0.0,0.0,0.0,0.0,0.0,0.0,0.0,0.0,0.0,0.0,0.0,0.0,0.0,0.0,0.0,0.0,0.0,0.0,0.0,0.0,0.0,0.0,0.0,0.0,0.0,0.0,0.0,0.0,0.0,0.0,0.0,0.0,0.0,0.0,0.0,0.0,0.0,0.0,0.0,0.0,0.0,0.0,0.0,0.0,0.0,0.0,0.0,0.0,0.0,0.0,0.0,0.0,0.0,0.0,0.0,0.0,0.0,0.0,0.0,0.0,0.0,0.0,0.0,0.0,0.0,0.0,0.0,0.0,0.0,0.0,0.0,0.0,0.0,0.0,0.0,0.0,0.0,0.0,0.0,0.0,0.0,0.0,0.0,0.0,0.0,0.0,0.0,0.0,0.0,0.0,0.0,0.0,0.0,0.0,0.0,0.0,0.0,0.0,0.0,0.0,0.0,0.0,0.0,0.0,0.0,0.0,0.0,0.0,0.0,0.0,0.0,0.0,0.0,0.0,0.0,0.0,0.0,0.0,0.0,0.0,0.0,0.0,0.0,0.0,0.0,0.0,0.0,0.0,0.0,0.0,0.0,0.0,0.0,0.0,0.0,0.0,0.0,0.0,0.0,0.0,0.0,0.0,0.0,0.0,0.0,0.0,0.0,0.0,0.0,0.0,0.0,0.0,0.0,0.0,0.0,0.0,0.0,0.0,0.0,0.0,0.0,0.0,0.0,0.0,0.0,0.0,0.0,0.0,0.0,0.0,0.0,0.0,0.0,0.0,0.0,0.0,0.0,0.0,0.0,0.0,0.0,0.0,0.0,0.0,0.0,0.0,0.0,0.0,0.0,0.0,0.0,0.0,0.0,0.0,0.0,0.0,0.0,0.0,0.0,0.0,0.0,0.0,0.0,0.0,0.0,0.0,0.0,0.0,0.0,0.0,0.0,0.0,0.0,0.0,0.0,0.0,0.0,0.0,0.0,0.0,0.0,0.0,0.0,0.0,0.0,0.0,0.0,0.0,0.0,0.0,0.0,0.0,0.0,0.0,0.0,0.0,0.0,0.0,0.0,0.0,0.0,0.0,0.0,0.0,0.0,0.0,0.0,0.0,0.0,0.0,0.0,0.0,0.0,0.0,0.0,0.0,0.0,0.0,0.0,0.0,0.0,0.0,0.0,0.0,0.0,0.0,0.0,0.0,0.0,0.0,0.0,0.0,0.0,0.0,0.0,0.0,0.0,0.0,0.0,0.0,0.0,0.0,0.0,0.0,0.0,0.0,0.0,0.0,0.0,0.0,0.0,0.0,0.0,0.0,0.0,0.0,0.0,0.0,0.0,0.0,0.0,0.0,0.0,0.0,0.0,0.0,0.0,0.0,0.0,0.0,0.0,0.0,0.0,0.0,0.0,0.0,0.0,0.0,0.0,0.0,0.0,0.0,0.0,0.0,0.0,0.0,0.0,0.0,0.0,0.0,0.0,0.0,0.0,0.0,0.0,0.0,0.0,0.0,0.0,0.0,0.0,0.0,0.0,0.0,0.0,0.0,0.0,0.0,0.0,0.0,0.0,0.0,0.0,0.0,0.0,0.0,0.0,0.0,0.0,0.0,0.0,0.0,0.0,0.0,0.0,0.0,0.0,0.0,0.0,0.0,0.0,0.0,0.0,0.0,0.0,0.0,0.0,0.0,0.0,0.0,0.0,0.0,0.0,0.0,0.0,0.0,0.0,0.0,0.0,0.0,0.0,0.0,0.0,0.0,0.0,0.0,0.0,0.0,0.0,0.0,0.0,0.0,0.0,0.0,0.0,0.0,0.0,0.0,0.0,0.0,0.0,0.0,0.0,0.0,0.0,0.0,0.0,0.0,0.0,0.0,0.0,0.0,0.0,0.0,0.0,0.0,0.0,0.0,0.0,0.0,0.0,0.0,0.0,0.0,0.0,0.0,0.0,0.0,0.0,0.0,0.0,0.0,0.0,0.0,0.0,0.0,0.0,0.0,0.0,0.0,0.0,0.0,0.0,0.0,0.0,0.0,0.0,0.0,0.0,0.0,0.0,0.0,0.0,0.0,0.0,0.0,0.0,0.0,0.0,0.0,0.0,0.0,0.0,0.0,0.0,0.0,0.0,0.0,0.0,0.0,0.0,0.0,0.0,0.0,0.0,0.0,0.0,0.0,0.0,0.0,0.0,0.0,0.0,0.0,0.0,0.0,0.0,0.0,0.0,0.0,0.0,0.0,0.0,0.0,0.0,0.0,0.0,0.0,0.0,0.0,0.0,0.0,0.0,0.0,0.0,0.0,0.0,0.0,0.0,0.0,0.0,0.0,0.0,0.0,0.0,0.0,0.0,0.0,0.0,0.0,0.0,0.0,0.0,0.0,0.0,0.0,0.0,0.0,0.0,0.0,0.0,0.0,0.0,0.0,0.0,2.1784,0.0,0.0,0.0,0.0,0.0,0.0,0.0,0.0,0.0,0.0,0.0,0.0,0.0,0.0,0.0,0.0,0.0,0.0,0.0,0.0,0.0,0.0,0.0,0.0,2.4278,2.5443,2.6297,2.6353,2.6523,2.6834,0.0,0.0,0.0,0.0,0.0,2.5564,2.4933,2.5077,2.6026,2.6148,2.6332,2.6619,2.4833,2.3498,2.2591,0.0,0.0,0.0,0.0,0.0,0.0,0.0,0.0,0.0,0.0,0.0,0.0,0.0,0.0,0.0,0.0,0.0,0.0,0.0,0.0,0.0,0.0,0.0,0.0,0.0,0.0,0.0,0.0,0.0,0.0,0.0,0.0,0.0,0.0,0.0,0.0,0.0,0.0,0.0,0.0,0.0,0.0,0.0,0.0,0.0,0.0,0.0,0.0,0.0,0.0,0.0,0.0,0.0,0.0,0.0,0.0,0.0,0.0,0.0,0.0,0.0,0.0,0.0,0.0,0.0,0.0,0.0,0.0,0.0,0.0,0.0,2.3766,0.0,0.0,0.0,0.0,0.0,0.0,0.0,0.0,0.0,0.0,0.0,0.0,0.0,0.0,0.0,0.0,0.0,0.0,0.0,0.0,0.0,2.2339,2.4449,2.6043,2.7508,2.8874,2.8735,2.8707,2.8962,2.8269,0.0,0.0,0.0,2.7375,2.7944,2.6961,2.7335,2.9117,2.919,2.9628,3.0391,3.0104,2.9143,2.7538,2.53,0.0,0.0,0.0,0.0,0.0,0.0,0.0,0.0,0.0,0.0,0.0,0.0,0.0,0.0,0.0,0.0,0.0,0.0,0.0,0.0,0.0,0.0,0.0,0.0,0.0,0.0,0.0,0.0,0.0,0.0,0.0,0.0,0.0,0.0,0.0,0.0,0.0,0.0,0.0,0.0,0.0,0.0,0.0,0.0,0.0,0.0,0.0,0.0,0.0,0.0,0.0,0.0,0.0,0.0,0.0,0.0,0.0,0.0,0.0,0.0,0.0,0.0,0.0,3.1719,3.1923,3.1651,3.1816,3.1994,3.1932,2.7088,2.6894,2.9766,2.7189,0.0,0.0,0.0,0.0,0.0,0.0,0.0,0.0,0.0,0.0,0.0,0.0,0.0,0.0,0.0,0.0,0.0,0.0,0.0,2.4437,2.5355,2.7174,2.9151,3.1085,3.0132,2.9964,3.1178,3.0072,0.0,0.0,2.9238,2.9262,2.9322,2.9684,3.0337,3.13,3.3694,3.5518,3.6781,3.6035,3.5583,3.5092,2.9609,2.7168,2.7084,0.0,0.0,0.0,0.0,0.0,0.0,0.0,0.0,0.0,0.0,0.0,0.0,0.0,0.0,0.0,0.0,0.0,0.0,0.0,0.0,0.0,0.0,0.0,0.0,0.0,0.0,0.0,0.0,0.0,0.0,0.0,0.0,0.0,0.0,0.0,0.0,0.0,0.0,0.0,0.0,0.0,2.6826,2.7415,0.0,0.0,0.0,0.0,0.0,0.0,0.0,0.0,0.0,0.0,0.0,0.0,0.0,3.2511,3.3171,3.4554,3.5102,3.4819,3.6318,3.625,3.473,3.5367,3.467,3.3002,3.4099,0.0,3.0645,2.9478,0.0,0.0,0.0,0.0,0.0,0.0,0.0,0.0,0.0,0.0,0.0,0.0,0.0,0.0,0.0,0.0,0.0,0.0,0.0,0.0,0.0,3.0467,3.2128,3.3858,3.3437,3.3164,3.3361,3.2468,3.157,3.0754,3.0717,3.0525,3.0169,3.1202,3.2924,3.5305,3.7242,3.8739,3.976,3.9003,3.8613,3.8488,3.5824,3.3006,3.0172,2.7736,0.0,0.0,0.0,0.0,0.0,0.0,0.0,0.0,0.0,0.0,0.0,0.0,0.0,0.0,0.0,0.0,0.0,0.0,0.0,0.0,0.0,0.0,0.0,0.0,0.0,0.0,0.0,0.0,0.0,0.0,0.0,0.0,0.0,0.0,0.0,0.0,0.0,0.0,0.0,2.6766,2.8549,2.8147,2.8725,2.8574,0.0,0.0,0.0,0.0,0.0,0.0,0.0,0.0,0.0,3.4575,3.5127,3.5956,3.7136,3.7563,3.7814,3.7889,3.8291,3.8241,3.7764,3.8089,3.7393,3.5892,3.6869,3.6041,3.3916,3.2878,3.1953,3.097,0.0,0.0,0.0,0.0,2.573,2.6411,0.0,0.0,0.0,0.0,0.0,0.0,0.0,0.0,0.0,0.0,0.0,0.0,3.1792,3.3486,3.5062,3.6664,3.6541,3.6155,3.5766,3.4613,3.3501,3.2452,3.2215,3.1978,3.1663,3.3444,3.5901,3.9162,4.03,4.1271,4.2052,4.1232,4.0841,4.0841,4.0435,3.7933,3.3901,3.1073,2.9011,2.7458,0.0,0.0,0.0,0.0,0.0,0.0,0.0,0.0,0.0,0.0,0.0,0.0,0.0,0.0,0.0,0.0,0.0,0.0,0.0,0.0,0.0,0.0,0.0,0.0,0.0,0.0,0.0,0.0,0.0,0.0,0.0,0.0,0.0,0.0,0.0,0.0,0.0,2.8775,3.0256,2.9277,3.0758,3.1009,0.0,0.0,0.0,0.0,0.0,0.0,3.4851,3.4951,3.5906,3.7965,3.804,3.8693,4.0099,3.9697,3.9697,4.0099,3.9697,3.9599,3.9702,3.9702,3.9247,3.8442,3.8442,3.7966,3.7117,3.5713,3.4988,3.446,3.1166,2.9448,2.8762,2.8663,2.8887,2.9436,0.0,0.0,0.0,0.0,0.0,0.0,0.0,0.0,0.0,0.0,0.0,3.022,3.3161,3.5206,3.7204,3.9304,3.8449,3.8012,0.0,3.6102,3.4616,3.4558,3.3854,3.379,3.4494,3.73,3.9875,4.2088,4.2853,4.3658,4.4395,4.3551,4.3131,4.3068,4.1619,4.0062,3.8469,3.7025,3.5198,3.3054,3.0394,0.0,0.0,0.0,0.0,0.0,0.0,0.0,0.0,0.0,0.0,0.0,0.0,0.0,0.0,0.0,0.0,0.0,0.0,0.0,0.0,0.0,0.0,0.0,0.0,0.0,0.0,0.0,0.0,0.0,0.0,0.0,0.0,0.0,0.0,0.0,0.0,0.0,0.0,3.2089,3.3903,0.0,0.0,0.0,0.0,3.4424,3.4956,3.6009,3.7713,3.7789,3.8592,4.03,4.035,4.0651,4.12,4.1175,4.1175,4.12,4.1175,4.0668,3.973,3.973,3.9688,3.9597,3.9597,3.9549,3.9398,3.718,3.6299,3.6109,3.4344,3.2866,3.1945,3.3109,3.2572,3.1504,0.0,0.0,0.0,0.0,0.0,2.2255,2.3449,2.4265,2.5528,2.7777,3.0658,3.3259,3.5261,3.8173,4.0481,4.1736,4.1438,4.107,4.0796,3.8574,3.708,3.6661,3.6022,3.664,3.8706,4.0269,4.2117,4.4367,4.4699,4.5263,4.6007,4.5211,4.4859,4.4796,4.376,4.2746,4.1659,3.9235,3.7026,3.4993,3.362,3.0903,0.0,0.0,0.0,0.0,0.0,0.0,0.0,0.0,0.0,0.0,0.0,0.0,0.0,0.0,0.0,0.0,0.0,0.0,0.0,0.0,0.0,0.0,0.0,0.0,0.0,0.0,0.0,0.0,0.0,0.0,0.0,0.0,0.0,0.0,0.0,0.0,0.0,3.4329,3.6332,0.0,3.5052,3.5881,3.6784,3.7337,3.8241,3.9119,4.0047,4.0097,4.0601,4.153,4.158,4.1831,4.2384,4.2032,4.1856,4.1856,4.1505,4.1096,4.0714,4.034,4.004,3.9686,3.9694,3.9673,3.9574,3.8341,3.7533,3.6984,3.5919,3.4915,3.4135,3.4335,3.4065,3.3588,0.0,0.0,0.0,0.0,2.2377,2.2801,2.4271,2.5135,2.6775,2.9981,3.2801,3.5444,3.7921,4.0717,4.2641,4.3124,4.3248,4.2965,4.2216,4.0405,3.9177,3.8755,3.8572,3.9777,4.2438,4.3208,4.4582,4.6644,4.6731,4.7031,4.7485,4.6753,4.6271,4.5998,4.5303,4.4519,4.3686,4.1744,3.9635,3.7623,3.673,3.4275,3.103,0.0,0.0,0.0,0.0,0.0,0.0,0.0,0.0,0.0,0.0,0.0,0.0,0.0,0.0,0.0,0.0,0.0,0.0,0.0,0.0,0.0,0.0,0.0,0.0,0.0,0.0,0.0,0.0,0.0,0.0,0.0,0.0,0.0,0.0,0.0,3.6752,3.6179,3.8241,3.9044,3.741,3.8366,3.9371,4.0,4.0651,4.1304,4.1856,4.1882,4.2057,4.2464,4.2489,4.2665,4.2986,4.2665,4.2489,4.2489,4.2057,4.1806,4.1605,4.1229,4.0671,3.9984,3.9969,3.9873,3.9672,3.9194,3.8592,3.7911,3.7209,3.6413,3.5672,3.5608,3.544,3.5301,0.0,0.0,0.0,2.2721,2.2487,2.2829,2.4316,2.5182,2.7468,3.2508,3.4306,3.6701,4.0998,4.2703,4.3551,4.3551,4.3777,4.3599,4.2821,4.1471,4.0724,4.0739,4.1561,4.3109,4.5404,4.6175,4.7346,4.8968,4.8944,4.8944,4.8954,4.8207,4.748,4.6751,4.606,4.5382,4.4705,4.4671,4.3383,4.1222,3.974,3.7892,3.5817,0.0,0.0,0.0,0.0,0.0,0.0,0.0,0.0,0.0,0.0,0.0,0.0,0.0,0.0,0.0,0.0,0.0,0.0,0.0,0.0,0.0,0.0,0.0,0.0,0.0,0.0,0.0,0.0,0.0,0.0,0.0,0.0,0.0,3.5098,3.7899,3.9411,3.7678,3.9825,4.0805,3.9246,4.045,4.1605,4.2187,4.2238,4.2464,4.2961,4.2986,4.2986,4.2986,4.2986,4.2986,4.2986,4.2986,4.2986,4.2986,4.2986,4.2766,4.2238,4.2213,4.158,4.0551,4.0526,4.0199,3.9697,3.9697,3.9371,3.8894,3.8266,3.7367,3.6525,3.7014,3.6835,3.6405,0.0,0.0,2.3069,2.3069,2.2984,2.3482,2.4987,2.6387,2.8599,3.2294,3.5325,3.8093,4.0438,4.2903,4.4378,4.4378,4.4437,4.4401,4.4181,4.2356,4.1375,4.1561,4.3826,4.5651,4.6895,4.7643,4.8784,5.0329,4.9933,4.9968,5.0474,4.9729,4.9299,4.9017,4.7723,4.7051,4.6805,4.616,4.553,4.4792,4.2945,4.0318,3.7459,0.0,0.0,0.0,0.0,0.0,0.0,0.0,0.0,0.0,0.0,0.0,0.0,0.0,0.0,0.0,0.0,0.0,0.0,0.0,0.0,0.0,0.0,0.0,0.0,0.0,0.0,0.0,0.0,0.0,0.0,0.0,0.0,4.2225,4.0277,4.1901,4.3436,4.3751,4.3938,4.383,4.3361,4.2808,4.2585,4.2791,4.276,4.2811,4.2961,4.2986,4.2986,4.2986,4.2986,4.2986,4.2986,4.2986,4.2986,4.2986,4.2986,4.2886,4.2791,4.2389,4.1781,4.105,4.0701,4.0199,3.9697,3.9697,3.9597,3.9472,3.9297,3.8541,3.7491,3.6846,3.6518,3.6405,0.0,2.3421,2.3421,2.3421,2.3567,2.4121,2.5313,2.7132,2.9594,3.2945,3.6059,3.8807,4.0957,4.2992,4.4195,4.4195,4.4195,4.4048,4.3718,4.283,4.3012,4.4493,4.6203,4.7854,4.9331,4.9819,5.0613,5.1886,5.1509,5.1538,5.1946,5.1238,5.0686,5.0389,4.917,4.8504,4.815,4.7286,4.6944,4.6825,4.5265,4.3074,4.0663,3.9755,3.7944,3.5844,3.5192,3.4556,3.3852,3.3201,0.0,0.0,0.0,0.0,0.0,0.0,0.0,0.0,0.0,0.0,0.0,0.0,0.0,0.0,0.0,0.0,0.0,0.0,0.0,0.0,0.0,0.0,0.0,0.0,4.4077,4.628,4.5553,4.5789,4.6259,4.6611,4.6179,4.5872,4.5872,4.5155,4.4481,4.3852,4.3852,4.3602,4.3042,4.2986,4.2986,4.2986,4.2986,4.2986,4.2986,4.2986,4.2986,4.2986,4.2986,4.2986,4.2961,4.2715,4.2208,4.1656,4.1103,4.0551,4.0075,4.0364,4.0516,0.0,0.0,0.0,0.0,0.0,3.6792,3.7428,0.0,2.3631,2.3642,2.3674,2.411,2.4727,2.5499,2.7589,3.0399,3.4066,3.6451,3.8905,4.1849,4.28,4.3294,4.3368,4.3368,4.3164,0.0,4.3422,4.5258,4.8235,4.8582,4.9738,5.194,5.2087,5.2491,5.3203,5.3203,5.3203,5.3203,5.2531,5.1868,5.1226,5.0533,4.9862,4.9209,4.8402,4.7986,4.7844,4.698,4.5798,4.4312,4.2372,4.1188,4.0396,3.8976,3.801,3.7182,3.5722,0.0,0.0,0.0,0.0,0.0,0.0,0.0,0.0,0.0,0.0,0.0,0.0,0.0,0.0,0.0,0.0,0.0,0.0,0.0,0.0,0.0,0.0,0.0,0.0,4.683,4.8955,5.0136,4.9292,4.8284,4.7651,4.7402,4.735,4.735,4.7197,4.6578,4.5342,4.5102,4.4535,4.3492,0.0,0.0,0.0,0.0,4.324,4.324,4.3406,4.3295,4.2986,4.3129,4.3129,4.2986,4.2986,4.274,4.2187,4.163,4.1078,4.0581,4.1382,4.1743,4.169,4.0465,3.9855,3.952,3.8111,3.8523,3.9734,0.0,2.3282,2.3362,2.3642,2.4316,2.5154,2.6224,2.7898,3.044,3.4393,3.5908,3.7842,4.0985,4.1462,4.1846,4.247,4.2543,4.3152,4.4612,4.5766,4.7113,4.8687,5.0394,5.1499,5.1977,5.2637,5.302,5.3203,5.3203,5.3203,5.3203,5.306,5.2907,5.2724,5.1959,5.1536,5.1353,5.0529,4.9836,4.9159,4.8475,4.6972,4.507,4.4671,4.4026,4.3276,4.2361,4.166,4.1011,4.002,3.8573,3.7212,3.7077,0.0,0.0,0.0,0.0,0.0,0.0,0.0,0.0,0.0,0.0,0.0,0.0,0.0,0.0,0.0,0.0,0.0,0.0,0.0,0.0,4.6352,4.8476,5.0076,5.093,5.0785,5.055,5.043,4.9455,4.8787,4.8787,4.7757,4.6991,4.6682,4.5661,4.5395,4.6265,4.4209,4.4016,4.6213,4.5209,4.4643,4.4643,4.5767,4.5209,4.3042,0.0,0.0,4.2986,4.2986,4.274,4.2213,4.2112,4.143,4.0606,4.1774,4.261,4.3047,4.207,4.0893,4.018,4.3827,4.5379,4.5328,2.2725,2.3007,2.3247,2.3432,2.442,2.5458,2.6216,2.8045,3.039,3.34,3.4894,3.6597,3.9019,3.968,4.0084,4.0451,4.1024,4.2477,4.5109,4.6451,4.8098,5.0327,5.185,5.268,5.2895,5.3302,5.342,5.3203,5.3203,5.3203,5.3203,5.3203,5.3203,5.3167,5.2784,5.2601,5.2564,5.1756,5.1169,5.0708,4.9565,4.8442,4.7349,4.6242,4.5374,4.464,4.3815,4.3142,4.2426,4.1279,4.0227,3.9371,3.9093,3.8227,3.6962,0.0,0.0,0.0,0.0,0.0,0.0,0.0,0.0,0.0,0.0,0.0,0.0,0.0,0.0,4.1085,0.0,0.0,4.6471,4.8446,4.9837,5.084,5.1169,5.1229,5.1229,5.1229,5.0603,5.0191,5.0191,4.9582,4.8589,4.7197,4.7094,4.6785,4.6083,4.5395,4.5661,4.7043,4.6422,4.6083,4.6083,4.6733,4.6422,4.5048,4.5714,4.5714,4.5048,4.5048,4.489,4.4652,4.4362,4.3728,4.2933,4.3612,4.449,4.5389,4.4903,4.3726,4.2666,4.6056,4.6902,4.6223,2.2313,2.2686,2.3021,2.3093,2.4375,2.5551,2.5949,2.792,3.0074,3.2025,3.3606,3.5151,3.6831,3.7734,3.8358,3.8689,3.9888,4.1997,4.5223,4.6789,4.8933,5.2,5.2983,5.3607,5.3941,5.3923,5.372,5.3297,5.3297,5.3293,5.3203,5.3203,5.3203,5.3203,5.3203,5.3203,5.3188,5.2527,5.2123,5.1867,5.0418,4.9757,4.9365,4.732,4.6154,4.5557,4.4749,4.39,4.2967,4.1576,4.1013,4.0803,4.0279,3.9706,3.8937,3.7642,3.7134,0.0,0.0,0.0,0.0,0.0,0.0,0.0,0.0,0.0,3.9968,4.2449,4.3369,4.4447,4.6681,4.7519,4.8446,5.0106,5.0823,5.1229,5.1229,5.1229,5.1229,5.1229,5.1229,5.1229,5.1229,5.1229,5.0287,4.8088,4.8688,4.8339,4.6317,4.6785,4.735,4.7859,4.7656,4.7503,4.7503,4.7757,4.7605,4.7094,4.735,4.735,4.7094,4.7094,4.7094,4.7067,4.6399,4.594,4.5658,4.5492,4.6166,4.7309,4.7309,4.6476,4.547,4.6812,4.6609,4.5798,0.0,2.2349,2.248,2.2708,2.4072,2.5254,2.5538,2.7274,2.9137,3.0867,3.2119,3.3463,3.5114,3.6046,3.7147,3.8579,4.0407,4.2721,4.5631,4.7971,5.0213,5.2462,5.3686,5.4393,5.442,5.4404,5.4187,5.3739,5.3739,5.3546,5.3203,5.3203,5.3203,5.3203,5.3203,5.3203,5.3167,5.3093,5.2637,5.1903,5.1022,5.0251,4.9407,4.7694,4.6978,4.6814,4.5973,4.4868,4.3564,4.2165,4.134,4.0803,4.0279,4.0045,3.9808,3.8971,0.0,3.7729,3.7479,3.8575,4.0358,4.2976,4.3094,4.3644,0.0,0.0,4.6348,4.8036,4.8491,4.8745,4.9598,4.9807,5.0136,5.099,5.1169,5.1229,5.1229,5.1229,5.1229,5.1229,5.1229,5.1229,5.1229,5.1229,5.1058,5.0745,4.9776,4.9582,5.046,4.8339,4.8239,5.065,4.9582,4.8964,4.8964,5.0143,4.9504,4.7094,4.8389,4.8339,4.7094,4.7094,4.7094,4.7039,4.5907,4.5993,4.689,4.5815,4.6166,4.7309,4.7309,4.7193,4.7032,4.7239,4.7193,4.6907,0.0,2.2313,2.2335,2.2467,2.3739,2.5016,2.5792,2.6957,2.8251,2.9647,3.0428,3.1478,3.3116,3.4247,3.5495,3.7147,3.9269,4.182,4.5004,4.7855,5.0509,5.2855,5.3962,5.4598,5.4848,5.4833,5.464,5.4204,5.3923,5.372,5.3526,5.3297,5.3203,5.3203,5.3203,5.3203,5.3203,5.3203,5.2747,5.194,5.1132,4.9994,4.869,4.7189,4.6051,4.5253,4.5187,4.4839,0.0,0.0,4.1639,4.1286,4.0368,3.9808,3.9377,3.9073,3.9073,0.0,4.1305,4.2557,4.3741,0.0,4.6213,4.7111,4.9378,4.8606,4.8038,5.0345,5.0291,5.0032,5.0644,5.0764,5.0853,0.0,5.1229,5.1229,5.1229,5.1229,5.1079,5.0644,5.0943,5.1229,5.1229,5.1229,5.087,5.0095,5.0239,5.0287,5.0047,4.9679,5.0017,5.1182,5.065,5.0335,5.0335,5.0917,5.0603,4.9455,5.0095,5.0095,4.9455,4.9455,4.9455,4.9426,4.8528,4.8249,4.8332,4.7494,4.717,4.7309,4.7309,4.7309,4.7309,4.7309,4.7309,4.71,0.0,2.2313,2.2347,2.255,2.3661,2.4785,2.5601,2.6619,2.76,2.8493,2.9269,3.0448,3.2199,3.325,3.4468,3.6156,3.8302,4.0913,4.4134,4.7417,5.0248,5.2433,5.3549,5.4375,5.4918,5.4944,5.4852,5.4655,5.4338,5.4048,5.3777,5.3524,5.3334,5.3203,5.3203,5.3203,5.3188,5.2968,5.2527,5.1903,5.0875,4.9591,4.8138,4.69,4.5329,4.3811,4.4072,4.3999,0.0,0.0,4.11,4.0969,3.9718,3.9059,3.8768,3.9174,3.9977,4.123,4.3606,4.5128,0.0,4.7428,4.8746,4.9891,5.0439,4.9871,4.9653,5.1293,5.0931,5.0487,5.0857,5.0913,5.0973,5.1199,5.1229,5.1229,5.1229,5.1229,5.1003,5.0524,5.0883,5.1229,5.1229,5.1229,5.0793,4.9824,5.065,5.0745,4.9776,5.065,5.1229,5.1229,5.1229,5.1229,5.1229,5.1229,5.1229,5.1229,5.1229,5.1229,5.1229,5.1229,5.1229,5.1169,5.0465,4.9972,4.9464,4.8626,4.7997,4.7549,4.7369,4.7309,4.7309,4.7309,4.7309,4.713,0.0,0.0,2.253,2.3241,2.4,2.4508,2.4557,2.6105,2.7319,2.7369,2.9015,3.095,3.297,3.3564,3.4468,3.6156,3.8089,4.0414,4.3265,4.688,4.9483,5.0741,5.2356,5.3654,5.45,5.4538,5.4703,5.5094,5.508,5.4618,5.3777,5.3814,5.3565,5.3203,5.3203,5.3203,5.313,5.238,5.2013,5.1867,5.0271,4.9077,4.8194,4.7094,4.5366,4.3465,4.292,0.0,0.0,3.9644,3.9294,3.9338,3.7935,3.7672,0.0,3.9673,4.1094,4.2388,4.3234,4.506,4.7293,4.9458,5.1116,5.227,5.2726,5.2762,5.2356,5.1111,5.0801,5.0703,5.0305,5.0226,5.0435,5.1063,5.1229,5.1229,5.1229,5.1229,5.1199,5.1199,5.1199,5.1229,0.0,5.1229,5.1182,5.1105,5.1182,5.1182,5.1105,5.1182,5.1229,5.1229,5.1229,5.1229,5.1229,5.1229,5.1229,5.1229,5.1229,5.1229,5.1229,5.1229,5.1229,5.1169,5.0465,5.0196,5.0076,4.8805,4.8267,4.8207,4.7549,4.7309,4.7309,4.7309,4.7309,4.7219,0.0,0.0,0.0,2.4,2.4729,2.5236,2.5236,2.6179,2.7174,2.7996,2.9769,0.0,0.0,0.0,0.0,0.0,3.7087,3.9511,4.2115,4.4625,4.6973,4.9087,5.0436,5.1429,5.203,5.3096,5.3563,5.3455,5.3429,5.3172,5.2602,5.284,5.277,5.2417,5.2417,5.2417,5.2344,5.1536,5.1499,5.1793,4.9627,4.8563,4.8028,4.5738,4.3698,4.2014,0.0,0.0,0.0,3.8956,3.8615,3.8566,3.7956,0.0,0.0,3.9681,4.1508,4.3403,4.5196,4.7631,5.0135,5.1928,5.3112,5.3991,5.4619,5.3775,5.2913,5.2909,5.155,5.0457,5.0809,5.0278,5.0049,5.0764,5.1061,5.1229,5.1229,5.1229,5.1003,5.0584,5.096,0.0,0.0,0.0,0.0,5.1229,5.1229,5.1229,5.1229,5.1229,5.1229,5.1229,5.1229,5.1229,5.1229,5.1229,5.1229,5.1229,5.1229,5.1229,5.1229,5.1229,5.1229,5.1199,5.0943,5.0584,5.0136,4.9284,4.8686,4.8207,4.7549,4.7309,4.7309,4.7309,4.7309,4.7219,0.0,0.0,0.0,0.0,0.0,0.0,0.0,0.0,0.0,0.0,0.0,0.0,0.0,0.0,0.0,0.0,0.0,3.809,4.0411,4.2425,4.4584,4.6944,4.777,4.8732,4.993,5.0671,5.1188,5.1522,5.1534,5.1481,5.1378,5.1588,5.1621,5.1573,5.1573,5.1573,5.1499,5.0398,5.0215,5.0472,4.8306,4.7278,4.6818,4.5028,4.3244,0.0,0.0,0.0,3.9276,3.8133,3.7977,3.8214,3.7509,3.8133,3.9343,4.0527,4.2658,4.5162,4.7699,4.9965,5.2029,5.3856,5.4431,5.4702,5.5209,5.3945,5.2743,5.2847,5.0876,4.9336,4.9955,4.8974,4.8522,4.9747,5.0075,5.0331,5.0764,5.0823,5.0764,5.0554,5.096,5.105,0.0,0.0,0.0,5.1229,5.1229,5.1229,5.1229,5.1229,5.1229,5.1229,5.1229,5.1229,5.1229,5.1229,5.1229,5.1229,5.1229,5.1229,5.1229,5.1229,5.1229,5.1229,5.1229,5.099,5.0465,4.9643,4.906,4.8536,4.7668,4.7309,4.7309,4.7309,4.7309,4.7249,0.0,0.0,0.0,0.0,0.0,0.0,0.0,0.0,0.0,0.0,0.0,0.0,0.0,0.0,0.0,0.0,0.0,0.0,3.8309,4.034,4.2343,4.4244,4.4498,4.5682,4.8046,4.7408,4.7851,4.9438,4.9466,4.9649,4.9993,5.0067,5.0249,5.0618,5.0618,5.0618,5.0508,4.8857,4.8233,4.8159,4.6507,4.5443,4.4839,4.4979,0.0,0.0,0.0,0.0,0.0,3.7199,3.747,0.0,0.0,3.8845,4.1542,4.2354,4.4688,4.7631,5.0507,5.1894,5.3044,5.5243,5.5209,5.4634,5.46,5.3382,5.1967,5.0914,4.8956,4.7501,0.0,0.0,4.6276,4.8326,4.8566,4.8925,5.0138,5.0272,5.0465,0.0,0.0,0.0,0.0,0.0,0.0,5.1229,0.0,5.1229,5.1229,5.1229,5.1229,5.1229,5.1229,5.1229,5.1229,5.1229,5.1229,5.1229,5.1229,5.1229,5.1229,5.1229,5.1229,5.1229,5.1229,5.1229,5.1109,4.9853,4.9329,4.9179,4.7848,4.7339,4.7309,4.7309,4.7309,4.7309,0.0,0.0,0.0,0.0,0.0,0.0,0.0,0.0,0.0,0.0,0.0,0.0,0.0,0.0,0.0,0.0,0.0,0.0,3.7381,3.8096,3.9174,4.08,4.2281,4.3407,4.4142,4.5664,4.6705,4.7311,4.7584,4.764,4.7474,4.8054,4.8229,4.803,4.803,4.803,4.7993,4.6948,4.7205,4.8122,0.0,4.5608,4.6305,0.0,0.0,0.0,0.0,0.0,0.0,0.0,0.0,0.0,0.0,4.2596,4.4079,4.594,4.8206,5.0371,5.1657,5.3788,5.5784,5.6393,5.5987,5.5277,5.4735,5.2976,5.1119,4.9747,4.7701,4.62,0.0,0.0,0.0,4.905,5.02,0.0,5.2116,5.1455,0.0,5.1199,0.0,5.1229,5.1229,5.1229,0.0,0.0,5.1229,5.1229,5.1229,5.1229,5.1229,5.1229,5.1229,5.1229,5.1229,5.1229,5.1229,5.1229,5.1229,5.1229,5.1229,5.1229,5.1229,5.1229,5.1229,5.1229,5.1169,5.0331,4.9703,4.9239,4.8356,4.7728,4.7309,4.7309,4.7309,4.7309,0.0,0.0,0.0,0.0,0.0,0.0,0.0,0.0,0.0,0.0,0.0,0.0,0.0,0.0,0.0,0.0,0.0,0.0,0.0,3.6548,3.7388,3.9022,3.9759,4.0539,4.1326,4.2847,4.3832,4.4314,4.5127,4.5599,4.5712,4.6177,4.6446,4.6562,4.6562,4.6562,4.6544,4.57,0.0,0.0,0.0,0.0,0.0,0.0,0.0,0.0,0.0,0.0,0.0,0.0,0.0,4.1467,4.3707,4.5162,4.6481,4.8714,0.0,5.2942,5.3991,5.575,5.7205,5.6867,5.6258,5.5243,5.3518,5.1623,4.9729,4.7936,4.5771,0.0,4.4654,4.5103,0.0,0.0,0.0,0.0,5.2995,5.2654,5.237,0.0,5.2215,0.0,5.1926,5.1479,5.1229,0.0,5.1229,5.1229,5.1229,5.1229,5.1229,5.1229,5.1229,5.1229,5.1229,5.1229,5.1229,5.1229,5.1229,5.1229,5.1229,5.1229,5.1229,5.1229,0.0,5.1229,5.1169,5.0465,4.9853,4.9239,4.8536,4.7878,4.7309,4.7309,4.7309,4.7309,0.0,0.0,0.0,0.0,0.0,0.0,0.0,0.0,0.0,0.0,0.0,0.0,0.0,0.0,0.0,0.0,0.0,0.0,0.0,0.0,3.6303,3.7952,3.7459,3.7815,3.9297,3.9906,4.0582,4.1342,4.2556,4.3534,4.4214,4.4214,0.0,0.0,0.0,0.0,0.0,0.0,0.0,0.0,0.0,0.0,0.0,0.0,0.0,0.0,0.0,0.0,0.0,0.0,4.3484,4.3132,4.5432,4.7225,4.8886,5.1048,5.3179,5.5175,5.6562,5.7408,5.7712,5.6968,5.619,5.4769,5.1758,4.983,4.8037,4.5737,0.0,4.232,4.2861,4.3084,4.4141,4.7177,0.0,5.0601,5.3528,5.3824,5.3958,5.4525,5.3836,5.3214,5.3121,5.217,5.1616,5.1635,5.1526,5.1339,5.1229,5.1229,5.1229,5.1229,5.1229,5.1229,5.1229,5.1229,5.1229,5.1229,5.1229,5.1229,5.1229,5.1229,5.1229,5.1229,5.1229,0.0,5.1169,5.0554,4.9942,4.9239,4.8626,4.7967,4.7309,4.7309,4.7309,4.7309,0.0,0.0,0.0,0.0,0.0,0.0,0.0,0.0,0.0,0.0,3.0506,0.0,0.0,0.0,0.0,0.0,0.0,0.0,0.0,0.0,0.0,3.6012,3.658,3.7222,3.791,3.9055,3.9918,4.0492,4.1187,4.1572,4.1719,4.1719,0.0,0.0,0.0,0.0,0.0,0.0,0.0,0.0,0.0,0.0,0.0,0.0,0.0,0.0,0.0,0.0,0.0,4.4559,4.5009,4.55,4.7733,4.9864,5.186,5.3518,5.5141,5.6596,5.7476,5.778,5.7712,5.6968,5.5784,5.3991,5.098,4.868,0.0,0.0,4.2083,4.1238,4.0756,4.2146,4.4529,4.813,4.9723,5.1692,5.524,5.5013,5.4461,0.0,5.4974,5.4974,5.4359,5.384,0.0,0.0,0.0,5.22,5.1246,5.1229,5.1229,5.1229,5.1229,5.1229,5.1229,5.1229,5.1229,5.1229,5.1229,5.1229,5.1229,5.1229,5.1229,5.1229,5.1229,0.0,5.1199,5.1079,5.0331,4.9299,4.9179,4.8356,4.7309,4.7309,4.7309,4.7309,0.0,0.0,0.0,0.0,0.0,0.0,0.0,0.0,0.0,0.0,3.249,3.3023,0.0,0.0,0.0,0.0,0.0,0.0,0.0,0.0,0.0,0.0,3.596,3.6422,3.6936,3.828,0.0,0.0,0.0,0.0,0.0,0.0,0.0,0.0,0.0,0.0,0.0,0.0,0.0,0.0,0.0,0.0,0.0,0.0,0.0,0.0,0.0,0.0,0.0,0.0,4.4994,4.5371,4.7687,4.9695,5.1522,5.345,5.5074,5.6461,5.7577,5.7881,5.7611,5.6528,5.5412,5.3484,4.9323,0.0,0.0,0.0,4.0865,4.0493,4.018,4.1576,0.0,4.6278,4.8142,5.0526,5.4267,5.4696,0.0,5.6183,5.6497,5.6466,0.0,0.0,0.0,0.0,0.0,5.3526,5.2989,5.2989,5.2989,5.2989,5.2395,5.2109,5.2109,5.1526,5.1229,5.1229,5.1229,5.1229,5.1229,5.1229,5.1229,5.1229,5.1229,0.0,5.1229,5.1229,5.0631,4.9733,4.9449,4.8686,4.7788,4.7429,4.71,4.683,0.0,0.0,0.0,0.0,0.0,0.0,0.0,2.8301,2.9654,3.288,3.3824,3.4034,3.3527,3.305,3.2927,0.0,0.0,0.0,0.0,0.0,0.0,0.0,0.0,3.5854,3.6374,0.0,0.0,0.0,0.0,0.0,0.0,0.0,0.0,0.0,0.0,0.0,0.0,0.0,0.0,0.0,0.0,0.0,0.0,0.0,0.0,0.0,0.0,0.0,0.0,0.0,4.4391,4.435,4.6271,4.8158,5.0033,5.2164,5.4059,5.5784,5.7273,5.778,5.7543,5.6089,5.4905,5.2807,4.7902,4.5974,0.0,0.0,4.0113,4.0113,4.0113,4.106,4.2448,0.0,4.6177,4.8818,5.2942,5.4126,5.5412,0.0,5.795,0.0,5.7746,0.0,0.0,0.0,0.0,0.0,5.463,5.4589,5.4589,5.4589,5.3742,5.3253,5.3253,5.235,5.1926,5.1926,5.1926,5.1926,5.1926,5.1681,5.1542,5.1572,5.1293,0.0,0.0,5.1229,5.0794,5.0136,4.9523,4.891,4.8177,4.7399,4.677,4.6339,0.0,0.0,0.0,0.0,0.0,0.0,0.0,2.7785,2.9525,3.2226,3.3156,3.3578,3.3517,3.3439,3.3215,0.0,0.0,0.0,0.0,0.0,0.0,0.0,0.0,0.0,0.0,0.0,0.0,0.0,0.0,0.0,0.0,0.0,0.0,0.0,0.0,0.0,0.0,0.0,0.0,0.0,0.0,0.0,0.0,0.0,0.0,0.0,0.0,0.0,0.0,0.0,0.0,4.3087,4.3499,4.5672,4.8409,4.9965,0.0,0.0,5.6494,5.7374,5.7543,5.6089,5.4093,5.1522,4.7665,0.0,0.0,4.0587,4.0113,4.0113,4.0113,4.0214,4.1264,4.4141,0.0,4.7699,5.2773,5.4126,5.5412,5.7611,0.0,0.0,0.0,0.0,0.0,0.0,0.0,0.0,5.4713,5.4589,5.4589,5.4589,5.4505,5.4463,5.4463,5.4337,5.4295,5.4295,5.4295,5.4295,5.4253,5.3209,5.2723,5.2709,5.1635,0.0,0.0,5.1229,5.0794,5.0136,4.9523,4.891,4.8147,4.686,4.6339,4.619,0.0,0.0,0.0,0.0,0.0,0.0,0.0,2.7675,2.9205,3.2647,3.3335,3.3634,3.4053,3.3728,3.309,0.0,0.0,0.0,0.0,0.0,0.0,0.0,0.0,0.0,0.0,0.0,0.0,0.0,0.0,0.0,0.0,0.0,0.0,0.0,0.0,0.0,0.0,0.0,0.0,0.0,0.0,0.0,0.0,0.0,0.0,0.0,0.0,0.0,0.0,0.0,0.0,0.0,4.1921,4.2933,0.0,0.0,5.0461,5.3309,5.4499,5.5683,5.6325,5.531,5.2976,5.0236,4.7428,0.0,4.2252,4.0485,4.0113,4.0113,4.0113,4.0113,4.0485,4.1704,4.2489,4.4215,4.7665,4.9932,5.2232,5.4938,5.7746,0.0,0.0,0.0,0.0,0.0,0.0,0.0,5.6658,5.6619,5.6619,5.6619,5.5929,5.5538,5.5538,5.492,5.4589,5.4589,5.4589,5.4589,5.4589,5.4126,5.3526,5.2856,5.2395,0.0,0.0,5.1229,5.105,5.0734,5.0092,4.9464,4.882,4.7848,4.6741,4.5723,0.0,0.0,0.0,0.0,0.0,0.0,2.6926,2.7615,2.9161,3.276,3.3544,3.4057,3.4789,3.403,3.3244,3.2518,0.0,0.0,0.0,0.0,0.0,0.0,0.0,0.0,0.0,0.0,0.0,0.0,0.0,0.0,0.0,0.0,0.0,0.0,0.0,0.0,0.0,0.0,0.0,0.0,0.0,0.0,0.0,0.0,0.0,0.0,0.0,0.0,0.0,0.0,0.0,0.0,0.0,0.0,0.0,0.0,4.7844,5.0791,5.2399,5.3754,5.4566,5.4059,5.1657,4.8883,0.0,4.3978,4.161,4.0383,4.0113,4.0113,4.0113,4.0113,4.0113,4.0113,4.0696,4.2151,4.4886,4.7225,4.9898,0.0,0.0,5.7881,0.0,0.0,0.0,0.0,0.0,0.0,5.7881,5.7881,5.7881,5.7881,5.7114,5.6701,5.6701,5.5929,5.5571,5.5571,5.5571,5.5571,5.5571,5.5247,5.464,5.3839,5.3526,0.0,0.0,5.2063,5.2018,5.162,5.0955,5.065,5.038,4.8741,4.7581,4.6783,0.0,0.0,0.0,0.0,0.0,0.0,0.0,2.7673,2.9478,3.2261,3.3648,3.4717,3.5587,3.4387,3.3813,3.4583,0.0,0.0,0.0,0.0,0.0,0.0,0.0,0.0,0.0,0.0,0.0,0.0,0.0,0.0,0.0,0.0,0.0,0.0,0.0,0.0,0.0,0.0,0.0,0.0,0.0,0.0,0.0,0.0,0.0,0.0,0.0,0.0,0.0,0.0,0.0,0.0,0.0,0.0,0.0,0.0,4.4485,4.7496,5.0439,5.1792,5.2334,5.2334,5.0135,4.7361,4.5156,4.2828,4.1001,4.0248,4.0113,4.0113,4.0113,4.0113,4.0113,4.0113,4.0696,4.2523,4.6244,4.7428,0.0,0.0,0.0,5.5209,0.0,0.0,0.0,0.0,0.0,0.0,5.7881,5.7881,5.7881,5.7881,5.7881,5.7881,5.7881,5.7881,5.7881,5.7881,5.7881,5.7881,5.7845,5.6701,5.6204,0.0,0.0,0.0,0.0,5.4084,5.3913,5.2838,5.2157,5.2576,5.3059,4.9175,4.8899,5.0025,0.0,0.0,0.0,0.0,0.0,0.0,0.0,2.6851,2.8464,3.0676,3.2228,3.3559,3.468,3.4457,3.428,3.4525,0.0,0.0,0.0,0.0,0.0,0.0,0.0,0.0,0.0,0.0,0.0,0.0,0.0,0.0,0.0,0.0,0.0,0.0,0.0,0.0,0.0,0.0,0.0,0.0,0.0,0.0,0.0,0.0,0.0,0.0,0.0,0.0,0.0,0.0,0.0,0.0,0.0,0.0,0.0,4.0201,4.2562,0.0,4.6438,4.7597,4.8545,4.8545,4.6684,4.4626,4.3944,4.2049,4.0383,4.0146,4.0113,4.0113,4.0113,4.0113,4.0451,4.1467,4.1779,0.0,0.0,0.0,0.0,5.1725,5.4837,5.7239,0.0,0.0,0.0,0.0,0.0,0.0,5.7881,5.7881,5.7881,5.7881,5.7881,5.7881,5.7881,5.7881,5.7881,5.7881,5.7881,5.7881,5.7881,5.7554,5.6963,0.0,0.0,0.0,0.0,5.4463,5.4379,5.4052,5.383,5.3372,5.2701,5.1446,5.0452,4.9544,0.0,0.0,0.0,0.0,0.0,0.0,0.0,2.6805,2.8251,3.0016,3.1765,3.3362,3.4716,3.4926,3.5047,3.53,0.0,0.0,0.0,0.0,0.0,0.0,0.0,0.0,0.0,0.0,0.0,4.0601,4.0803,0.0,0.0,0.0,0.0,0.0,0.0,0.0,0.0,0.0,0.0,0.0,0.0,0.0,0.0,0.0,0.0,0.0,0.0,0.0,0.0,0.0,0.0,0.0,0.0,0.0,0.0,0.0,4.0601,4.2751,4.3836,4.4823,4.5602,4.5872,4.4451,4.2929,4.2658,4.1271,4.0113,4.0113,4.0113,4.0113,4.0113,4.0113,4.0417,4.1331,4.1677,0.0,0.0,0.0,0.0,5.186,0.0,0.0,0.0,0.0,0.0,0.0,0.0,0.0,5.7881,5.7881,5.7881,5.7881,5.7881,5.7881,5.7881,5.7881,5.7881,5.7881,5.7881,5.7881,5.7881,5.7881,5.7517,0.0,0.0,0.0,0.0,5.5651,5.5611,5.5174,5.4916,5.4507,5.4011,5.3032,5.2107,5.1205,0.0,0.0,0.0,0.0,0.0,0.0,0.0,0.0,0.0,0.0,3.2031,3.3863,3.5295,3.5638,3.6018,0.0,0.0,0.0,0.0,0.0,0.0,0.0,0.0,0.0,0.0,3.9368,4.0113,4.0113,4.0683,4.1311,4.1903,0.0,0.0,0.0,0.0,0.0,0.0,0.0,0.0,0.0,0.0,0.0,0.0,0.0,0.0,0.0,0.0,0.0,0.0,0.0,0.0,0.0,0.0,0.0,0.0,0.0,0.0,0.0,0.0,4.3003,4.3206,4.4073,4.3159,4.188,4.1271,4.0595,0.0,4.0113,4.0113,4.0113,4.018,4.0146,4.0146,4.0316,4.0967,0.0,0.0,4.7297,0.0,0.0,5.5006,0.0,0.0,0.0,0.0,0.0,0.0,0.0,5.7881,5.7881,5.7881,5.7881,5.7881,5.7881,5.7881,5.7881,5.7881,5.7881,5.7881,5.7881,5.7881,5.7881,5.7881,0.0,0.0,0.0,0.0,5.7446,5.7297,5.6255,5.5523,5.5825,5.6421,5.3941,5.3659,5.4296,0.0,0.0,0.0,0.0,0.0,0.0,0.0,0.0,0.0,0.0,0.0,3.2916,3.3829,3.5424,0.0,0.0,0.0,0.0,0.0,0.0,0.0,0.0,0.0,0.0,0.0,3.9639,4.0113,4.0113,4.1316,4.2195,4.276,4.3971,0.0,0.0,0.0,0.0,0.0,0.0,0.0,0.0,0.0,0.0,0.0,0.0,0.0,0.0,0.0,4.1625,0.0,0.0,0.0,0.0,0.0,0.0,0.0,0.0,3.9582,3.9559,3.9263,0.0,3.9512,4.0823,4.0485,3.9884,0.0,4.0214,4.0113,4.0113,4.0113,4.0282,4.0832,4.0485,4.0629,4.2354,0.0,0.0,4.7056,0.0,0.0,5.5784,5.6833,0.0,0.0,0.0,0.0,0.0,0.0,5.7881,5.7881,5.7881,5.7881,5.7881,5.7881,5.7881,5.7881,5.7881,5.7881,5.7881,5.7881,5.7881,5.7881,5.7881,5.7881,0.0,0.0,0.0,5.7517,5.7808,5.7738,5.7416,5.6673,5.6212,5.5817,5.4661,5.3988,5.3619,0.0,0.0,0.0,0.0,0.0,0.0,0.0,0.0,0.0,0.0,0.0,0.0,0.0,0.0,0.0,0.0,0.0,0.0,0.0,0.0,0.0,0.0,0.0,0.0,0.0,3.974,4.0282,0.0,0.0,4.2649,0.0,0.0,0.0,0.0,0.0,0.0,0.0,0.0,0.0,0.0,0.0,0.0,0.0,0.0,0.0,0.0,4.012,4.0524,0.0,4.1132,4.1919,4.2839,0.0,0.0,0.0,0.0,3.9279,3.8907,3.7968,3.8282,3.9106,3.991,4.0054,4.0121,4.0493,4.035,4.0154,4.0417,4.0279,4.029,4.0964,4.0798,4.1231,0.0,4.4643,0.0,0.0,0.0,5.5141,5.663,0.0,0.0,0.0,0.0,0.0,0.0,0.0,5.7881,5.7881,5.7881,5.7881,5.7881,5.7881,5.7881,5.7881,5.7881,5.7881,5.7881,5.7881,5.7881,5.7881,5.7881,5.7881,0.0,0.0,0.0,5.7881,5.7881,5.7881,5.7814,5.7103,5.6562,5.6122,5.5378,5.4634,5.3991,0.0,0.0,0.0,0.0,0.0,0.0,0.0,0.0,0.0,0.0,0.0,0.0,0.0,0.0,0.0,0.0,0.0,0.0,0.0,0.0,0.0,0.0,0.0,0.0,3.914,0.0,0.0,0.0,0.0,0.0,0.0,0.0,4.4506,0.0,0.0,0.0,0.0,0.0,0.0,0.0,0.0,0.0,0.0,0.0,0.0,0.0,0.0,0.0,0.0,4.0561,4.1442,4.2249,4.1992,0.0,0.0,0.0,0.0,0.0,3.7777,3.8986,4.0328,4.0118,4.0612,4.118,4.1282,4.0796,4.049,4.0943,4.0672,0.0,0.0,4.1533,0.0,0.0,0.0,0.0,5.357,5.4624,5.5448,0.0,0.0,0.0,0.0,0.0,0.0,0.0,0.0,5.7881,5.7881,5.7881,5.7881,5.7881,5.7881,5.7881,5.7881,5.7881,5.7881,5.7881,5.7881,5.7881,5.7881,5.7881,5.7881,5.7881,0.0,0.0,5.7881,5.7881,5.7881,5.7814,5.7103,5.6799,5.6697,5.5987,5.531,5.4871,0.0,0.0,0.0,0.0,0.0,0.0,0.0,0.0,0.0,0.0,0.0,0.0,0.0,0.0,0.0,0.0,0.0,0.0,0.0,0.0,0.0,0.0,0.0,3.9201,3.991,0.0,0.0,0.0,0.0,0.0,4.4978,4.6093,4.592,4.4654,0.0,0.0,0.0,0.0,0.0,0.0,0.0,0.0,0.0,0.0,0.0,0.0,0.0,0.0,0.0,3.9276,4.0524,4.2066,4.0708,0.0,0.0,0.0,0.0,0.0,3.8399,3.9855,4.1279,4.0123,4.04,4.107,4.1595,4.1622,4.1573,0.0,0.0,0.0,0.0,4.3684,4.4273,0.0,0.0,5.2145,0.0,0.0,0.0,0.0,0.0,0.0,0.0,0.0,0.0,0.0,0.0,5.7881,5.7881,5.7881,5.7881,5.7881,5.7881,5.7881,5.7881,5.7881,5.7881,5.7881,5.7881,5.7881,5.7881,5.7881,5.7881,5.7881,0.0,5.7881,5.7881,5.7881,5.7881,5.7814,5.7103,5.6799,5.6697,5.5987,5.5649,5.5547,0.0,0.0,0.0,0.0,0.0,0.0,0.0,0.0,0.0,0.0,0.0,0.0,0.0,0.0,0.0,0.0,0.0,0.0,0.0,0.0,0.0,0.0,3.9774,3.9774,4.0079,0.0,0.0,0.0,0.0,4.532,4.6344,4.6428,4.559,4.4048,0.0,0.0,0.0,0.0,0.0,0.0,0.0,0.0,0.0,0.0,0.0,0.0,0.0,0.0,0.0,0.0,4.0377,4.1442,4.0267,0.0,0.0,0.0,0.0,0.0,3.8277,3.9795,4.1451,4.0877,4.2,4.3358,4.3607,4.3377,4.318,4.3534,0.0,0.0,0.0,0.0,4.7335,5.1033,0.0,5.5822,5.845,5.8078,0.0,0.0,0.0,0.0,0.0,0.0,0.0,0.0,0.0,0.0,5.7918,5.7881,5.7881,5.7881,5.7881,5.7881,5.7881,5.7881,5.7881,5.7881,5.7881,5.7881,5.7881,5.7881,5.7881,5.7881,0.0,5.7881,5.7881,5.7881,5.7881,5.7848,5.7509,5.7374,5.7273,5.6122,5.5953,5.6258,0.0,0.0,0.0,0.0,0.0,0.0,0.0,0.0,0.0,0.0,0.0,0.0,0.0,0.0,0.0,0.0,0.0,0.0,0.0,0.0,3.991,4.0079,4.0113,4.0113,4.0113,0.0,4.2018,4.3254,4.4797,4.6054,4.7016,4.6064,4.4856,0.0,0.0,0.0,0.0,0.0,0.0,0.0,0.0,0.0,0.0,0.0,0.0,0.0,0.0,0.0,0.0,0.0,0.0,0.0,0.0,0.0,0.0,3.9129,3.8689,3.8648,3.8436,3.9948,4.1669,4.1887,4.3468,4.5125,4.5851,4.543,4.5114,4.5961,0.0,0.0,0.0,4.7599,0.0,5.5571,5.7516,5.879,5.9967,0.0,0.0,0.0,0.0,0.0,0.0,0.0,0.0,0.0,0.0,0.0,5.8528,5.8493,5.8493,5.8493,5.8493,5.8493,5.8493,5.8493,5.8315,5.7881,5.7881,5.7881,5.7881,5.7881,5.7881,5.7881,5.7881,5.7881,5.7881,5.7881,5.7881,5.7881,5.7881,5.7881,5.7746,5.663,5.6461,5.6731,0.0,0.0,0.0,0.0,0.0,0.0,0.0,0.0,0.0,0.0,0.0,0.0,0.0,0.0,0.0,0.0,0.0,0.0,0.0,0.0,3.9377,4.0079,4.0113,4.0113,4.0113,4.1439,4.244,4.3014,4.5165,4.617,4.5975,4.5168,4.4342,4.3515,0.0,0.0,0.0,0.0,0.0,0.0,0.0,0.0,0.0,0.0,0.0,0.0,0.0,0.0,0.0,0.0,0.0,0.0,0.0,0.0,3.9827,3.8946,3.8689,3.8857,3.9575,4.0952,4.2419,4.3169,4.365,4.4646,4.747,4.7457,4.7367,4.8964,0.0,0.0,0.0,5.0671,5.3929,5.7285,5.8646,5.9982,0.0,0.0,0.0,0.0,0.0,0.0,0.0,0.0,0.0,0.0,0.0,0.0,6.0211,6.0211,6.0211,6.0211,6.0211,6.0211,6.0211,6.0211,5.9445,5.7881,5.7881,5.7881,5.7881,5.7881,5.7881,5.7881,5.7881,5.7881,5.7881,5.7881,5.7881,5.7881,5.7881,5.7881,5.7881,5.778,5.734,5.6799,0.0,0.0,0.0,0.0,0.0,0.0,0.0,0.0,0.0,0.0,0.0,0.0,0.0,0.0,0.0,0.0,0.0,0.0,0.0,0.0,3.843,3.8734,3.8734,3.887,3.9146,4.1114,4.2428,4.3009,4.5052,4.5735,4.5149,4.4838,0.0,0.0,0.0,0.0,0.0,0.0,0.0,0.0,0.0,0.0,0.0,0.0,0.0,0.0,0.0,0.0,0.0,0.0,3.8264,3.9093,3.8799,3.9239,3.9753,3.8946,3.8689,3.8762,3.9056,4.0708,4.2359,4.269,4.3943,4.5788,4.8451,4.882,4.926,5.1389,5.2234,0.0,0.0,0.0,5.5597,5.828,5.9855,6.122,0.0,0.0,0.0,0.0,0.0,0.0,0.0,0.0,0.0,0.0,0.0,0.0,6.0432,6.0397,6.0397,6.0397,6.0397,6.0397,6.0397,6.0397,6.0055,5.9445,5.8909,5.8388,5.7881,5.7881,5.7881,5.7881,5.7881,5.7881,5.7881,5.7881,5.7881,5.7881,5.7881,5.7881,5.7814,5.7374,5.7036,5.6799,0.0,0.0,0.0,0.0,0.0,0.0,0.0,0.0,0.0,0.0,0.0,0.0,0.0,0.0,0.0,0.0,0.0,0.0,0.0,0.0,3.7313,3.755,3.7787,3.8044,3.8391,4.0527,4.207,4.2923,4.4652,4.5259,4.4691,0.0,0.0,0.0,0.0,0.0,0.0,0.0,0.0,0.0,0.0,0.0,0.0,0.0,0.0,0.0,0.0,0.0,0.0,0.0,3.7257,3.7991,3.8248,3.8689,3.9056,3.8799,3.8872,3.9093,3.9093,4.0671,4.2359,4.2616,4.4305,4.6654,4.9627,5.0345,5.1116,5.3812,5.4363,5.4803,5.6124,0.0,0.0,0.0,6.0933,0.0,0.0,0.0,0.0,0.0,0.0,0.0,0.0,0.0,0.0,0.0,0.0,0.0,0.0,6.1178,6.1178,6.1178,6.1178,6.1178,6.1178,6.1178,6.1026,6.076,6.0176,5.9476,5.8668,5.8668,5.8563,5.8281,5.8281,5.8137,5.7881,5.7881,5.7881,5.7881,5.7881,5.7881,5.7814,5.734,5.7002,5.6799,0.0,0.0,0.0,0.0,0.0,0.0,0.0,0.0,0.0,0.0,0.0,0.0,0.0,0.0,0.0,0.0,0.0,0.0,0.0,0.0,3.596,3.6761,3.7483,3.7889,3.7889,3.9726,4.1359,4.2693,4.4035,4.4654,4.4654,4.3864,0.0,0.0,0.0,0.0,0.0,0.0,0.0,0.0,0.0,0.0,0.0,0.0,0.0,0.0,0.0,0.0,0.0,0.0,3.5569,3.6413,3.7235,3.7492,3.7676,3.8469,3.9276,3.99,3.99,4.1075,4.2506,4.3314,4.4709,4.6985,5.1059,5.2013,5.2931,5.6161,5.5537,5.517,5.7593,5.7373,0.0,0.0,0.0,0.0,0.0,0.0,0.0,0.0,0.0,0.0,0.0,0.0,0.0,0.0,0.0,0.0,0.0,6.278,6.278,6.278,6.278,6.278,6.278,6.278,6.2376,6.1632,6.1632,6.1171,6.0397,6.0397,5.9928,5.9111,5.9111,5.8668,5.7918,5.7918,5.7918,5.7918,5.7881,5.7881,5.7881,5.7881,5.7442,5.6799,0.0,0.0,0.0,0.0,0.0,0.0,0.0,0.0,0.0,0.0,0.0,0.0,0.0,0.0,0.0,0.0,0.0,0.0,0.0,0.0,0.0,0.0,0.0,0.0,0.0,0.0,4.0799,4.3268,4.3098,4.3314,0.0,0.0,0.0,4.2986,0.0,0.0,0.0,0.0,0.0,0.0,0.0,0.0,0.0,0.0,0.0,0.0,0.0,0.0,0.0,0.0,0.0,0.0,3.7262,3.805,3.8395,3.8615,3.9276,3.99,3.99,4.1075,4.2616,4.4011,4.6434,4.9133,5.1483,5.2454,5.4069,0.0,5.8033,5.7483,5.9355,0.0,0.0,0.0,0.0,0.0,0.0,0.0,0.0,0.0,0.0,0.0,0.0,0.0,0.0,0.0,0.0,0.0,0.0,6.278,6.278,6.278,6.278,6.278,6.278,6.278,6.2705,6.2427,6.2427,6.1715,6.0397,6.0397,6.0242,6.0023,6.0023,5.9864,5.9641,5.9011,5.8737,5.8668,5.8137,5.7881,5.7881,5.7881,5.7442,5.6867,0.0,0.0,0.0,0.0,0.0,0.0,0.0,0.0,0.0,0.0,0.0,0.0,0.0,0.0,0.0,0.0,0.0,0.0,0.0,0.0,0.0,0.0,0.0,0.0,0.0,3.8664,4.0366,0.0,0.0,0.0,0.0,0.0,4.2479,4.2813,0.0,4.2861,0.0,0.0,0.0,0.0,4.1265,4.0999,4.058,0.0,0.0,0.0,0.0,0.0,0.0,0.0,0.0,0.0,3.6993,3.7431,3.7593,3.8441,3.9276,4.012,4.1091,4.2286,4.3718,4.5663,4.8122,5.0839,5.3739,0.0,0.0,0.0,5.9391,5.9061,6.1006,6.0456,0.0,0.0,0.0,0.0,0.0,0.0,0.0,0.0,0.0,0.0,0.0,0.0,0.0,0.0,0.0,0.0,0.0,6.278,6.278,6.278,6.278,6.278,6.278,6.278,6.278,6.278,6.278,6.2298,6.135,6.135,6.1207,6.0849,6.0519,6.0397,6.0335,5.9832,5.9606,5.9574,5.9078,5.8909,5.8841,5.8494,5.8114,5.7773,0.0,0.0,0.0,0.0,0.0,0.0,0.0,0.0,0.0,0.0,3.119,0.0,0.0,0.0,0.0,0.0,0.0,0.0,0.0,0.0,0.0,0.0,0.0,0.0,0.0,0.0,0.0,0.0,0.0,0.0,0.0,0.0,4.2385,4.2723,0.0,4.316,0.0,0.0,0.0,4.0323,4.1123,4.0969,4.0261,4.0012,0.0,0.0,0.0,0.0,0.0,0.0,0.0,0.0,3.663,3.6285,3.6149,3.8066,3.9249,4.0425,4.2743,4.4048,4.5278,4.7792,4.9774,5.2307,5.6859,5.7886,5.84,6.0162,0.0,6.0102,6.2377,6.1594,0.0,0.0,0.0,0.0,0.0,0.0,0.0,0.0,0.0,0.0,0.0,0.0,0.0,0.0,0.0,0.0,0.0,6.278,6.278,6.278,6.278,6.278,6.278,6.278,6.278,6.278,6.278,6.278,6.278,6.278,6.2376,6.1659,6.0938,6.061,6.061,6.0519,6.0489,6.0489,6.0432,6.0397,6.0304,5.9509,5.9211,5.9211,0.0,0.0,0.0,0.0,0.0,0.0,0.0,0.0,0.0,0.0,0.0,0.0,0.0,0.0,0.0,0.0,0.0,0.0,0.0,0.0,0.0,0.0,0.0,0.0,0.0,0.0,0.0,0.0,0.0,0.0,0.0,0.0,0.0,4.1822,0.0,4.0892,0.0,0.0,3.8631,3.8546,3.8738,3.87,3.8546,3.8454,3.7786,0.0,0.0,0.0,0.0,0.0,0.0,0.0,3.724,3.7505,3.7737,3.7997,3.9101,4.0548,4.2149,4.3608,4.5443,4.8545,5.1499,5.4216,5.6528,5.7079,5.7886,6.075,6.119,6.1447,6.256,0.0,0.0,0.0,0.0,0.0,0.0,0.0,0.0,0.0,0.0,0.0,0.0,0.0,0.0,0.0,0.0,0.0,6.278,6.278,6.278,6.278,6.278,6.278,6.278,6.278,6.278,0.0,6.278,6.278,6.278,6.278,6.2705,6.2541,6.235,6.2271,6.2245,6.1604,6.1314,6.1257,6.064,6.0397,6.0401,6.018,6.0117,6.0117,0.0,0.0,0.0,0.0,0.0,0.0,0.0,0.0,0.0,0.0,0.0,0.0,0.0,0.0,0.0,0.0,0.0,0.0,0.0,0.0,3.3948,3.5793,0.0,0.0,0.0,0.0,0.0,0.0,0.0,0.0,4.0524,4.0912,4.1483,4.2135,0.0,4.0515,0.0,0.0,3.7643,3.7037,3.7598,3.7792,3.777,3.7471,3.7084,3.6692,3.6692,0.0,0.0,0.0,0.0,0.0,0.0,0.0,3.6866,3.7376,3.8288,3.964,4.1878,4.358,4.5663,4.9757,5.2601,5.484,5.6455,5.7116,5.796,6.0015,6.075,6.1374,6.2585,0.0,0.0,0.0,0.0,0.0,0.0,0.0,0.0,0.0,0.0,0.0,0.0,0.0,0.0,0.0,0.0,6.278,6.278,6.278,6.278,6.278,6.278,6.278,6.278,6.278,6.278,6.278,6.278,6.278,6.278,6.278,6.278,6.278,6.278,6.278,6.2755,6.235,6.2156,6.2129,6.1687,6.1548,6.1492,6.1113,6.0967,6.0967,0.0,0.0,0.0,0.0,0.0,0.0,0.0,0.0,0.0,0.0,0.0,0.0,0.0,0.0,0.0,0.0,0.0,0.0,0.0,3.3293,3.4541,3.6229,0.0,0.0,0.0,0.0,0.0,0.0,0.0,3.7176,4.012,4.0671,4.1525,4.2694,0.0,0.0,0.0,3.8264,3.6874,3.5557,3.635,3.6687,3.6693,3.6174,3.6094,3.6276,3.6276,3.6462,3.6808,3.7546,0.0,0.0,0.0,0.0,3.5581,3.6666,3.7385,3.8476,4.1352,4.3516,4.6084,5.0738,5.2957,0.0,5.6014,5.7005,5.785,5.8781,5.9869,6.1006,0.0,0.0,0.0,0.0,0.0,0.0,0.0,0.0,0.0,0.0,0.0,0.0,0.0,0.0,0.0,0.0,0.0,6.2585,6.2585,6.2585,6.2585,6.2585,6.2475,6.245,6.2585,6.2585,6.2658,6.278,6.278,6.278,6.278,6.278,6.278,6.278,6.278,6.278,6.278,6.278,6.278,6.278,6.278,6.278,6.273,6.2049,6.1797,6.1797,0.0,0.0,0.0,0.0,0.0,0.0,0.0,0.0,0.0,0.0,3.119,3.092,3.0176,3.0468,0.0,0.0,0.0,0.0,3.1555,0.0,0.0,0.0,0.0,0.0,0.0,0.0,0.0,0.0,3.6296,3.7821,4.0912,4.0341,4.0887,4.2296,4.0804,3.9786,0.0,3.6012,3.4363,3.3695,3.3138,3.3045,3.3249,3.3196,3.3729,3.4552,3.4552,3.5468,3.6731,3.6846,3.7315,0.0,0.0,0.0,0.0,3.6412,3.6948,3.7912,3.9486,4.2938,4.6932,5.0508,5.1873,5.2747,0.0,0.0,5.6345,0.0,5.9905,0.0,0.0,0.0,0.0,0.0,0.0,0.0,0.0,0.0,0.0,0.0,0.0,0.0,0.0,0.0,0.0,0.0,6.1374,6.1741,6.1741,6.1741,6.1741,6.1741,6.108,6.108,6.1741,6.1741,6.2108,6.278,6.278,6.278,6.278,6.278,6.278,6.278,6.278,6.278,6.278,6.278,6.278,6.278,6.278,6.278,6.278,6.2705,6.2618,6.2618,0.0,0.0,0.0,0.0,0.0,0.0,0.0,0.0,0.0,0.0,0.0,3.1347,3.089,3.0589,0.0,0.0,0.0,0.0,3.1335,3.2889,0.0,0.0,0.0,0.0,0.0,0.0,0.0,0.0,3.399,3.5899,4.0414,3.9606,4.0818,4.3571,4.1479,3.9942,0.0,3.5863,3.4006,3.2947,3.274,3.3289,3.4127,3.302,3.3731,3.5162,3.3921,3.4276,3.5315,3.5315,3.5892,3.6538,3.6154,0.0,0.0,0.0,3.6337,3.7414,4.0146,4.3004,4.6061,4.9402,5.0929,5.1933,5.308,5.4501,5.5794,5.6492,0.0,0.0,0.0,0.0,0.0,0.0,0.0,0.0,0.0,0.0,0.0,0.0,0.0,0.0,0.0,0.0,0.0,0.0,6.1153,6.1594,6.1594,6.1594,6.1594,6.1594,6.0823,6.0566,6.0933,6.0933,6.1117,6.1484,6.1924,6.2144,6.2144,6.2585,6.278,6.278,6.278,6.278,6.278,6.278,6.278,6.278,6.278,6.278,6.278,6.278,6.278,6.278,0.0,0.0,0.0,0.0,0.0,0.0,0.0,0.0,0.0,0.0,0.0,0.0,3.1138,0.0,0.0,0.0,0.0,0.0,3.1005,0.0,0.0,0.0,0.0,0.0,0.0,0.0,0.0,3.3183,3.2388,3.4614,3.957,3.9386,4.1258,4.4618,4.2616,4.0598,3.8542,3.6288,3.4491,3.3196,3.3192,3.3968,3.5067,3.4112,3.5008,3.6566,3.457,3.443,0.0,0.0,0.0,0.0,0.0,0.0,0.0,0.0,0.0,3.6819,4.0106,4.2269,4.4347,4.7507,4.9565,5.1088,0.0,0.0,5.5385,0.0,0.0,0.0,0.0,0.0,0.0,0.0,0.0,0.0,0.0,0.0,0.0,0.0,0.0,0.0,0.0,0.0,0.0,0.0,6.0529,6.1006,6.1006,6.1006,6.1006,6.1006,6.0199,5.9905,6.0089,6.0309,6.0419,6.0419,6.1006,6.13,6.13,6.1924,6.2218,6.2193,6.2401,6.2401,6.2218,6.2218,6.2328,6.2511,6.2511,6.2622,6.278,6.278,6.278,6.278,0.0,0.0,0.0,0.0,0.0,0.0,0.0,0.0,0.0,0.0,0.0,0.0,0.0,0.0,0.0,0.0,0.0,0.0,0.0,0.0,0.0,0.0,0.0,0.0,0.0,0.0,3.2302,3.1544,3.2963,3.5422,3.8799,4.0288,4.2306,4.4672,4.3754,4.1625,3.8579,3.6927,3.5716,3.4821,3.4041,3.3967,3.4449,3.62,3.7599,3.8375,3.6995,0.0,0.0,0.0,0.0,0.0,0.0,3.4282,3.4282,0.0,0.0,0.0,3.7701,3.9735,4.1998,4.4585,4.7375,4.9928,0.0,0.0,0.0,0.0,0.0,0.0,0.0,0.0,0.0,0.0,0.0,0.0,0.0,0.0,0.0,0.0,0.0,0.0,0.0,0.0,0.0,0.0,5.8877,5.9294,5.9294,5.9294,5.9294,5.9294,5.8547,5.851,5.9258,6.0015,6.0419,6.0419,6.0456,6.0456,6.0456,6.0529,6.0529,6.0566,6.1337,6.1227,6.0529,6.0529,6.097,6.1667,6.1667,6.2144,6.278,6.278,6.278,6.278,0.0,0.0,0.0,0.0,0.0,0.0,0.0,0.0,0.0,0.0,0.0,0.0,0.0,3.1261,3.0589,2.9661,0.0,0.0,0.0,0.0,0.0,0.0,0.0,0.0,0.0,3.2082,3.1678,3.1397,3.1458,3.3146,3.6362,3.8028,3.9533,4.0891,4.2176,4.1809,4.0104,3.7955,3.6597,0.0,3.5532,3.608,3.7054,3.6882,3.7979,3.9427,0.0,0.0,0.0,0.0,0.0,0.0,3.5315,3.4661,3.4205,3.4205,3.443,3.5161,3.7392,0.0,0.0,4.3004,4.5181,4.7024,4.8706,5.1026,5.3059,0.0,0.0,0.0,0.0,0.0,0.0,0.0,0.0,0.0,0.0,0.0,0.0,0.0,0.0,0.0,0.0,0.0,0.0,0.0,0.0,5.9184,5.9184,5.9184,5.9184,5.9184,5.8437,5.8143,5.8437,5.8731,5.8841,5.8877,5.9391,5.9648,5.9625,6.0162,6.0126,5.9625,5.9942,6.0199,6.0419,6.0419,6.086,6.1594,6.1594,6.2108,6.278,6.278,6.278,6.278,0.0,0.0,0.0,0.0,0.0,0.0,0.0,0.0,0.0,3.1125,0.0,0.0,0.0,0.0,3.1751,3.0687,3.0099,0.0,0.0,0.0,0.0,0.0,0.0,0.0,0.0,3.2082,3.1531,3.098,3.1017,3.2252,3.4637,3.6303,3.7661,3.8762,4.0084,4.0855,4.0985,0.0,0.0,3.7614,0.0,0.0,3.9232,3.9423,4.03,4.1295,0.0,0.0,0.0,0.0,0.0,0.0,0.0,3.493,3.3782,3.3782,3.3975,3.4629,3.6622,0.0,0.0,0.0,4.3282,4.4972,4.7199,0.0,5.1423,0.0,0.0,0.0,0.0,0.0,0.0,0.0,0.0,0.0,0.0,0.0,0.0,0.0,0.0,0.0,0.0,0.0,0.0,0.0,0.0,0.0,5.8804,5.8804,5.8804,5.8804,5.829,5.7997,5.7997,5.7997,5.7997,5.7997,5.8547,5.8804,5.8841,5.9355,5.9318,5.8804,5.8804,5.9098,5.9612,5.9612,6.0236,6.119,6.119,6.1851,6.278,6.278,6.278,6.278,0.0,0.0,0.0,0.0,0.0,0.0,0.0,0.0,0.0,3.0733,0.0,0.0,0.0,0.0,0.0,3.158,3.1433,3.1433,0.0,0.0,0.0,0.0,0.0,0.0,0.0,3.2619,3.1812,3.0283,3.1812,3.2999,3.3807,3.5495,3.711,3.8615,3.786,3.8799,4.0989,4.0346,4.0131,4.0203,0.0,4.0239,4.0691,0.0,0.0,0.0,4.4379,4.3939,0.0,4.1748,0.0,0.0,0.0,3.4968,3.2929,3.2929,3.3545,3.443,0.0,0.0,0.0,0.0,0.0,0.0,4.7124,0.0,4.9805,0.0,0.0,0.0,0.0,0.0,0.0,0.0,0.0,0.0,0.0,0.0,0.0,0.0,0.0,0.0,0.0,0.0,0.0,0.0,5.7997,5.7997,5.7997,5.7997,5.7997,5.7997,5.7997,5.7997,5.7997,5.7997,5.7997,5.7997,5.7997,5.7997,5.7997,5.7997,5.7997,5.7997,5.7997,5.7997,5.7997,5.8033,5.8951,6.0419,6.0419,6.141,6.278,6.278,6.278,6.278,0.0,0.0,0.0,0.0,0.0,0.0,3.2975,3.2648,3.2658,0.0,0.0,0.0,3.2921,3.2866,3.2742,3.2289,3.2265,0.0,0.0,0.0,0.0,0.0,3.2583,3.2876,3.3476,3.2913,3.2362,3.1922,3.2362,3.2693,3.2963,3.4601,3.5922,3.6964,3.7345,3.8175,3.9261,3.7927,0.0,4.0766,3.9597,4.0876,0.0,0.0,0.0,0.0,0.0,4.5514,4.5379,0.0,4.3077,4.1195,0.0,0.0,3.3859,3.3859,3.4468,3.5192,3.5423,0.0,0.0,0.0,0.0,0.0,0.0,0.0,0.0,0.0,0.0,0.0,0.0,0.0,0.0,0.0,0.0,0.0,0.0,0.0,0.0,0.0,0.0,0.0,0.0,0.0,0.0,0.0,5.7997,5.7997,5.7997,5.7997,5.7997,5.7997,5.7997,5.7997,5.7997,5.7997,5.7997,5.7997,5.7997,5.7997,5.7997,5.7997,5.7997,5.7997,5.7997,5.7997,5.8033,5.8621,5.9465,6.0456,6.1043,6.1887,6.278,6.278,6.278,6.278,0.0,0.0,0.0,0.0,0.0,3.5018,3.4882,3.4555,3.4423,0.0,0.0,0.0,3.5153,3.4798,3.4504,3.4174,3.3793,0.0,0.0,0.0,3.2596,3.3073,3.3096,3.3463,3.427,3.35,3.3096,3.3096,3.2766,3.2583,3.2619,3.3573,3.4454,3.5275,3.5752,3.6413,3.7059,3.5789,0.0,0.0,4.0347,0.0,0.0,4.5535,4.6985,0.0,0.0,0.0,4.7105,4.6438,4.4777,0.0,0.0,3.7392,3.6168,3.5468,3.5853,0.0,3.6538,0.0,0.0,0.0,0.0,0.0,0.0,4.2854,0.0,0.0,0.0,0.0,0.0,0.0,0.0,0.0,0.0,0.0,0.0,0.0,0.0,0.0,0.0,0.0,0.0,5.8119,5.7997,5.7997,5.7997,5.7997,5.7997,5.7997,5.7997,5.7997,5.7997,5.7997,5.7997,5.7997,5.7997,5.7997,5.7997,5.7997,5.7997,5.7997,5.7997,5.7997,5.7997,5.7997,5.807,5.9245,5.9979,6.0493,6.13,6.2108,6.278,6.278,6.278,6.278,0.0,0.0,3.7253,3.7932,3.6926,3.6264,3.6838,3.6332,3.5836,0.0,3.6857,3.7732,3.8062,3.7826,3.7382,3.6743,0.0,0.0,0.0,0.0,3.388,3.3807,3.3807,3.4137,3.4857,3.4234,3.388,3.3807,3.317,3.2803,3.2729,3.2729,3.3109,3.3807,3.3697,3.4087,3.4821,3.4229,0.0,3.8506,4.1436,4.3009,0.0,0.0,4.9114,4.893,4.9537,4.9224,4.8473,4.7893,4.6092,0.0,0.0,4.0338,3.9392,3.7623,3.7738,0.0,3.8315,3.8892,0.0,0.0,0.0,0.0,4.3278,4.3893,4.4509,0.0,0.0,0.0,0.0,0.0,0.0,0.0,0.0,0.0,0.0,0.0,0.0,0.0,0.0,0.0,5.8716,5.8397,5.8164,5.8164,5.8097,5.8029,5.7997,5.7997,5.7997,5.7997,5.7997,5.7997,5.7997,5.7997,5.7997,5.7997,5.7997,5.7997,5.7997,5.7997,5.7997,5.7997,5.7997,5.7997,5.8107,5.9758,6.0419,6.0493,6.1374,6.2181,6.278,6.278,6.278,6.278,0.0,0.0,3.8606,3.8753,3.8535,3.8207,3.7729,3.755,3.7425,3.7425,3.7871,3.8627,3.9924,3.9115,3.8652,3.9129,0.0,0.0,0.0,0.0,3.4491,3.3844,3.3807,3.388,3.4027,3.4491,3.4454,3.3807,3.4307,3.4197,3.3587,3.3587,3.366,3.377,3.3109,3.3293,3.4073,3.4839,0.0,3.806,3.9126,0.0,4.672,4.7361,4.9534,5.2123,5.0986,5.0472,5.0017,4.8301,4.7095,4.5974,0.0,0.0,4.2008,4.0285,4.0392,4.0931,4.02,4.0662,4.1046,3.9823,0.0,0.0,4.0469,4.1316,4.2585,0.0,0.0,0.0,0.0,0.0,0.0,0.0,0.0,0.0,0.0,0.0,0.0,0.0,0.0,0.0,5.9248,5.9176,5.9121,5.9121,5.8776,5.8397,5.802,5.7997,5.7997,5.7997,5.7997,5.7997,5.7997,5.7997,5.7997,5.7997,5.7997,5.7997,5.7997,5.7997,5.7997,5.7997,5.7997,5.7997,5.8107,5.9758,6.0419,6.0529,6.1998,6.2658,6.278,6.278,6.278,6.278,0.0,3.93,3.9571,3.9571,3.9571,3.9436,3.9039,3.9005,3.914,3.9512,3.9928,4.0297,4.0573,4.0255,4.0151,0.0,0.0,0.0,0.0,0.0,3.4821,3.4417,3.4027,3.4174,3.5018,3.5004,3.5004,3.5055,3.5004,3.4601,3.3807,3.3807,3.4247,3.4981,3.377,3.41,3.5642,0.0,3.6504,3.8687,4.1433,0.0,4.7756,4.9484,5.1406,5.302,5.183,5.0875,4.9963,4.8261,4.7239,0.0,0.0,4.4857,4.4384,0.0,4.3008,4.3431,4.2124,4.2393,4.2854,4.2008,0.0,0.0,0.0,4.2431,4.2816,4.4085,0.0,0.0,0.0,0.0,0.0,0.0,0.0,0.0,0.0,0.0,0.0,0.0,0.0,0.0,5.9046,5.8904,5.8832,5.9047,5.8835,5.8503,5.8042,5.7997,5.7997,5.7997,5.7997,5.7997,5.7997,5.7997,5.7997,5.7997,5.8238,5.8216,5.802,5.8238,5.8216,5.802,5.8238,5.8194,5.813,6.001,6.0605,6.0566,6.2181,6.278,6.278,6.278,6.278,6.278,0.0,3.9503,3.9943,4.0079,4.0113,4.0113,4.0113,4.0113,4.0383,4.1102,4.1968,4.2276,4.1613,4.2114,0.0,0.0,0.0,0.0,0.0,0.0,3.5701,3.5701,3.4798,3.4908,3.6266,3.5591,3.5445,3.5826,3.5261,3.4601,3.3807,3.3807,3.4614,3.5973,3.4651,0.0,0.0,0.0,0.0,4.0456,0.0,4.6783,4.7524,5.1114,5.2601,5.2674,5.216,5.1079,4.9632,4.8286,4.7306,4.6589,4.6291,4.6378,0.0,0.0,0.0,0.0,0.0,0.0,0.0,0.0,0.0,4.5047,0.0,0.0,0.0,4.4902,0.0,0.0,0.0,0.0,0.0,0.0,0.0,0.0,0.0,0.0,0.0,0.0,0.0,0.0,0.0,5.784,5.7876,5.8428,5.8315,5.8177,5.8024,5.8186,5.826,5.826,5.826,5.826,5.826,5.826,5.826,5.8282,5.8652,5.8591,5.8164,5.8508,5.8439,5.8042,5.8503,5.8503,5.8275,6.029,6.087,6.0696,6.2206,6.278,6.278,6.278,6.278,6.278,3.8734,3.9073,3.9309,4.0011,4.0113,4.0113,4.0113,4.0113,4.0383,4.1102,4.286,4.424,4.4801,0.0,0.0,0.0,0.0,0.0,4.3975,0.0,0.0,3.8285,3.6817,3.6119,3.6303,3.6193,3.5459,3.4064,3.4711,3.4601,3.3807,3.3807,3.427,3.5151,3.4968,3.5862,0.0,0.0,4.0529,0.0,4.6231,4.6368,0.0,4.8846,5.0435,5.1169,5.1756,5.1426,5.0398,0.0,4.7938,4.7357,0.0,4.6568,4.7177,0.0,0.0,0.0,0.0,0.0,0.0,0.0,4.6586,0.0,0.0,0.0,4.494,4.3662,0.0,0.0,0.0,0.0,0.0,0.0,0.0,0.0,0.0,0.0,0.0,0.0,0.0,0.0,0.0,5.5999,5.6459,5.7648,5.701,5.702,5.8008,5.8798,5.923,5.923,5.923,5.923,5.923,5.923,5.923,5.923,5.9284,5.9065,5.8632,5.8693,5.8439,5.8042,5.8503,5.8673,5.8743,6.0401,6.105,6.1128,6.2339,6.278,6.278,6.278,6.278,6.278,3.9342,3.9204,0.0,4.0401,4.0294,4.0113,4.0113,4.1602,4.2516,4.1914,4.3749,4.5343,0.0,0.0,0.0,0.0,0.0,4.5581,0.0,0.0,0.0,3.9423,3.786,3.7235,3.7698,3.678,3.6156,3.595,3.5298,3.4821,3.4491,3.4027,3.5018,3.7096,3.6178,3.7698,4.0907,0.0,4.0928,0.0,0.0,0.0,0.0,4.9951,5.1903,5.2197,5.205,5.2087,5.194,0.0,4.8991,0.0,0.0,0.0,0.0,0.0,0.0,0.0,0.0,0.0,0.0,0.0,0.0,0.0,4.574,0.0,4.4778,0.0,0.0,0.0,0.0,0.0,0.0,0.0,0.0,0.0,0.0,0.0,0.0,0.0,0.0,0.0,0.0,0.0,0.0,0.0,5.5486,5.6078,5.7318,5.8185,5.8881,5.9389,5.9389,5.9389,5.9389,5.9389,5.9389,5.9389,5.9696,5.9407,5.8733,5.899,5.8855,5.8439,5.8913,5.9084,5.9271,6.1182,6.1807,6.1691,6.2844,6.3049,6.278,6.278,6.278,6.278,4.0172,0.0,0.0,4.077,4.0577,4.0347,4.0409,4.2252,4.347,4.3024,4.4722,0.0,4.738,4.7562,0.0,0.0,4.9972,4.8908,0.0,0.0,4.3204,4.2249,3.9827,3.8762,3.935,3.7771,3.7037,3.7162,3.5973,3.5371,3.5334,3.4491,3.5532,3.8028,3.7294,3.9276,4.3094,0.0,4.2543,4.4709,4.5663,4.6434,4.7406,5.1132,5.28,5.313,5.2784,5.2894,5.3041,5.1867,5.0508,0.0,4.9914,0.0,0.0,0.0,0.0,0.0,4.7388,0.0,0.0,0.0,0.0,0.0,0.0,0.0,0.0,0.0,0.0,0.0,0.0,0.0,0.0,0.0,0.0,0.0,0.0,0.0,0.0,0.0,0.0,0.0,0.0,0.0,0.0,0.0,0.0,5.4293,5.6141,5.7241,5.8296,5.9374,5.9678,5.9792,5.9792,5.9792,5.9792,5.9792,6.0132,5.987,5.9121,5.9424,5.9337,5.8932,5.9389,5.9576,5.976,6.1758,6.2379,6.2211,6.3361,6.3571,6.3215,6.2892,6.278,6.2805,4.1211,4.1594,0.0,0.0,4.0897,4.0961,4.1138,4.1271,4.2083,4.4242,0.0,0.0,0.0,0.0,0.0,0.0,0.0,5.4154,5.4143,0.0,4.7259,4.8012,4.348,4.0985,0.0,3.946,3.7881,3.634,3.6266,3.6266,3.6229,3.5371,3.5481,3.645,3.7955,4.001,4.2433,4.3938,4.6874,5.0472,4.9757,5.0839,5.2784,0.0,5.183,5.3298,5.4069,0.0,0.0,5.313,5.2564,0.0,0.0,0.0,0.0,0.0,0.0,0.0,0.0,0.0,0.0,4.7914,0.0,0.0,0.0,0.0,4.7548,0.0,0.0,0.0,0.0,0.0,0.0,0.0,0.0,0.0,0.0,0.0,0.0,0.0,0.0,0.0,0.0,0.0,0.0,0.0,0.0,0.0,5.4402,5.6143,5.7796,5.9438,6.0334,6.0757,6.0757,6.0757,6.0757,6.0757,6.0769,6.0508,6.0074,6.0089,5.9823,5.9389,5.987,6.0089,6.0203,6.1904,6.259,6.268,6.3893,6.4351,6.4217,6.3191,6.278,6.288,0.0,0.0,0.0,0.0,0.0,4.1123,4.1816,4.32,4.4993,0.0,4.8376,0.0,0.0,5.331,5.4507,0.0,0.0,5.6044,5.5968,5.2438,0.0,0.0,0.0,4.3754,0.0,4.1645,4.0031,3.9496,3.7881,3.7639,3.8615,3.6142,3.6325,3.8689,3.8689,4.0928,0.0,0.0,0.0,0.0,0.0,5.1022,5.3203,0.0,0.0,5.4106,5.4913,5.5354,0.0,5.5574,5.4693,5.3613,5.3707,5.2231,5.0465,5.0305,5.0049,0.0,0.0,0.0,5.1604,4.9619,0.0,0.0,0.0,0.0,0.0,0.0,0.0,0.0,0.0,0.0,0.0,0.0,0.0,0.0,0.0,0.0,0.0,0.0,0.0,0.0,0.0,0.0,0.0,0.0,4.9471,0.0,0.0,5.6319,5.8357,5.9473,6.0358,6.0781,6.0781,6.0781,6.0781,6.0781,6.0781,6.0533,6.0103,6.0103,5.9991,5.987,6.0006,6.0603,6.1505,6.2605,6.3411,6.3984,6.4632,6.485,6.4782,6.4119,6.3871,6.3855,4.2638,0.0,0.0,0.0,0.0,4.1999,4.2877,4.476,4.6887,0.0,5.0033,0.0,5.4296,0.0,5.5177,0.0,5.7947,5.7619,5.6414,5.4939,0.0,5.2894,4.9297,0.0,0.0,0.0,4.2673,4.1552,3.9974,3.9439,3.9827,3.7441,3.7294,3.9071,0.0,4.1479,4.5516,4.6397,4.8196,0.0,0.0,5.2637,0.0,0.0,5.4913,5.4546,0.0,5.6345,5.6859,5.7152,5.6528,5.5721,5.5941,5.4391,5.247,5.2416,5.1825,5.1238,5.1516,5.2476,0.0,5.1292,5.14,0.0,4.8048,0.0,0.0,0.0,0.0,0.0,0.0,0.0,0.0,0.0,0.0,0.0,0.0,0.0,0.0,0.0,0.0,0.0,0.0,0.0,4.5509,4.6355,4.7663,0.0,0.0,0.0,5.6973,5.9011,5.9896,6.0473,6.0781,6.0781,6.0781,6.0781,6.0781,6.0634,6.0351,6.0351,6.0351,6.0351,6.0351,6.1019,6.2178,6.2974,6.382,6.4641,6.5183,6.5403,6.5291,6.4626,6.45,6.4643,4.291,4.3251,0.0,0.0,4.3103,0.0,0.0,0.0,4.7691,0.0,5.0945,5.2265,5.4499,5.5378,5.6089,5.687,5.906,5.9062,5.5998,5.7213,0.0,0.0,5.3078,5.1463,4.9941,0.0,0.0,0.0,4.2396,4.1515,4.001,3.9129,3.8322,3.7676,3.9218,0.0,4.4911,4.7315,5.0655,5.4473,5.528,5.5596,5.5684,5.6492,5.5868,5.473,5.6308,5.6859,5.6969,5.774,5.7997,5.7886,5.7116,5.6822,5.6492,5.4987,5.4473,5.4289,5.3555,5.3649,5.372,5.2847,0.0,0.0,0.0,0.0,5.0926,0.0,0.0,0.0,0.0,0.0,0.0,0.0,0.0,0.0,0.0,0.0,0.0,0.0,0.0,0.0,0.0,0.0,4.4624,4.5479,4.4893,0.0,0.0,0.0,5.3923,5.805,5.905,5.9935,6.0781,6.0781,6.0781,6.0781,6.0781,6.0781,6.0781,6.0781,6.0781,6.0781,6.0858,6.1358,6.2216,6.3051,6.3897,6.4743,6.559,6.5897,6.5781,6.482,6.4748,6.513,4.3615,4.5,4.6122,0.0,4.4799,4.4541,0.0,0.0,0.0,0.0,5.3804,5.5236,5.6836,5.7205,5.7661,5.8462,5.9663,0.0,0.0,0.0,0.0,5.9722,5.6492,5.4494,5.409,5.0692,0.0,4.5865,0.0,4.2103,4.1625,3.9643,3.8909,0.0,0.0,0.0,4.57,4.7535,5.0655,5.4473,5.528,5.5596,0.0,0.0,5.6565,5.6345,5.7336,5.7703,5.7703,5.7923,5.7997,5.796,5.7776,5.7299,5.6712,5.6308,5.5757,5.5244,5.5023,5.5478,5.5781,5.4629,5.441,5.3998,0.0,0.0,0.0,0.0,0.0,0.0,0.0,0.0,0.0,0.0,0.0,0.0,0.0,0.0,0.0,0.0,0.0,0.0,0.0,0.0,4.4393,4.4624,4.6163,0.0,0.0,0.0,0.0,5.6319,5.8396,5.9935,6.0781,6.0781,6.0781,6.0781,6.0781,6.0781,6.0781,6.0781,6.0781,6.0819,6.1473,6.2243,6.3051,6.3897,6.4782,6.559,6.582,6.5897,6.5885,6.5622,6.5569,6.569,4.4895,4.6987,0.0,4.9187,0.0,0.0,4.896,4.9276,0.0,5.3144,5.479,0.0,5.6872,5.7509,5.821,5.901,5.9896,0.0,6.0042,0.0,0.0,6.0566,5.9061,5.7703,5.6675,5.376,0.0,4.7626,0.0,0.0,4.1772,4.0414,0.0,0.0,0.0,4.2066,4.5112,4.8857,5.1977,5.4546,5.6051,0.0,0.0,5.7152,5.7336,5.7373,5.785,5.7997,5.7997,5.7997,5.7997,5.7997,5.7997,5.7703,5.7336,5.7336,5.6748,5.6198,5.6528,5.6712,5.6742,5.6399,5.6277,5.5801,5.4056,5.411,5.429,0.0,0.0,0.0,0.0,0.0,0.0,0.0,0.0,0.0,0.0,0.0,0.0,0.0,0.0,0.0,0.0,0.0,0.0,0.0,0.0,0.0,0.0,0.0,0.0,5.5126,5.7665,5.9396,6.0204,6.0589,6.0781,6.0781,6.0781,6.0781,6.0781,6.0781,6.0781,6.0858,6.1716,6.2551,6.3346,6.4243,6.5128,6.5897,6.5897,6.5897,6.5897,6.5897,6.5897,6.5897,4.66,0.0,0.0,0.0,0.0,0.0,0.0,5.1801,0.0,5.3584,0.0,5.6022,5.599,5.7137,5.821,5.901,0.0,5.9846,5.8538,6.1219,6.1863,5.9735,6.1006,6.0713,5.851,5.6675,0.0,0.0,0.0,0.0,4.1095,0.0,0.0,0.0,0.0,0.0,0.0,5.0618,5.3739,5.4766,5.7079,5.7997,5.7997,5.7997,5.7997,5.7997,5.7997,5.7997,5.7997,5.7997,5.7997,5.7997,5.7997,5.7997,5.7997,5.7997,5.7483,5.7116,5.7813,5.7483,5.7152,5.7813,5.7997,5.7446,5.5354,5.5122,5.5352,5.5469,5.3456,5.2379,0.0,0.0,0.0,0.0,0.0,0.0,0.0,0.0,0.0,0.0,0.0,0.0,0.0,0.0,0.0,0.0,0.0,0.0,0.0,0.0,0.0,5.4087,5.6742,5.8588,5.9473,0.0,6.0781,6.0781,6.0781,6.0781,6.0781,6.0781,6.0858,6.1012,6.1858,6.2704,6.3538,6.4397,6.5205,6.5897,6.5897,6.5897,6.5897,6.5897,6.5897,6.5897,4.9005,0.0,0.0,0.0,0.0,5.5585,5.7451,5.5665,5.4391,5.5211,5.7158,5.8255,5.7584,5.7746,5.821,5.901,5.9896,0.0,0.0,0.0,0.0,6.2193,6.2438,6.2071,6.097,5.8107,5.4876,0.0,0.0,0.0,4.1095,0.0,0.0,0.0,0.0,0.0,4.7719,5.1573,0.0,5.5537,5.7299,5.7997,5.7997,5.7997,5.7997,5.7997,5.7997,5.7997,5.7997,5.7997,5.7997,5.7997,5.7997,5.7997,5.7997,5.7997,5.7886,5.7813,5.796,5.7886,5.7813,5.796,5.7997,5.7886,5.7483,5.7404,5.7471,5.7493,5.5795,5.4365,5.4436,0.0,0.0,0.0,0.0,0.0,0.0,0.0,0.0,0.0,0.0,0.0,0.0,0.0,0.0,0.0,0.0,0.0,0.0,0.0,0.0,0.0,5.5511,0.0,0.0,0.0,6.0781,6.0781,6.0781,6.0781,6.0781,6.0781,6.1166,6.1908,6.2743,6.3589,6.4436,6.532,6.5743,6.5897,6.5897,6.5897,6.5897,6.5897,6.5897,6.5897,5.2554,0.0,0.0,0.0,0.0,0.0,0.0,5.9568,5.8749,5.83,5.9499,6.0113,5.9377,5.9627,6.0135,6.0963,6.1004,6.1379,6.2192,6.2567,6.278,6.278,6.278,0.0,6.163,5.9281,5.6051,5.1977,0.0,0.0,0.0,0.0,0.0,4.0598,0.0,4.4948,0.0,0.0,0.0,5.5743,5.7336,5.8253,5.8621,5.8621,5.8877,5.9245,5.9245,5.9245,5.9134,5.829,5.7997,5.7997,5.7997,5.7997,5.7997,5.7997,5.7997,5.7997,5.7997,5.7997,5.7997,5.7997,5.7997,5.7997,5.7997,5.7997,5.7886,5.7446,5.6425,5.5025,5.3097,5.0723,0.0,0.0,0.0,0.0,0.0,0.0,0.0,0.0,0.0,0.0,0.0,0.0,0.0,0.0,0.0,0.0,0.0,0.0,0.0,0.0,0.0,0.0,0.0,0.0,0.0,6.0781,6.0781,6.0781,6.0781,6.0781,6.1293,6.2139,6.2935,6.3782,6.4666,6.5551,6.5897,6.5897,6.5897,6.5897,6.5897,6.5897,6.5897,6.5897,0.0,5.6273,0.0,0.0,5.9994,0.0,6.2186,6.3213,6.3158,6.1316,6.1527,6.1644,6.1138,6.1548,6.2114,6.2738,6.2217,6.2123,6.2755,6.278,6.278,6.278,6.278,6.2511,6.1851,6.0456,5.7519,0.0,0.0,0.0,0.0,0.0,0.0,0.0,0.0,0.0,0.0,0.0,5.4473,5.6235,5.7666,5.8731,5.9441,5.9441,5.9869,6.0419,6.0419,6.0419,6.0199,5.8951,5.851,5.8474,5.8327,5.8253,5.8217,5.8033,5.7997,5.7997,5.7997,5.7997,5.7997,5.7997,5.7997,5.7997,5.7997,5.7997,5.7776,5.6969,5.6335,5.4968,5.1854,5.0494,0.0,0.0,0.0,0.0,0.0,0.0,0.0,0.0,0.0,0.0,0.0,0.0,0.0,0.0,0.0,0.0,4.5556,4.7048,4.8548,0.0,0.0,5.6203,5.7742,0.0,6.0781,6.0781,6.0781,6.0781,6.0781,6.0781,6.1358,6.2397,6.3012,6.3897,6.4936,6.5628,6.5897,6.5897,6.5897,6.5897,6.5897,6.5897,6.5897,6.5897,0.0,0.0,0.0,0.0,0.0,0.0,6.4825,6.627,6.6102,6.3013,6.2644,6.2675,6.2612,6.2651,6.2714,6.2774,6.2723,6.2703,6.2792,6.278,6.278,6.278,6.278,6.2743,6.2695,6.1814,5.9722,0.0,0.0,4.9627,0.0,0.0,0.0,0.0,0.0,0.0,0.0,5.3555,5.5647,5.785,5.8731,5.9551,6.0309,6.0309,6.0346,6.0419,6.0419,6.0419,6.0382,6.0236,6.0199,6.0052,5.9294,5.9074,5.8927,5.8217,5.7997,5.7997,5.7997,5.7997,5.7997,5.7997,5.7997,5.7997,5.7997,5.7997,5.7776,5.6969,5.5891,5.4354,5.1782,5.2394,5.2311,0.0,0.0,0.0,0.0,0.0,0.0,0.0,0.0,0.0,0.0,0.0,0.0,0.0,0.0,0.0,4.5594,4.6509,4.7432,4.8317,0.0,5.5049,5.5934,5.9165,6.0781,6.0781,6.0781,6.0781,6.0781,6.0781,6.1666,6.3205,6.3281,6.4243,6.5782,6.5859,6.5897,6.5897,6.5897,6.5897,6.5897,6.5897,6.5897,6.5897,0.0,0.0,0.0,0.0,0.0,0.0,0.0,6.7283,6.7204,6.5916,6.5721,6.5721,6.5721,6.5322,6.5037,6.5022,6.4585,6.4098,6.3587,6.3576,6.3356,6.2817,6.278,6.278,6.278,6.1998,6.0272,0.0,0.0,5.1132,4.8105,4.6617,0.0,0.0,0.0,5.2491,5.4311,5.6381,5.8143,5.9465,5.9795,6.0419,6.1117,6.1117,6.141,6.1851,6.1851,6.1851,6.1851,6.1851,6.119,6.0346,6.0015,5.9942,5.9869,5.9538,5.9098,5.8731,5.8731,5.8364,5.7997,5.7997,5.7997,5.7997,5.7997,5.7997,5.7776,5.6969,5.5638,5.4115,5.2345,5.2371,5.2309,0.0,0.0,0.0,0.0,0.0,0.0,0.0,0.0,0.0,0.0,0.0,0.0,0.0,0.0,0.0,0.0,4.5932,0.0,4.8048,0.0,5.4357,5.5703,5.9088,6.0781,6.0781,6.0781,6.0781,6.0781,6.0781,6.1704,6.3346,6.4397,6.5243,6.5897,6.5897,6.5897,6.5897,6.5897,6.5897,6.5897,6.5897,6.5897,6.5897,6.3302,0.0,6.3392,0.0,6.5521,6.5705,6.743,6.7687,6.7687,6.7687,6.7687,6.7687,6.7687,6.7173,6.6769,6.6512,6.5999,6.5301,6.4494,6.4457,6.4163,6.3576,6.3319,0.0,6.3172,6.2365,6.1006,5.9061,5.6088,0.0,5.1703,0.0,0.0,0.0,5.4252,5.5684,5.6785,5.8731,6.0015,6.075,6.075,6.1227,6.1961,6.1961,6.2328,6.278,6.278,6.278,6.278,6.278,6.2071,6.108,6.0823,6.075,6.0713,6.0456,6.0015,5.9551,5.9551,5.8988,5.8364,5.8364,5.818,5.7997,5.7997,5.7997,5.7776,5.6969,5.5721,5.447,5.3583,5.3065,5.2806,5.2741,0.0,0.0,0.0,0.0,0.0,0.0,4.6394,4.5325,4.5594,0.0,0.0,0.0,0.0,0.0,0.0,0.0,0.0,0.0,0.0,0.0,0.0,5.9088,6.0781,6.0781,6.0781,6.0781,6.0819,6.132,6.232,6.3782,6.5243,6.5897,6.5897,6.5897,6.5897,6.5897,6.5897,6.5897,6.5897,6.5897,6.5897,6.5897,6.4804,6.5264,6.5778,6.7393,6.765,6.765,6.7687,6.7687,6.7687,6.7687,6.7687,6.7687,6.7687,6.7687,6.7357,6.6549,6.6476,6.6145,6.5338,6.5301,6.5301,0.0,0.0,6.409,6.409,6.3246,6.2401,6.1557,0.0,0.0,5.6675,0.0,5.3995,5.5596,5.6418,5.7666,5.9184,6.0052,6.086,6.1594,6.1594,6.2071,6.2805,6.2805,6.278,6.278,6.278,6.278,6.278,6.278,6.278,6.2658,6.1851,6.1594,6.141,6.0639,6.0382,6.0382,6.0382,5.9795,5.9184,5.9184,5.8584,5.7997,5.7997,5.7997,5.7776,5.6969,5.6161,5.5596,5.5559,5.5229,5.4558,5.3322,0.0,0.0,0.0,0.0,0.0,0.0,4.5855,4.4662,4.5518,0.0,0.0,0.0,0.0,0.0,0.0,0.0,0.0,4.8086,5.301,0.0,5.5703,5.9088,6.0781,6.0781,6.0781,6.0781,6.0858,6.2512,6.3743,6.4628,6.5513,6.5897,6.5897,6.5897,6.5897,6.5897,6.5897,6.5897,6.5897,6.5897,6.5897,6.5897,6.8293,6.8128,6.7944,6.8421,6.8054,6.7687,6.7687,6.7687,6.7687,6.7687,6.7687,6.7687,6.7687,6.7687,6.7577,0.0,6.732,6.699,0.0,6.6109,6.5888,6.5338,6.5044,6.4934,6.4934,6.4127,6.3539,6.3282,0.0,0.0,0.0,5.6822,5.7336,5.8914,5.9722,6.0346,6.0896,6.1704,6.2181,6.2438,6.2438,6.2585,6.278,6.278,6.278,6.278,6.278,6.278,6.278,6.278,6.278,6.2768,6.2511,6.2438,6.2365,6.2108,6.1667,6.1227,6.1227,6.0639,6.0015,6.0015,5.9428,5.8841,5.8841,5.84,5.7776,5.6969,5.6602,5.6235,5.5684,5.5973,5.5997,5.5023,5.4558,0.0,0.0,0.0,0.0,0.0,4.6394,4.5287,0.0,4.5893,0.0,0.0,0.0,0.0,0.0,0.0,0.0,0.0,5.3356,0.0,5.6599,5.9396,6.0781,6.0781,6.0781,6.1089,6.1755,6.3435,6.4359,6.4666,6.5513,6.5897,6.5897,6.5897,6.5897,6.5897,6.5897,6.5897,6.5897,6.5897,6.5897,6.5897,7.0,6.9706,6.9339,6.9339,6.8678,6.8238,6.8531,6.8091,6.7797,6.8091,6.7871,6.7687,6.7687,6.7687,0.0,6.7687,6.7687,6.7467,6.699,6.6953,6.6733,6.6219,6.5925,6.5742,6.5742,6.4971,0.0,6.409,6.1741,6.0309,5.9795,5.9795,6.0346,6.1337,6.1814,6.2034,6.2071,6.2585,6.278,6.278,6.278,6.278,6.278,6.278,6.278,6.278,6.278,6.278,6.278,6.278,6.278,6.278,6.278,6.278,6.278,6.278,6.2438,6.2034,6.2034,6.1447,6.086,6.086,6.0272,5.9551,5.9258,5.8804,5.8217,5.7409,5.7262,5.7147,5.6836,5.6964,5.6859,5.604,5.4981,5.3766,5.2462,0.0,0.0,0.0,0.0,0.0,0.0,4.7317,4.7625,0.0,0.0,0.0,0.0,0.0,0.0,5.0818,5.4626,0.0,5.7934,5.9819,6.0781,6.0781,6.1127,6.1897,6.3051,6.4128,6.4782,6.5128,6.5667,6.5897,6.5897,6.5897,6.5897,6.5897,6.5897,6.5897,6.5897,6.5897,6.5897,6.5897,7.0257,7.022,7.0183,0.0,6.9522,0.0,7.0,6.8825,6.8128,6.8898,6.8311,6.7898,6.7898,6.7797,6.776,6.776,0.0,0.0,0.0,6.7687,6.7687,6.7687,6.699,6.6586,6.6586,6.5815,6.5007,6.4163,6.3319,6.289,6.289,6.2817,6.278,6.278,6.278,6.278,6.278,6.278,6.278,6.278,6.278,6.278,6.278,6.278,6.278,6.278,6.278,6.278,6.278,6.278,6.278,6.278,6.278,6.278,6.278,6.278,6.278,6.278,6.278,6.2254,6.1667,6.1667,6.108,6.0272,5.9478,5.9268,5.9034,5.8286,5.8088,5.8216,5.8673,5.8084,5.7321,5.6454,5.4917,5.3135,5.1057,0.0,0.0,0.0,0.0,0.0,0.0,4.9086,4.9586,0.0,0.0,0.0,0.0,0.0,5.1741,5.3318,5.6626,5.8781,5.9588,6.0396,6.0819,6.0896,6.1793,6.3012,6.4589,6.4666,6.5128,6.5897,6.5897,6.5897,6.5897,6.5897,6.5897,6.5897,6.5897,6.5897,6.5897,6.5897,6.5897,6.5897,0.0,0.0,7.1027,7.1027,7.0367,6.9889,7.0073,6.9779,6.9596,6.9779,6.9633,6.9522,6.9522,6.8972,6.8605,6.8605,6.8054,6.7687,6.7687,6.7687,6.7687,6.7687,6.7504,6.7393,6.7393,6.6623,6.5815,6.5007,6.42,6.3796,6.3759,6.3135,6.278,6.278,6.278,6.278,6.278,6.278,6.278,6.278,6.278,6.278,6.278,6.278,6.278,6.278,6.278,6.278,6.278,6.278,6.278,6.278,6.278,6.278,6.278,6.278,6.278,6.278,6.278,6.2658,6.2511,6.2511,6.1924,6.1117,6.0309,5.9922,5.9674,5.9489,5.9244,5.9084,5.9212,5.8828,5.8,5.6539,5.5197,5.3695,5.1885,5.0164,0.0,0.0,4.9933,5.0125,5.0923,5.1192,5.1577,0.0,0.0,0.0,0.0,5.4164,5.4703,5.5088,5.778,5.9627,6.0473,6.0704,6.1127,6.1793,6.2627,6.3589,6.4628,6.5282,6.5705,6.5897,6.5897,6.5897,6.5897,6.5897,6.5897,6.5897,6.5897,6.5897,6.5897,6.5897,6.5897,6.5897,7.2422,7.2165,7.1872,7.1872,7.1174,7.077,7.1138,7.055,7.022,7.0587,7.033,7.011,7.011,6.9706,6.9449,6.9449,6.8385,6.7687,6.7687,6.7687,6.7687,6.7687,6.7687,6.7687,6.7687,6.7247,6.6659,6.5852,6.5044,6.464,6.464,6.3796,6.3392,6.3392,6.2989,6.278,6.278,6.278,6.278,6.278,6.278,6.278,6.278,6.278,6.278,6.278,6.278,6.278,6.278,6.278,6.278,6.278,6.278,6.278,6.278,6.278,6.278,6.278,6.278,6.278,6.278,6.278,6.2475,6.1998,6.1459,6.1159,6.1011,6.0862,6.0397,6.008,6.0281,5.9498,5.82,5.6333,5.517,5.3626,5.1125,4.9971,0.0,5.1087,5.1241,5.1895,5.3472,5.401,5.4241,5.4357,5.4972,0.0,5.5626,5.7165,5.7665,5.6896,5.8588,5.9935,6.0781,6.1204,6.182,6.2666,6.3512,6.4359,6.5205,6.5667,6.5897,6.5897,6.5897,6.5897,6.5897,6.5897,6.5897,6.5897,6.5897,6.5897,6.5897,6.5897,6.5897,6.5897,7.2496,7.2496,7.2496,7.2496,7.1945,7.1725,7.2422,7.1358,7.0697,7.1394,7.0881,7.044,7.044,7.033,7.0293,7.0293,6.8898,6.7981,6.7871,6.776,6.7687,6.7687,6.7687,6.7687,6.7687,6.7687,6.7357,6.6659,6.5888,6.5485,6.5485,6.464,6.4273,6.4237,6.3503,6.3184,6.3184,6.3184,6.3184,6.3184,6.3184,6.3184,6.3184,6.3184,6.3184,6.3184,6.3184,6.3184,6.3184,6.3184,6.3184,6.3184,6.3184,6.3099,6.3025,6.3025,6.2915,6.278,6.278,6.278,6.278,6.278,6.2855,6.2878,6.2628,6.2587,6.2533,6.2236,6.1582,6.118,6.1444,6.0074,5.822,5.6044,5.5011,5.3356,5.0048,0.0,5.0702,5.2115,5.2615,5.378,5.6049,5.6819,5.6983,5.6511,5.8242,5.8819,5.7638,5.9627,6.0204,5.8896,5.9396,6.0127,6.0973,6.187,6.2704,6.3512,6.4243,6.5051,6.5897,6.5897,6.5897,6.5897,6.5897,6.5897,6.5897,6.5897,6.5897,6.5897,6.5897,6.5897,6.5897,6.5897,6.5897,6.5897,7.2496,7.2496,7.2496,7.2496,7.2422,7.2349,7.2496,7.2275,7.2165,7.2312,7.2202,7.2129,7.2129,7.1541,7.1138,7.1138,7.0257,6.9449,6.8752,6.8091,6.7687,6.7687,6.7687,6.7687,6.7687,6.7687,6.7614,6.7504,6.6696,6.6329,6.6292,6.5485,6.5118,6.5118,6.4971,6.4934,6.4934,6.4934,6.4934,6.4934,6.4934,6.4934,6.4934,6.4934,6.4934,6.4934,6.4934,6.4934,6.4934,6.4934,6.4934,6.4934,6.4934,6.4457,6.3906,6.3906,6.3392,6.278,6.278,6.278,6.278,6.278,6.3121,6.3461,6.3423,6.3502,6.3574,6.354,6.3179,6.2721,6.2093,6.0556,5.8569,5.6088,5.5011,5.3549,5.0866,0.0,5.378,5.4087,5.6011,5.7742,5.8819,5.8434,5.8627,5.9896,5.905,5.8973,6.0127,6.0589,6.1012,6.1485,6.0935,6.1012,6.1908,6.2704,6.3551,6.4397,6.4551,6.5051,6.5897,6.5897,6.5897,6.5897,6.5897,6.5897,6.5897,6.5897,6.5897,6.5897,6.5897,6.5897,6.5897,6.5897,6.5897,6.5897,7.2496,7.2496,7.2496,7.2496,7.2496,7.2496,7.2496,7.2496,7.2496,7.2496,7.2496,7.2496,7.2496,7.2165,7.1945,7.1945,7.1211,7.0587,7.022,6.9449,6.8972,6.8972,6.8972,6.8788,6.8348,6.8348,6.8128,6.7687,6.732,6.7136,6.7136,6.6329,6.5962,6.5925,6.5485,6.5301,6.5301,6.5301,6.5301,6.5301,6.5301,6.5301,6.5301,6.5301,6.5301,6.5301,6.5301,6.5301,6.5301,6.5301,6.5483,6.5705,6.5705,6.5668,6.5605,6.5605,6.4502,6.3238,6.3238,6.3453,6.3659,6.3659,6.385,6.4079,6.437,6.4461,6.4589,6.4886,6.4436,6.3897,6.3512,6.1666,5.9819,5.8627,5.6588,0.0,0.0,5.4318,5.5011,5.6395,5.7588,5.8819,6.0089,5.9858,5.9973,6.0742,6.0089,6.0204,6.1435,6.1512,6.1858,6.2704,6.2358,6.2358,6.2743,6.3589,6.4205,6.4628,6.5089,6.5513,6.5897,6.5897,6.5897,6.5897,6.5897,6.5897,6.5897,6.5897,6.5897,6.5897,6.5897,6.5897,6.5897,6.5897,6.5897,6.5897,7.2496,7.2496,7.2496,7.2496,7.2496,7.2496,7.2496,7.2496,7.2496,7.2496,7.2496,7.2496,7.2496,7.2496,7.2496,7.2496,7.1945,7.1578,7.1578,7.0991,7.0477,7.011,7.011,6.9816,6.9192,6.9192,6.8788,6.7981,6.7981,6.7871,6.7687,6.7063,6.6769,6.6733,6.6145,6.5852,6.5852,6.5852,6.5852,6.5852,6.5852,6.5852,6.5852,6.5852,6.5852,6.5852,6.5852,6.5852,6.5852,6.5852,6.6199,6.6634,6.6634,6.6903,6.7183,6.7183,6.5911,6.4441,6.4166,6.4229,6.4389,6.4389,6.4463,6.4643,6.5035,6.5177,6.5417,6.5808,6.5359,6.4859,6.4628,6.2858,6.1243,6.0858,0.0,0.0,0.0,5.6703,5.6934,5.8665,5.9242,5.9973,6.1243,6.1396,6.1396,6.1396,6.1396,6.1666,6.232,6.2358,6.2743,6.3589,6.3589,6.3589,6.3589,6.4474,6.4897,6.4897,6.559,6.5897,6.5897,6.5897,6.5897,6.5897,6.5897,6.5897,6.5897,6.5897,6.5897,6.5897,6.5897,6.5897,6.5897,6.5897,6.5897,6.5897,7.2496,7.2496,7.2496,7.2496,7.2496,7.2496,7.2496,7.2496,7.2496,7.2496,7.2496,7.2496,7.2496,7.2496,7.2496,7.2496,7.2459,7.2422,7.2422,7.2349,7.1651,7.0146,7.011,7.0073,7.0,7.0,6.9633,6.8825,6.8825,6.8421,6.7687,6.7614,6.7614,6.7614,6.754,6.7504,6.7504,6.7504,6.7504,6.7504,6.7504,6.7504,6.7504,6.7504,6.7504,6.7504,6.7504,6.7504,6.7504,6.7504,6.7862,6.8325,6.8325,6.8194,6.7994,6.7994,6.7692,6.703,6.5785,6.4917,6.4389,6.4389,6.4713,6.5067,6.5099,6.5475,6.5833,6.5897,6.5859,6.5551,6.4743,6.3782,6.2627,6.105,0.0,0.0,5.8396,6.0127,6.1331,6.0704,6.1973,6.2974,6.3089,6.3128,6.3128,6.3128,6.3128,6.3115,6.3205,6.3205,6.3628,6.4474,6.4512,6.4512,6.4512,6.5359,6.5782,6.5782,6.5859,6.5897,6.5897,6.5897,6.5897,6.5897,6.5897,6.5897,6.5897,6.5897,6.5897,6.5897,6.5897,6.5897,6.5897,6.5897,6.5897,6.5897,7.2496,7.2496,7.2496,7.2496,7.2496,7.2496,7.2496,7.2496,7.2496,7.2496,7.2496,7.2496,7.2496,7.2496,7.2496,7.2496,7.2496,7.2496,7.2496,7.2496,7.2239,7.1615,7.1578,7.1358,7.0881,7.0844,7.044,6.9633,6.9155,6.8752,6.8421,6.7907,6.7687,6.7687,6.7687,6.7687,6.7687,6.7687,6.7687,6.7687,6.7687,6.7687,6.7687,6.7687,6.7904,6.8173,6.781,6.8148,6.8637,6.8308,6.8758,6.9511,6.9511,6.9675,6.9856,6.9856,6.9391,6.8776,6.8281,6.7141,6.607,6.607,6.5829,6.5583,6.5583,6.5768,6.5897,6.5897,6.5897,6.5782,6.5474,6.4705,6.4089,6.3974,0.0,6.1743,6.2166,6.2127,6.2166,6.232,6.2897,6.3308,6.3308,6.3308,6.3308,6.3308,6.3308,6.3538,6.4089,6.4628,6.5051,6.5397,6.5397,6.5397,6.5397,6.5743,6.5897,6.5897,6.5897,6.5897,6.5897,6.5897,6.5897,6.5897,6.5897,6.5897,6.5897,6.5897,6.5897,6.5897,6.5897,6.5897,6.5897,6.5897,6.5897,6.5897,7.2496,7.2496,7.2496,7.2496,7.2496,7.2496,7.2496,7.2496,7.2496,7.2496,7.2496,7.2496,7.2496,7.2496,7.2496,7.2496,7.2496,7.2496,7.2496,7.2496,7.2496,7.2496,7.2496,7.2239,7.1688,7.1688,7.1284,7.0477,6.9926,6.9522,6.9265,6.8458,6.8091,6.8054,6.7797,6.7687,6.7687,6.7687,6.7687,6.7714,6.7878,6.7956,6.7982,6.8148,6.844,6.8705,6.832,6.8682,6.9251,6.8906,6.9373,7.0112,7.0112,7.0478,7.0898,7.0898,7.0514,7.009,7.009,6.9013,6.7859,6.759,6.6898,6.6282,6.6282,6.609,6.5897,6.5897,6.5897,6.5897,6.5897,6.5397,6.5205,6.5782,6.4436,6.3666,6.4859,6.4012,6.3512,6.4051,6.4128,6.4128,6.4128,6.4128,6.4128,6.4128,6.4128,6.4397,6.4974,6.559,6.5897,6.5897,6.5897,6.5897,6.5897,6.5897,6.5897,6.5897,6.5897,6.5897,6.5897,6.5897,6.5897,6.5897,6.5897,6.5897,6.5897,6.5897,6.5897,6.5897,6.5897,6.5897,6.5897,6.5897,6.5897,6.5897,7.2496,7.2496,7.2496,7.2496,7.2496,7.2496,7.2496,7.2532,7.2532,7.2532,7.2496,7.2496,7.2496,7.2496,7.2496,7.2496,7.2496,7.2496,7.2496,7.2496,7.2496,7.2496,7.2496,7.2496,7.2496,7.2496,7.2129,7.1293,7.1293,7.0881,7.0073,6.9302,6.8898,6.8862,6.8091,6.7724,6.7724,6.7714,6.7751,6.7767,6.8308,6.8511,6.8581,6.9143,6.9313,6.9313,6.9313,6.9313,6.9313,6.9313,6.9664,7.015,7.015,7.0478,7.0937,7.0937,7.0937,7.0898,7.0898,7.0321,6.9513,6.8615,6.7744,6.709,6.709,6.6474,6.5897,6.5897,6.5897,6.5897,6.5897,6.5897,6.5897,6.5897,6.5897,6.5897,6.5897,6.5897,6.5897,6.5897,6.5897,6.5897,6.5897,6.5897,6.5897,6.5897,6.5897,6.5897,6.5897,6.5897,6.5897,6.5897,6.5897,6.5897,6.5897,6.5897,6.5897,6.5897,6.5897,6.5897,6.5897,6.5897,6.5897,6.5897,6.5897,6.5897,6.5897,6.5897,6.5897,6.5897,6.5897,6.5897,6.5897,6.5897,6.5897,6.5897,7.2496,7.2496,7.2496,7.2496,7.2973,7.334,7.334,7.3817,7.4184,7.4184,7.3707,7.334,7.334,7.2826,7.2496,7.2496,7.2496,7.2496,7.2496,7.2496,7.2496,7.2496,7.2496,7.2496,7.2496,7.2496,7.2386,7.2165,7.1578,7.1211,7.0917,7.011,6.9743,6.9743,6.9486,6.9376,6.9431,6.9825,7.0028,7.0066,7.0594,7.0799,7.082,7.099,7.1273,7.1578,7.1174,7.1579,7.2199,7.1761,7.199,7.2494,7.2494,7.2621,7.2706,7.2706,7.2283,7.1822,7.1822,7.1206,7.036,6.9513,6.8667,6.7859,6.7244,6.6898,6.659,6.6013,6.5897,6.5897,6.5897,6.5897,6.5897,6.5897,6.5897,6.5897,6.5897,6.5897,6.5897,6.5897,6.5897,6.5897,6.5897,6.5897,6.5897,6.5897,6.5897,6.5897,6.5897,6.5897,6.5897,6.5897,6.5897,6.5897,6.5897,6.5897,6.5897,6.5897,6.5897,6.5897,6.5897,6.5897,6.5897,6.5897,6.5897,6.5897,6.5897,6.5897,6.5897,6.5897,6.5897,6.5897,6.5897,6.5897,6.5897,6.5897,7.2899,7.2716,7.2716,7.334,7.3597,7.3817,7.4147,7.4588,7.4918,7.4918,7.4478,7.4184,7.4184,7.345,7.2973,7.2973,7.2679,7.2496,7.2496,7.2496,7.2496,7.2496,7.2496,7.2496,7.2496,7.2496,7.2496,7.2496,7.2018,7.1798,7.1762,7.0954,7.0717,7.0914,7.0581,7.0554,7.0785,7.1135,7.132,7.1366,7.191,7.2129,7.2148,7.2375,7.2664,7.2887,7.2594,7.2909,7.3433,7.3092,7.3208,7.3514,7.3514,7.3514,7.3514,7.3514,7.3129,7.2629,7.2283,7.1822,7.1206,7.0398,6.9552,6.8783,6.8244,6.7859,6.7359,6.6551,6.6359,6.6282,6.5974,6.5897,6.5897,6.5897,6.5897,6.5897,6.5897,6.5897,6.5897,6.5897,6.5897,6.5897,6.5897,6.5897,6.5897,6.5897,6.5897,6.5897,6.5897,6.5897,6.5897,6.5897,6.5897,6.5897,6.5897,6.5897,6.5897,6.5897,6.5897,6.5897,6.5897,6.5897,6.5897,6.5897,6.5897,6.5897,6.5897,6.5897,6.5897,6.5897,6.5897,6.5897,6.5897,6.5897,6.5897,6.5897,7.367,7.323,7.3193,7.4661,7.4368,7.4147,7.4918,7.5065,7.5139,7.5139,7.5065,7.5028,7.5028,7.4294,7.3817,7.3817,7.3156,7.2642,7.2496,7.2569,7.2569,7.2496,7.2553,7.2582,7.2582,7.2524,7.2496,7.2496,7.2553,7.2582,7.2545,7.1894,7.187,7.2335,7.1613,7.1568,7.2016,7.2058,7.2078,7.214,7.2695,7.2889,7.2962,7.3499,7.3745,7.3745,7.3745,7.3745,7.3745,7.3745,7.3745,7.3745,7.3745,7.3745,7.3745,7.3745,7.3668,7.3437,7.2629,7.2322,7.2014,7.1206,7.0398,6.9783,6.9706,6.909,6.8282,6.7398,6.7205,6.6974,6.6167,6.5999,6.6012,6.591,6.5923,6.5897,6.591,6.5897,6.5897,6.5897,6.5897,6.5897,6.5897,6.5897,6.5897,6.5897,6.5897,6.5897,6.5897,6.5897,6.5897,6.5897,6.5897,6.5897,6.5897,6.5897,6.5897,6.5897,6.5897,6.5897,6.5897,6.5897,6.5897,6.5897,6.5897,6.5897,6.5897,6.5897,6.5897,6.5897,6.5897,6.5897,6.5897,6.5897,6.5897,6.5897,7.4625,7.4515,7.4515,7.4845,7.5285,7.5652,7.5799,7.6387,7.676,7.676,7.624,7.5836,7.5836,7.5139,7.4661,7.4661,7.4478,7.3854,7.2569,7.3083,7.3156,7.2532,7.2943,7.3224,7.3224,7.2733,7.2496,7.2496,7.297,7.3224,7.3224,7.3525,7.3717,7.3853,7.3665,7.3656,7.377,7.42,7.439,7.4427,7.5031,7.528,7.528,7.5408,7.5476,7.5476,7.5476,7.5476,7.5476,7.5476,7.5476,7.5476,7.5476,7.5476,7.5476,7.5476,7.4976,7.4399,7.4207,7.3206,7.2129,7.1975,7.1283,7.0475,6.986,6.9552,6.9167,6.8321,6.8129,6.7859,6.7013,6.695,6.6808,6.6024,6.5997,6.6024,6.5897,6.5897,6.5897,6.5897,6.5897,6.5897,6.5897,6.5897,6.5897,6.5897,6.5897,6.5897,6.5897,6.5897,6.5897,6.5897,6.5897,6.5897,6.5897,6.5897,6.5897,6.5897,6.5897,6.5897,6.5897,6.5897,6.5897,6.5897,6.5897,6.5897,6.5897,6.5897,6.5897,6.5897,6.5897,6.5897,6.5897,6.5897,6.5897,6.5897,7.5395,7.5175,7.5139,7.5879,7.6093,7.624,7.6607,7.7017,7.7273,7.7273,7.6907,7.668,7.668,7.5946,7.5322,7.4955,7.4918,7.4551,7.3707,7.4037,7.4036,7.3517,7.3781,7.3915,7.3818,7.3516,7.3341,7.3341,7.3651,7.3818,7.3841,7.4161,7.4443,7.469,7.469,7.4828,7.5111,7.5396,7.5535,7.5567,7.5848,7.6015,7.6015,7.6015,7.6015,7.6015,7.6015,7.6015,7.6015,7.6015,7.6015,7.6015,7.6015,7.6015,7.6015,7.6015,7.5668,7.5245,7.4822,7.4053,7.3283,7.2937,7.2476,7.1822,7.0552,7.0283,7.0014,6.9206,6.9065,6.8865,6.8027,6.7987,6.7803,6.6903,6.6829,6.6708,6.6225,6.6056,6.6008,6.6008,6.6008,6.6024,6.6119,6.6056,6.6008,6.6008,6.5946,6.5897,6.5897,6.5967,6.6008,6.6008,6.6108,6.6129,6.6129,6.6129,6.6129,6.6129,6.5967,6.5897,6.591,6.5978,6.6008,6.6019,6.6118,6.6129,6.6129,6.6129,6.6129,6.6129,6.6129,6.6088,6.6008,6.6008,6.5955,6.5936,7.6166,7.5763,7.5763,7.7053,7.6754,7.6533,7.72,7.7273,7.7273,7.7273,7.7273,7.7273,7.7273,7.6717,7.5983,7.5175,7.5249,7.5212,7.4918,7.5028,7.5019,7.483,7.4909,7.4942,7.4897,7.4964,7.4771,7.4293,7.4401,7.4443,7.4443,7.4547,7.4828,7.5254,7.5254,7.5535,7.6015,7.6015,7.6015,7.6015,7.6015,7.6015,7.6015,7.6015,7.6015,7.6015,7.6169,7.6207,7.6207,7.6207,7.613,7.6015,7.6015,7.6015,7.6015,7.6015,7.6015,7.5822,7.513,7.4822,7.4553,7.386,7.3577,7.3144,7.171,7.126,7.0898,7.0052,7.0008,6.9866,6.9062,6.9065,6.8888,6.804,6.7942,6.7675,6.6938,6.6563,6.6367,6.6367,6.6251,6.6212,6.6374,6.6244,6.6135,6.6135,6.6046,6.599,6.599,6.6099,6.6135,6.6135,6.6305,6.6387,6.6387,6.6387,6.6387,6.6387,6.6138,6.599,6.6001,6.6119,6.6135,6.6144,6.632,6.6387,6.6387,6.6387,6.6387,6.6387,6.6387,6.6298,6.6165,6.6128,6.6091,6.6205,7.7127,7.7053,7.7017,7.7237,7.72,7.7163,7.7273,7.7273,7.7273,7.7273,7.7273,7.7273,7.7273,7.72,7.6827,7.6019,7.657,7.6356,7.4992,7.5542,7.5859,7.5738,7.6177,7.6674,7.7208,7.7701,7.6744,7.4293,7.4751,7.4999,7.5017,7.5535,7.5803,7.5902,7.5902,7.5932,7.6015,7.6015,7.6015,7.6015,7.6015,7.6015,7.6015,7.6015,7.6015,7.6092,7.6861,7.713,7.713,7.713,7.663,7.6015,7.6015,7.6015,7.6015,7.6015,7.6015,7.5976,7.5861,7.5284,7.4668,7.4553,7.4014,7.3482,7.3396,7.2712,7.1783,7.0937,7.0896,7.0756,6.9904,7.0051,6.9926,6.8915,6.8885,6.8912,6.8604,6.7937,6.7489,6.7489,6.6821,6.6361,6.6387,6.6368,6.6354,6.6354,6.6327,6.6312,6.6312,6.6341,6.6354,6.6354,6.6374,6.6387,6.6387,6.6387,6.6387,6.6387,6.6341,6.6312,6.6312,6.6341,6.6354,6.6354,6.6381,6.6387,6.6387,6.6387,6.6387,6.6387,6.6387,6.6374,6.6334,6.6153,6.6477,6.6936,7.7273,7.7273,7.7273,7.7273,7.7273,7.7273,7.7273,7.7273,7.7273,7.7273,7.7273,7.7273,7.7273,7.7273,7.7163,7.6827,7.709,7.7156,7.6818,7.7106,7.7404,7.759,7.7775,7.8008,7.813,7.84,7.7883,7.6649,7.642,7.6098,7.56,7.5902,7.6015,7.6015,7.6015,7.6284,7.6746,7.6746,7.6976,7.74,7.74,7.74,7.74,7.74,7.74,7.7438,7.7823,7.7977,7.7977,7.7977,7.7707,7.74,7.74,7.7092,7.6746,7.6746,7.6361,7.6015,7.6015,7.5707,7.5442,7.5581,7.5245,7.4859,7.4693,7.4196,7.3391,7.209,7.1872,7.1647,7.0795,7.0927,7.0859,6.9956,6.9913,6.9864,6.9294,6.8816,6.8349,6.7881,6.7058,6.6572,6.6664,6.6584,6.6507,6.6507,6.6441,6.6387,6.6387,6.6468,6.6746,6.7213,6.7348,6.7607,6.8078,6.8078,6.8078,6.8078,6.8117,6.7516,6.6393,6.6478,6.6507,6.6512,6.661,6.667,6.667,6.667,6.667,6.6703,6.7079,6.7418,6.7623,6.7448,6.7562,6.7898]}]]